Date StartTime U_cm/s V_cm/s W_cm/s Ustd_cm/s Vstd_cm/s Wstd_cm/s Uvar_(cm/s)^2 Vvar_(cm/s)^2 Wvar_(cm/s)^2 KE_(m/s)^2 TurbulentKE_(m/s)^2 HorizWindSpeed_cm/s FrictionSpeec_cm/s DragCoef SpeedOfSound_m/s SonicTemperature_C Pressure_mb 
08/22/2014  00:00:00     -347.286      -43.047      -24.155      111.875       83.165       61.548    12516.116     6916.413     3788.190        7.313        1.161      349.944       62.200        0.032      344.436       21.250      861.006
08/22/2014  00:01:00     -299.708        8.974      -28.891       80.060      114.849       49.769     6409.638    13190.360     2476.935        5.640        1.104      299.843       39.445        0.017      344.426       21.231      861.018
08/22/2014  00:02:00     -271.615      -46.586      -12.261      111.894       80.316       49.151    12520.288     6450.732     2415.794        4.874        1.069      275.581       49.055        0.032      344.390       21.171      861.015
08/22/2014  00:03:00     -350.527      -40.715      -36.086      100.155      110.654       53.367    10031.051    12244.211     2848.005        7.547        1.256      352.884       50.568        0.021      344.448       21.270      861.014
08/22/2014  00:04:00     -307.659      -29.801      -26.576       99.366      111.577       53.040     9873.588    12449.365     2813.280        6.069        1.257      309.099       57.464        0.035      344.413       21.210      861.009
08/22/2014  00:05:00     -358.931       11.889      -32.014       93.971       75.896       52.422     8830.497     5760.130     2748.091        7.366        0.867      359.128       52.682        0.022      344.442       21.260      861.010
08/22/2014  00:06:00     -310.959      -38.522      -20.464      152.230      108.061       52.362    23173.915    11677.185     2741.798        6.809        1.880      313.336       62.655        0.040      344.422       21.227      861.021
08/22/2014  00:07:00     -308.014      -87.952      -15.302      128.188      111.805       56.948    16432.037    12500.327     3243.082        6.750        1.609      320.325       57.076        0.032      344.466       21.302      861.021
08/22/2014  00:08:00     -302.799      -77.069       -6.696      130.918      106.301       60.075    17139.537    11299.949     3609.043        6.485        1.602      312.453       61.319        0.039      344.493       21.348      861.015
08/22/2014  00:09:00     -304.432      -33.218      -28.433      127.541       67.338       52.386    16266.597     4534.415     2744.283        5.906        1.177      306.239       60.703        0.039      344.516       21.387      861.015
08/22/2014  00:10:00     -193.867      -13.562      -17.177       70.064       74.587       44.292     4909.005     5563.162     1961.754        2.525        0.622      194.340       33.397        0.030      344.489       21.341      861.023
08/22/2014  00:11:00     -187.880      -73.650      -20.066       84.583       47.140       35.259     7154.294     2222.156     1243.211        2.587        0.531      201.800       25.710        0.016      344.425       21.232      861.013
08/22/2014  00:12:00     -279.182      -89.993      -14.965       91.487       52.553       38.223     8369.861     2761.863     1461.024        4.943        0.630      293.328       26.526        0.008      344.446       21.266      861.004
08/22/2014  00:13:00     -275.539      -37.484      -24.159       85.919       71.819       45.268     7382.067     5157.910     2049.168        4.625        0.729      278.076       30.511        0.012      344.452       21.275      860.988
08/22/2014  00:14:00     -259.952       -7.473      -40.986       93.694       94.498       60.542     8778.511     8929.943     3665.377        4.534        1.069      260.060       41.880        0.026      344.453       21.280      860.961
08/22/2014  00:15:00     -218.930      -28.613       -8.423      129.141       94.383       63.790    16677.303     8908.105     4069.177        3.923        1.483      220.792       60.381        0.075      344.456       21.286      860.947
08/22/2014  00:16:00     -268.593      -19.631      -24.753      106.547      114.643       58.064    11352.340    13143.082     3371.450        5.050        1.393      269.309       43.649        0.026      344.455       21.282      860.947
08/22/2014  00:17:00     -292.021       30.917      -28.329      122.653       87.828       50.803    15043.863     7713.813     2580.898        5.618        1.267      293.653       47.601        0.026      344.459       21.288      860.933
08/22/2014  00:18:00     -276.560      -16.912      -20.552      126.614       91.568       52.932    16031.076     8384.750     2801.749        5.220        1.361      277.077       47.305        0.029      344.420       21.222      860.934
08/22/2014  00:19:00     -439.562       37.222      -46.952      116.081       87.850       58.845    13474.791     7717.659     3462.697       11.072        1.233      441.135       53.115        0.014      344.516       21.386      860.933
08/22/2014  00:20:00     -244.551      -16.228       -5.355       78.598       85.539       46.149     6177.695     7316.939     2129.690        3.786        0.781      245.089       37.595        0.024      344.465       21.299      860.938
08/22/2014  00:21:00     -290.757      -69.162      -19.389      103.202       78.600       52.064    10650.743     6178.020     2710.659        5.462        0.977      298.870       50.343        0.028      344.429       21.238      860.937
08/22/2014  00:22:00     -276.901      -37.024      -33.744       89.468       97.366       40.677     8004.442     9480.124     1654.657        4.916        0.957      279.365       38.724        0.019      344.434       21.245      860.930
08/22/2014  00:23:00     -248.646       -1.691      -17.142      120.569      113.983       59.546    14536.977    12992.014     3545.743        4.659        1.554      248.652       61.313        0.061      344.382       21.159      860.911
08/22/2014  00:24:00     -305.428       -7.932      -21.163      203.452      110.493       70.748    41392.646    12208.646     5005.234        7.619        2.930      305.531       92.191        0.091      344.392       21.178      860.912
08/22/2014  00:25:00     -286.652      -75.174      -16.070      113.749       94.025       57.857    12938.905     8840.617     3347.484        5.660        1.256      296.346       57.809        0.038      344.425       21.231      860.896
08/22/2014  00:26:00     -311.156      -70.971      -24.260      111.807       92.501       60.205    12500.701     8556.401     3624.655        6.356        1.234      319.147       62.207        0.038      344.430       21.239      860.920
08/22/2014  00:27:00     -375.732      -64.893      -20.421      148.788       95.216       64.725    22137.947     9066.179     4189.365        9.059        1.770      381.294       65.099        0.029      344.495       21.350      860.914
08/22/2014  00:28:00     -405.120      -87.424      -27.797      126.288      134.032       74.272    15948.693    17964.532     5516.277       10.598        1.971      414.446       49.493        0.014      344.548       21.442      860.906
08/22/2014  00:29:00     -284.237     -158.911      -13.776      133.278      108.690       60.648    17763.027    11813.584     3678.154        6.974        1.663      325.643       45.807        0.020      344.473       21.313      860.913
08/22/2014  00:30:00     -335.188     -137.345      -16.878      104.905       92.468       58.660    11004.997     8550.300     3441.005        7.724        1.150      362.236       45.085        0.015      344.488       21.338      860.931
08/22/2014  00:31:00     -257.322      -43.408       -2.512      131.066      124.697       66.895    17178.171    15549.301     4474.908        5.265        1.860      260.958       63.849        0.060      344.472       21.311      860.937
08/22/2014  00:32:00     -383.213      -82.376      -11.868      180.270      123.498       79.869    32497.185    15251.635     6379.131       10.394        2.706      391.966       91.242        0.054      344.498       21.357      860.938
08/22/2014  00:33:00     -259.024      -64.655      -10.025      140.090      120.004       64.750    19625.283    14400.901     4192.605        5.479        1.911      266.971       74.202        0.077      344.494       21.351      860.943
08/22/2014  00:34:00     -317.012      -32.883      -28.220      141.941      123.201       56.698    20147.147    15178.575     3214.677        7.045        1.927      318.713       52.487        0.027      344.525       21.402      860.962
08/22/2014  00:35:00     -321.881     -132.394       -6.343      156.062      128.823       73.320    24355.379    16595.347     5375.778        8.374        2.316      348.046       75.899        0.048      344.543       21.432      860.963
08/22/2014  00:36:00     -351.797      -87.527      -23.699      157.111      104.297       71.786    24684.020    10877.766     5153.287        8.634        2.036      362.521       74.024        0.042      344.571       21.482      860.991
08/22/2014  00:37:00     -341.933     -115.216       -4.644      153.879      135.196       68.636    23678.852    18277.826     4710.890        8.843        2.333      360.822       67.647        0.035      344.540       21.427      861.011
08/22/2014  00:38:00     -425.712        6.345      -48.109      123.502       94.802       53.493    15252.649     8987.386     2861.480       10.534        1.355      425.760       43.930        0.011      344.577       21.489      861.029
08/22/2014  00:39:00     -317.515      -21.138       -7.721      174.096      148.378       79.108    30309.456    22015.986     6258.007        7.994        2.929      318.218       96.545        0.092      344.581       21.499      861.047
08/22/2014  00:40:00     -364.467      -38.069      -16.953      150.718       88.647       59.755    22715.888     7858.236     3570.639        8.435        1.707      366.450       67.758        0.034      344.603       21.534      861.048
08/22/2014  00:41:00     -392.759       16.555      -27.279      121.880       90.722       59.178    14854.617     8230.517     3502.062        9.093        1.329      393.108       58.807        0.022      344.610       21.547      861.045
08/22/2014  00:42:00     -284.760      -63.527       -8.720      107.256      130.157       63.735    11503.894    16940.749     4062.208        5.885        1.625      291.760       63.327        0.047      344.592       21.517      861.023
08/22/2014  00:43:00     -323.411      -66.320       -5.357      134.834      117.944       63.617    18180.129    13910.886     4047.113        7.257        1.807      330.141       64.467        0.038      344.602       21.533      861.028
08/22/2014  00:44:00     -295.956      -15.073      -16.332      118.252      116.778       64.036    13983.639    13637.058     4100.571        5.990        1.586      296.340       58.648        0.039      344.585       21.504      861.008
08/22/2014  00:45:00     -314.824      -99.724      -17.555      134.253       87.266       60.015    18023.886     7615.369     3601.839        6.930        1.462      330.240       59.001        0.032      344.677       21.660      861.000
08/22/2014  00:46:00     -160.159      -49.894        5.748      135.791      104.336       61.068    18439.265    10886.097     3729.283        3.061        1.653      167.751       60.831        0.132      344.564       21.470      860.988
08/22/2014  00:47:00     -212.104      -60.326      -16.879      167.849      105.972       55.749    28173.431    11230.134     3108.004        4.570        2.126      220.516       68.239        0.096      344.597       21.526      860.959
08/22/2014  00:48:00     -257.858      -22.990      -11.772      116.445       79.053       50.806    13559.436     6249.361     2581.232        4.477        1.120      258.880       56.259        0.047      344.572       21.482      860.950
08/22/2014  00:49:00     -238.958      -48.705       -8.191       99.660       84.924       49.622     9932.084     7212.077     2462.362        3.957        0.980      243.871       55.324        0.051      344.561       21.464      860.933
08/22/2014  00:50:00     -305.685      -39.728      -18.846      121.358       99.122       48.066    14727.793     9825.130     2310.339        6.111        1.343      308.255       44.451        0.021      344.557       21.457      860.913
08/22/2014  00:51:00     -242.846      -43.436      -14.101      179.594      100.685       64.932    32253.913    10137.382     4216.171        5.382        2.330      246.700       75.192        0.093      344.554       21.453      860.932
08/22/2014  00:52:00     -399.342      -15.565      -33.923      176.303      130.095       74.612    31082.694    16924.733     5566.925       10.721        2.679      399.645       87.126        0.048      344.609       21.545      860.945
08/22/2014  00:53:00     -283.318     -127.176       -6.267      126.837      105.852       70.219    16087.680    11204.697     4930.756        6.435        1.611      310.552       68.258        0.048      344.605       21.539      860.906
08/22/2014  00:54:00     -427.642      -81.457      -36.798      140.675      136.343       65.373    19789.467    18589.476     4273.572       11.675        2.133      435.331       68.382        0.025      344.615       21.556      860.897
08/22/2014  00:55:00     -326.717      -72.035      -28.223      133.368      168.456       67.227    17786.939    28377.589     4519.536        8.170        2.534      334.564       77.820        0.054      344.563       21.466      860.890
08/22/2014  00:56:00     -298.340      -69.693       -5.041      158.310      115.918       64.869    25062.092    13436.992     4208.014        6.829        2.135      306.372       68.977        0.051      344.548       21.440      860.890
08/22/2014  00:57:00     -361.239      -21.941      -21.766      113.339       98.527       65.822    12845.714     9707.643     4332.583        7.916        1.344      361.905       56.476        0.024      344.574       21.485      860.885
08/22/2014  00:58:00     -355.033      -43.811      -25.612      163.520      105.358       69.856    26738.835    11100.241     4879.871        8.566        2.136      357.726       83.174        0.054      344.565       21.472      860.872
08/22/2014  00:59:00     -397.992      -70.886      -22.852      181.543      144.186       78.533    32957.948    20789.704     6167.379       11.192        2.996      404.256       76.894        0.036      344.568       21.475      860.866
08/22/2014  01:00:00     -402.904      -71.914      -24.797      155.727      113.291       64.944    24250.843    12834.934     4217.727       10.470        2.065      409.271       70.640        0.030      344.554       21.452      860.867
08/22/2014  01:01:00     -431.472      -90.278      -12.905      179.142      107.926       68.817    32091.792    11648.031     4735.848       12.147        2.424      440.816       77.365        0.031      344.547       21.440      860.876
08/22/2014  01:02:00     -296.510      -51.806      -20.596      114.800       72.067       44.618    13179.024     5193.693     1990.734        5.569        1.018      301.002       43.207        0.021      344.525       21.402      860.886
08/22/2014  01:03:00     -311.995     -139.104       -7.685      133.260      114.422       66.917    17758.298    13092.327     4477.836        7.603        1.766      341.600       57.972        0.029      344.519       21.392      860.876
08/22/2014  01:04:00     -287.589      -27.932      -11.872      117.013       99.876       65.575    13691.994     9975.273     4300.037        5.579        1.398      288.942       49.983        0.030      344.452       21.278      860.879
08/22/2014  01:05:00     -350.135      -48.979      -30.634      123.764      126.713       60.683    15317.455    16056.156     3682.411        8.049        1.753      353.544       50.745        0.021      344.500       21.358      860.863
08/22/2014  01:06:00     -306.779      -59.506      -16.703      152.334      137.792       58.944    23205.622    18986.573     3474.421        7.179        2.283      312.497       65.498        0.044      344.513       21.382      860.865
08/22/2014  01:07:00     -363.816      -36.418      -22.955      174.476      122.737       71.625    30441.807    15064.387     5130.110        9.242        2.532      365.635       81.879        0.050      344.505       21.367      860.873
08/22/2014  01:08:00     -307.180      -45.114       -7.276      115.246      118.849       61.193    13281.586    14124.986     3744.609        6.379        1.558      310.475       67.290        0.047      344.525       21.401      860.883
08/22/2014  01:09:00     -436.932      -44.756      -32.430      116.696       93.476       62.356    13617.846     8737.701     3888.305       11.010        1.312      439.218       55.912        0.016      344.545       21.438      860.878
08/22/2014  01:10:00     -358.428      -71.887      -34.392      136.833       81.794       62.376    18723.269     6690.185     3890.780        8.206        1.465      365.566       69.154        0.036      344.504       21.366      860.882
08/22/2014  01:11:00     -381.752      -70.496      -27.587      136.156      127.876       69.394    18538.388    16352.162     4815.596        9.558        1.985      388.206       68.351        0.031      344.485       21.334      860.871
08/22/2014  01:12:00     -267.041      -45.288      -15.317      119.165      108.935       57.663    14200.206    11866.778     3325.020        5.149        1.470      270.854       66.365        0.060      344.453       21.281      860.876
08/22/2014  01:13:00     -325.809      -49.233       -4.040      117.949      119.089       57.655    13911.928    14182.163     3324.083        7.000        1.571      329.508       58.808        0.032      344.461       21.291      860.868
08/22/2014  01:14:00     -262.107      -46.112       -3.744      162.964      106.263       56.650    26557.216    11291.778     3209.189        5.594        2.053      266.132       68.797        0.067      344.400       21.189      860.859
08/22/2014  01:15:00     -325.662     -124.175       -6.716      146.621       87.054       53.994    21497.700     7578.341     2915.350        7.675        1.600      348.533       64.972        0.035      344.432       21.243      860.838
08/22/2014  01:16:00     -406.229      -65.963      -17.571      154.542       87.934       58.650    23883.374     7732.402     3439.850       10.236        1.753      411.550       62.568        0.023      344.411       21.208      860.828
08/22/2014  01:17:00     -292.607      -38.689       -8.812      144.771       93.239       60.811    20958.687     8693.575     3697.938        6.027        1.668      295.154       54.413        0.034      344.396       21.181      860.819
08/22/2014  01:18:00     -220.864      -51.629       -5.310      125.302       99.548       56.608    15700.475     9909.707     3204.520        4.014        1.441      226.818       52.960        0.055      344.377       21.149      860.814
08/22/2014  01:19:00     -259.150      -69.427      -13.759      120.614      102.204       49.720    14547.714    10445.559     2472.083        4.981        1.373      268.289       48.199        0.032      344.353       21.108      860.821
08/22/2014  01:20:00     -419.056     -117.353      -24.902      142.123      110.670       67.697    20199.066    12247.853     4582.938       11.351        1.851      435.178       65.342        0.023      344.409       21.204      860.805
08/22/2014  01:21:00     -437.790     -139.618      -30.470      137.198       89.880       56.281    18823.340     8078.413     3167.519       12.107        1.503      459.514       55.477        0.015      344.458       21.285      860.790
08/22/2014  01:22:00     -402.534      -84.818      -22.604      131.672      126.150       71.259    17337.420    15913.854     5077.858       10.403        1.916      411.373       69.728        0.029      344.459       21.289      860.802
08/22/2014  01:23:00     -355.868     -102.377      -18.567      129.163      127.189       64.315    16683.024    16176.985     4136.393        8.722        1.850      370.301       67.664        0.033      344.421       21.224      860.805
08/22/2014  01:24:00     -395.620     -135.923       -0.757      175.826      157.239       77.587    30914.620    24724.037     6019.704       11.831        3.083      418.319       82.482        0.039      344.434       21.247      860.797
08/22/2014  01:25:00     -380.602      -34.149      -29.734      150.419       90.823       55.238    22626.013     8248.824     3051.205        9.041        1.696      382.131       69.522        0.033      344.440       21.255      860.803
08/22/2014  01:26:00     -351.005      -66.965      -25.637      150.307      115.434       62.706    22592.089    13325.029     3932.073        8.409        1.992      357.336       72.865        0.042      344.388       21.168      860.805
08/22/2014  01:27:00     -459.734      -10.385      -36.917      134.803      112.796       66.354    18171.720    12722.847     4402.881       12.405        1.765      459.852       56.529        0.015      344.458       21.288      860.808
08/22/2014  01:28:00     -254.496      -32.112       -3.947      206.518      101.552       81.441    42649.857    10312.740     6632.660        6.269        2.980      256.514      104.462        0.166      344.368       21.136      860.803
08/22/2014  01:29:00     -346.829      -38.341      -22.698      174.878      118.823       67.719    30582.425    14118.934     4585.875        8.577        2.464      348.942       82.326        0.056      344.414       21.213      860.805
08/22/2014  01:30:00     -292.968      -65.291       -4.992      177.975      163.715       63.059    31675.269    26802.587     3976.396        7.627        3.123      300.155       65.184        0.047      344.435       21.247      860.792
08/22/2014  01:31:00     -349.826      -21.464      -27.562      112.830       83.843       59.340    12730.645     7029.662     3521.253        7.344        1.164      350.484       59.621        0.029      344.414       21.212      860.805
08/22/2014  01:32:00     -297.061      -63.022      -16.253      114.566       78.468       54.070    13125.390     6157.240     2923.575        5.734        1.110      303.673       56.104        0.034      344.367       21.131      860.793
08/22/2014  01:33:00     -333.704      -45.640      -26.009      127.820      101.113       63.713    16337.897    10223.800     4059.395        7.236        1.531      336.811       63.714        0.036      344.388       21.168      860.793
08/22/2014  01:34:00     -350.030      -66.434      -33.440       96.699       85.093       57.793     9350.756     7240.864     3340.028        7.399        0.997      356.278       55.197        0.024      344.370       21.138      860.804
08/22/2014  01:35:00     -330.248      -42.668      -24.166      131.105      114.728       61.471    17188.476    13162.576     3778.737        7.279        1.706      332.993       68.284        0.042      344.363       21.125      860.798
08/22/2014  01:36:00     -287.895      -65.392      -11.182      123.772      101.788       58.190    15319.515    10360.760     3386.101        5.817        1.453      295.228       60.213        0.042      344.344       21.093      860.802
08/22/2014  01:37:00     -380.235     -105.346      -22.781       93.115      110.424       60.492     8670.481    12193.405     3659.265        9.035        1.226      394.559       39.264        0.010      344.391       21.172      860.813
08/22/2014  01:38:00     -271.520      -55.331      -11.455      134.840       74.732       54.322    18181.938     5584.872     2950.836        5.181        1.336      277.100       62.650        0.051      344.311       21.036      860.835
08/22/2014  01:39:00     -174.616      -46.928      -11.168       87.408       71.330       42.973     7640.185     5087.995     1846.670        2.369        0.729      180.812       33.644        0.035      344.275       20.976      860.839
08/22/2014  01:40:00     -269.955      -61.340       -6.656      107.324      129.287       57.075    11518.450    16715.168     3257.590        5.408        1.575      276.836       46.252        0.028      344.343       21.089      860.845
08/22/2014  01:41:00     -371.689       29.050      -26.961       95.767       95.277       46.504     9171.264     9077.726     2162.629        8.006        1.021      372.822       41.100        0.012      344.344       21.094      860.845
08/22/2014  01:42:00     -250.163      -30.802      -12.157       84.055       77.679       49.521     7065.241     6034.042     2452.319        3.961        0.778      252.052       44.172        0.031      344.263       20.955      860.853
08/22/2014  01:43:00     -325.086      -61.455      -26.947       94.238       85.491       55.368     8880.845     7308.740     3065.588        6.472        0.963      330.844       51.149        0.024      344.308       21.033      860.852
08/22/2014  01:44:00     -320.839      -42.124      -43.853       72.195       83.833       46.353     5212.047     7027.966     2148.583        6.051        0.719      323.593       36.215        0.013      344.270       20.966      860.850
08/22/2014  01:45:00     -424.615       25.201      -38.400      144.243       86.373       53.201    20806.008     7460.299     2830.320       10.675        1.555      425.362       56.687        0.018      344.302       21.020      860.847
08/22/2014  01:46:00     -332.781      -78.539      -18.211      130.439       93.089       63.739    17014.371     8665.487     4062.621        7.349        1.487      341.923       66.881        0.038      344.320       21.052      860.851
08/22/2014  01:47:00     -339.763      -66.429       -7.700      152.560       86.003       71.563    23274.564     7396.560     5121.300        7.784        1.790      346.197       82.369        0.057      344.280       20.983      860.873
08/22/2014  01:48:00     -291.744      -57.010      -12.311      107.404       87.229       45.890    11535.631     7608.859     2105.896        5.488        1.063      297.262       48.839        0.027      344.254       20.940      860.895
08/22/2014  01:49:00     -215.906      -53.114        1.854      111.983       74.278       50.727    12540.138     5517.226     2573.269        3.503        1.032      222.343       52.113        0.055      344.237       20.909      860.902
08/22/2014  01:50:00     -251.164      -49.966      -23.182       78.508       74.309       41.335     6163.556     5521.881     1708.618        3.975        0.670      256.086       28.035        0.012      344.213       20.867      860.906
08/22/2014  01:51:00     -205.691      -33.902      -10.377       78.372       67.014       43.470     6142.150     4490.890     1889.633        2.804        0.626      208.466       41.511        0.040      344.149       20.759      860.908
08/22/2014  01:52:00     -227.035      -67.474       -5.829      109.646       90.253       47.033    12022.300     8145.692     2212.067        3.925        1.119      236.850       57.185        0.058      344.134       20.735      860.885
08/22/2014  01:53:00     -296.250        7.617       -9.325      139.025       87.815       56.846    19328.056     7711.488     3231.463        5.908        1.514      296.348       62.444        0.044      344.188       20.827      860.881
08/22/2014  01:54:00     -280.689      -58.281       -1.732      114.572       97.548       56.793    13126.754     9515.654     3225.413        5.402        1.293      286.676       52.906        0.034      344.195       20.839      860.875
08/22/2014  01:55:00     -264.890      -57.091      -11.401       92.187       70.702       46.435     8498.426     4998.707     2156.179        4.460        0.783      270.973       49.905        0.034      344.227       20.893      860.867
08/22/2014  01:56:00     -214.044      -71.226       -0.799       93.937       76.483       42.183     8824.085     5849.621     1779.445        3.367        0.823      225.584       47.080        0.044      344.187       20.824      860.860
08/22/2014  01:57:00     -255.658      -75.980      -14.795       68.789       71.991       44.477     4731.911     5182.643     1978.163        4.162        0.595      266.709       43.909        0.027      344.222       20.885      860.851
08/22/2014  01:58:00     -241.174     -105.666       -9.537       96.036       76.571       46.458     9222.887     5863.130     2158.309        4.333        0.862      263.306       47.739        0.033      344.210       20.864      860.849
08/22/2014  01:59:00     -262.343      -68.064      -12.668       99.660       79.037       50.891     9932.150     6246.910     2589.908        4.619        0.938      271.028       39.158        0.021      344.226       20.890      860.842
08/22/2014  02:00:00     -157.301      -30.739        4.850      110.473       83.873       43.474    12204.218     7034.697     1890.009        2.342        1.056      160.277       47.319        0.087      344.167       20.792      860.833
08/22/2014  02:01:00     -198.583      -59.119      -10.510      119.161       69.999       42.657    14199.364     4899.845     1819.598        3.198        1.046      207.197       27.145        0.017      344.149       20.761      860.814
08/22/2014  02:02:00     -284.640        9.930      -21.828       96.779       80.128       44.253     9366.091     6420.470     1958.284        4.967        0.887      284.813       50.892        0.032      344.176       20.805      860.805
08/22/2014  02:03:00     -291.778       -0.925      -10.957      134.744       98.710       62.362    18155.819     9743.626     3889.054        5.852        1.589      291.780       74.692        0.066      344.264       20.954      860.780
08/22/2014  02:04:00     -315.716      -22.021      -24.425      106.799      109.521       49.053    11406.024    11994.835     2406.217        6.328        1.290      316.483       48.253        0.023      344.230       20.898      860.780
08/22/2014  02:05:00     -292.635      -78.299      -17.801      112.074       87.152       53.764    12560.486     7595.474     2890.566        5.756        1.152      302.929       57.919        0.037      344.215       20.873      860.771
08/22/2014  02:06:00     -314.389      -14.707      -14.711      117.745       91.541       52.818    13863.896     8379.712     2789.750        6.215        1.252      314.733       53.249        0.029      344.219       20.879      860.769
08/22/2014  02:07:00     -292.462       15.404      -20.302       96.112       88.381       58.030     9237.448     7811.219     3367.434        5.330        1.021      292.868       37.049        0.016      344.218       20.876      860.768
08/22/2014  02:08:00     -329.684      -96.839       -6.275      108.628       95.801       56.131    11799.999     9177.800     3150.711        7.111        1.206      343.612       56.325        0.027      344.204       20.853      860.778
08/22/2014  02:09:00     -220.298      -75.801       -4.511       86.737       87.880       52.123     7523.299     7722.978     2716.827        3.613        0.898      232.975       48.039        0.043      344.156       20.772      860.792
08/22/2014  02:10:00     -185.955      -99.219      -12.191       84.580       57.848       41.938     7153.708     3346.398     1758.818        2.841        0.613      210.769       39.580        0.035      344.129       20.727      860.808
08/22/2014  02:11:00     -243.031     -111.893       -1.893       73.119       61.154       46.000     5346.369     3739.869     2116.032        4.139        0.560      267.552       43.838        0.027      344.131       20.728      860.821
08/22/2014  02:12:00     -217.320      -92.958       -1.036      107.108       62.381       46.747    11472.202     3891.346     2185.244        3.671        0.877      236.367       50.986        0.047      344.111       20.695      860.826
08/22/2014  02:13:00     -204.210      -60.419       -4.433      109.061       64.279       41.143    11894.266     4131.742     1692.724        3.154        0.886      212.961       50.615        0.056      344.148       20.759      860.826
08/22/2014  02:14:00     -217.002      -51.304       -7.662      102.020       73.914       41.296    10408.164     5463.249     1705.399        3.368        0.879      222.984       44.241        0.039      344.095       20.668      860.826
08/22/2014  02:15:00     -197.230      -61.979        2.117       77.899       55.926       40.325     6068.292     3127.736     1626.082        2.678        0.541      206.739       42.611        0.042      344.105       20.684      860.836
08/22/2014  02:16:00     -233.263      -99.075        1.756       79.478       70.088       44.696     6316.749     4912.276     1997.697        3.873        0.661      253.431       38.209        0.023      344.151       20.761      860.846
08/22/2014  02:17:00     -248.762      -57.308       -8.483      109.524       91.027       51.863    11995.431     8285.910     2689.725        4.410        1.149      255.278       57.099        0.050      344.201       20.849      860.854
08/22/2014  02:18:00     -237.212       11.899      -11.799       82.208       78.214       49.846     6758.109     6117.375     2484.601        3.595        0.768      237.511       33.505        0.020      344.221       20.883      860.842
08/22/2014  02:19:00     -223.925        7.930      -10.009      131.217      107.940       56.920    17217.904    11651.132     3239.849        4.120        1.605      224.066       73.422        0.107      344.260       20.950      860.843
08/22/2014  02:20:00     -108.636        8.219        3.670       90.761       63.613       37.692     8237.615     4046.559     1420.683        1.279        0.685      108.947       39.273        0.130      344.156       20.776      860.838
08/22/2014  02:21:00      -99.260      -13.751        0.924       79.314       70.962       43.951     6290.675     5035.542     1931.659        1.165        0.663      100.208       34.128        0.116      344.211       20.868      860.835
08/22/2014  02:22:00     -212.895      -83.010        0.373      106.302      105.486       47.532    11300.217    11127.290     2259.321        3.845        1.234      228.506       40.581        0.032      344.288       20.997      860.839
08/22/2014  02:23:00     -232.982      -31.508      -11.660      118.073       92.645       49.718    13941.215     8583.156     2471.837        4.020        1.250      235.103       53.018        0.051      344.273       20.972      860.837
08/22/2014  02:24:00     -275.909      -43.642      -18.860      104.997       90.029       56.776    11024.349     8105.301     3223.520        5.037        1.118      279.339       59.425        0.045      344.285       20.991      860.830
08/22/2014  02:25:00     -192.770      -95.634        7.195      114.724       75.828       56.091    13161.517     5749.907     3146.201        3.420        1.103      215.189       53.515        0.062      344.254       20.940      860.819
08/22/2014  02:26:00     -244.489      -55.960      -13.560      103.846       83.809       47.466    10784.035     7023.922     2253.054        4.157        1.003      250.811       43.858        0.031      344.269       20.966      860.808
08/22/2014  02:27:00     -239.903      -52.175       -3.909       84.807       73.479       44.374     7192.209     5399.186     1969.056        3.742        0.728      245.511       46.728        0.036      344.231       20.900      860.797
08/22/2014  02:28:00     -324.153      -56.782       -8.514      122.850       75.102       59.247    15092.008     5640.352     3510.165        6.630        1.212      329.088       63.084        0.037      344.292       21.004      860.774
08/22/2014  02:29:00     -265.313      -52.348       -0.052      101.533       86.802       49.049    10308.982     7534.550     2405.798        4.669        1.012      270.428       51.224        0.036      344.256       20.943      860.750
08/22/2014  02:30:00     -277.779      -35.673      -12.247      109.723       92.318       56.854    12039.111     8522.619     3232.360        5.118        1.190      280.060       54.661        0.038      344.241       20.916      860.729
08/22/2014  02:31:00     -275.419      -58.769       -8.962       98.129       79.813       53.440     9629.206     6370.074     2855.866        4.912        0.943      281.619       47.165        0.028      344.253       20.937      860.712
08/22/2014  02:32:00     -264.071      -56.627        1.658      109.813       83.353       50.773    12058.835     6947.802     2577.866        4.726        1.079      270.075       50.918        0.036      344.207       20.858      860.699
08/22/2014  02:33:00     -152.769      -63.107       -4.830       77.484       58.174       29.361     6003.803     3384.230      862.048        1.880        0.513      165.290       29.143        0.031      344.195       20.839      860.693
08/22/2014  02:34:00     -171.304      -51.875       -5.571       63.506       68.154       35.113     4032.955     4644.963     1232.925        2.099        0.496      178.987       33.458        0.035      344.178       20.811      860.682
08/22/2014  02:35:00     -174.605      -80.216       -4.868       97.430       60.497       39.168     9492.598     3659.892     1534.097        2.581        0.734      192.150       42.330        0.049      344.185       20.822      860.707
08/22/2014  02:36:00     -208.130     -102.054       -9.256      118.592       96.027       51.993    14063.970     9221.131     2703.252        3.990        1.299      231.804       50.763        0.048      344.243       20.921      860.713
08/22/2014  02:37:00     -206.828     -120.300       -5.073      134.253       66.218       47.713    18023.858     4384.796     2276.557        4.098        1.234      239.270       50.844        0.045      344.239       20.914      860.721
08/22/2014  02:38:00      -55.012      -63.223        2.362       78.491       49.694       36.006     6160.808     2469.535     1296.417        0.848        0.496       83.806       30.951        0.136      344.226       20.894      860.721
08/22/2014  02:39:00      -72.889      -44.229        0.745       72.926       39.685       32.325     5318.165     1574.868     1044.892        0.760        0.397       85.258       36.346        0.182      344.223       20.889      860.711
08/22/2014  02:40:00      -78.320      -74.748        6.957       69.133       62.242       44.485     4779.399     3874.010     1978.929        1.120        0.532      108.265       47.735        0.194      344.233       20.906      860.716
08/22/2014  02:41:00      -68.158      -90.823       17.388       64.553       54.032       40.953     4167.132     2919.504     1677.161        1.098        0.438      113.553       39.931        0.124      344.179       20.814      860.714
08/22/2014  02:42:00      -70.631      -54.023       10.236       63.397       53.356       29.965     4019.124     2846.884      897.921        0.789        0.388       88.923       22.566        0.064      344.214       20.875      860.706
08/22/2014  02:43:00     -114.068      -86.168        0.112       66.484       50.361       26.350     4420.067     2536.198      694.331        1.404        0.383      142.956       28.131        0.039      344.254       20.940      860.705
08/22/2014  02:44:00     -115.721      -53.506       14.385       91.187       53.086       39.503     8315.004     2818.165     1560.481        1.457        0.635      127.493       42.184        0.109      344.191       20.834      860.691
08/22/2014  02:45:00     -150.969      -33.175       -2.023       90.718       72.699       35.777     8229.783     5285.144     1280.015        1.934        0.740      154.571       41.316        0.071      344.231       20.901      860.702
08/22/2014  02:46:00      -47.797      -28.868       10.178       61.310       54.449       32.766     3758.860     2964.703     1073.603        0.551        0.390       55.838       37.956        0.462      344.176       20.808      860.702
08/22/2014  02:47:00     -214.646      -60.541       -5.205       86.098       64.477       40.435     7412.814     4157.241     1635.007        3.148        0.660      223.020       39.883        0.032      344.299       21.016      860.699
08/22/2014  02:48:00     -149.660      -30.970       -9.476      121.036       61.233       38.564    14649.784     3749.497     1487.189        2.166        0.994      152.831       39.454        0.067      344.211       20.868      860.687
08/22/2014  02:49:00     -200.512      -35.332       -8.105       74.429       59.403       41.118     5539.748     3528.692     1690.649        2.614        0.538      203.601       38.546        0.036      344.268       20.963      860.685
08/22/2014  02:50:00     -324.700      -53.472      -17.656      126.460       97.111       48.274    15992.010     9430.516     2330.345        6.817        1.388      329.074       56.647        0.030      344.374       21.144      860.687
08/22/2014  02:51:00     -180.299      -66.674       -9.696       92.253       47.095       34.640     8510.664     2217.986     1199.907        2.449        0.596      192.232       36.346        0.036      344.315       21.045      860.681
08/22/2014  02:52:00     -148.953      -15.057        7.610      142.657       78.437       50.114    20351.009     6152.341     2511.402        2.574        1.451      149.712       68.007        0.206      344.300       21.019      860.685
08/22/2014  02:53:00     -210.427       -0.945      -13.241       82.264       67.040       50.815     6767.426     4494.394     2582.139        2.915        0.692      210.429       53.763        0.065      344.378       21.152      860.684
08/22/2014  02:54:00      -91.937      -16.366        9.866      103.081       66.351       39.109    10625.608     4402.513     1529.480        1.268        0.828       93.382       45.997        0.243      344.306       21.030      860.687
08/22/2014  02:55:00     -159.907      -41.868        4.400       75.928       75.029       44.988     5765.033     5629.397     2023.896        2.038        0.671      165.297       38.837        0.055      344.331       21.071      860.698
08/22/2014  02:56:00     -291.679      -36.801      -16.813      176.271      121.453       61.839    31071.556    14750.941     3824.017        6.817        2.482      293.991       70.528        0.058      344.512       21.379      860.692
08/22/2014  02:57:00     -197.477      -60.756       -8.290      124.616       77.872       56.945    15529.074     6064.079     3242.763        3.379        1.242      206.612       64.545        0.098      344.424       21.232      860.687
08/22/2014  02:58:00     -180.117      -66.053      -14.102       61.833       46.044       37.489     3823.306     2120.063     1405.415        2.218        0.367      191.847       35.225        0.034      344.418       21.220      860.696
08/22/2014  02:59:00      -94.812      -48.711        0.740       62.610       38.305       34.415     3920.058     1467.249     1184.362        0.897        0.329      106.594       21.434        0.040      344.376       21.151      860.721
08/22/2014  03:00:00       -3.305      -23.827       -5.857       20.688       30.323       19.668      427.982      919.477      386.813        0.117        0.087       24.055       21.085        0.768      344.339       21.088      860.739
08/22/2014  03:01:00      -55.503      -38.373        1.214       51.049       43.116       31.163     2606.030     1858.953      971.145        0.499        0.272       67.477       28.639        0.180      344.354       21.112      860.757
08/22/2014  03:02:00        5.746       14.417       21.569       49.648       25.945       23.178     2464.940      673.168      537.230        0.219        0.184       15.520       20.456        1.737      344.170       20.800      860.747
08/22/2014  03:03:00       37.216      -31.007       20.363       38.138       57.152       32.998     1454.515     3266.333     1088.846        0.428        0.290       48.440       34.359        0.503      343.897       20.333      860.737
08/22/2014  03:04:00       11.572       -8.555       13.836       37.086       39.832       32.702     1375.370     1586.558     1069.416        0.221        0.202       14.391       22.487        2.441      343.606       19.836      860.721
08/22/2014  03:05:00       26.934      -12.850       28.181       36.511       50.533       39.893     1333.047     2553.573     1591.467        0.358        0.274       29.843       36.661        1.509      343.425       19.528      860.716
08/22/2014  03:06:00       34.692        4.056       20.905       36.074       31.834       30.753     1301.299     1013.416      945.755        0.246        0.163       34.929       21.144        0.366      343.350       19.400      860.728
08/22/2014  03:07:00       12.201       21.657       41.697       24.958       31.312       21.334      622.900      980.425      455.154        0.221        0.103       24.858       20.107        0.654      343.355       19.408      860.723
08/22/2014  03:08:00       23.512      -33.545        6.561       16.999       27.905       15.829      288.969      778.670      250.565        0.152        0.066       40.964       15.156        0.137      343.380       19.449      860.739
08/22/2014  03:09:00      -17.845      -46.207       -1.723       20.013       23.708       11.855      400.530      562.061      140.550        0.178        0.055       49.533       11.401        0.053      343.533       19.710      860.751
08/22/2014  03:10:00        7.355      -41.384        4.209        8.743       10.468        8.587       76.446      109.586       73.743        0.102        0.013       42.032        6.567        0.024      343.679       19.960      860.741
08/22/2014  03:11:00      -34.643      -65.905       -5.406       28.506       21.884       15.037      812.567      478.919      226.126        0.354        0.076       74.456        9.499        0.016      343.885       20.311      860.716
08/22/2014  03:12:00      -58.674      -60.221       -2.514       33.905       38.667       20.352     1149.543     1495.125      414.206        0.507        0.153       84.079       19.230        0.052      343.742       20.068      860.739
08/22/2014  03:13:00       -2.362      -45.928        5.148       45.607       28.493       21.237     2079.965      811.861      451.013        0.274        0.167       45.988       15.476        0.113      343.647       19.906      860.737
08/22/2014  03:14:00      -30.088        0.344       -9.886       47.124       36.187       28.576     2220.703     1309.535      816.571        0.267        0.217       30.090       25.623        0.725      343.831       20.219      860.730
08/22/2014  03:15:00      -28.926      -42.364       -0.556       39.781       24.699       18.168     1582.501      610.017      330.080        0.258        0.126       51.297       18.032        0.124      343.634       19.884      860.763
08/22/2014  03:16:00       -5.914      -49.510       -3.486       33.814       23.839       21.176     1143.355      568.314      448.415        0.233        0.108       49.862       20.625        0.171      343.539       19.722      860.764
08/22/2014  03:17:00      -25.070      -38.203       -8.473       33.058       29.414       27.973     1092.801      865.173      782.497        0.245        0.137       45.694       22.346        0.239      343.445       19.559      860.772
08/22/2014  03:18:00        7.459      -84.638      -11.799       38.794       60.261       27.943     1504.980     3631.333      780.826        0.664        0.296       84.966        9.390        0.012      343.553       19.744      860.792
08/22/2014  03:19:00      -35.272     -132.120       -3.089       35.437       46.237       23.008     1255.781     2137.860      529.373        1.132        0.196      136.747       18.162        0.018      343.686       19.971      860.804
08/22/2014  03:20:00      -50.018     -103.007       -3.346       26.000       23.620       21.817      675.981      557.890      475.988        0.742        0.085      114.509       14.005        0.015      343.664       19.934      860.812
08/22/2014  03:21:00     -109.109      -74.983      -12.825       49.729       27.447       21.507     2472.953      753.332      462.543        1.069        0.184      132.391       18.942        0.020      343.670       19.944      860.809
08/22/2014  03:22:00      -66.890      -76.478       -8.710       31.953       23.801       21.967     1020.965      566.466      482.562        0.623        0.103      101.603       17.244        0.029      343.644       19.900      860.815
08/22/2014  03:23:00      -75.439      -76.023        1.353       59.564       38.121       22.720     3547.909     1453.180      516.202        0.849        0.276      107.101       20.665        0.037      343.669       19.942      860.833
08/22/2014  03:24:00     -103.901     -123.103       -4.678       43.481       46.948       22.757     1890.561     2204.125      517.900        1.529        0.231      161.089       16.003        0.010      343.604       19.831      860.859
08/22/2014  03:25:00      -87.360      -49.393       -1.963       37.161       32.079       17.461     1380.950     1029.065      304.904        0.639        0.136      100.356       15.261        0.023      343.527       19.701      860.866
08/22/2014  03:26:00      -65.621     -149.559       -0.243       27.962       67.455       22.264      781.860     4550.179      495.698        1.625        0.291      163.322       11.941        0.005      343.592       19.811      860.858
08/22/2014  03:27:00      -13.233      -80.567       -7.735       28.724       37.998       23.091      825.092     1443.830      533.207        0.476        0.140       81.647       15.048        0.034      343.566       19.766      860.852
08/22/2014  03:28:00      -62.019      -67.739       -0.652       28.294       36.645       23.515      800.562     1342.883      552.945        0.557        0.135       91.842       16.915        0.034      343.546       19.733      860.854
08/22/2014  03:29:00      -55.487      -92.563       -2.214       36.694       32.843       25.269     1346.438     1078.690      638.542        0.736        0.153      107.920       17.921        0.028      343.536       19.717      860.865
08/22/2014  03:30:00      -34.442      -94.950      -14.514       36.679       31.446       27.889     1345.343      988.845      777.810        0.676        0.156      101.004       11.382        0.013      343.520       19.690      860.842
08/22/2014  03:31:00       -9.994     -109.764      -18.583       49.964       38.798       30.082     2496.391     1505.323      904.909        0.870        0.245      110.218       17.741        0.026      343.556       19.750      860.828
08/22/2014  03:32:00      -46.481      -46.402       -7.217       24.648       26.857       21.126      607.530      721.316      446.310        0.307        0.089       65.678       10.475        0.025      343.511       19.673      860.814
08/22/2014  03:33:00      -71.853      -61.935        0.471       56.751       51.757       25.131     3220.710     2678.757      631.586        0.776        0.327       94.862       24.982        0.069      343.505       19.665      860.814
08/22/2014  03:34:00      -10.769      -76.346        2.071       44.773       39.569       27.210     2004.593     1565.672      740.387        0.513        0.216       77.102       24.980        0.105      343.565       19.766      860.797
08/22/2014  03:35:00      -15.017      -44.601        5.737       34.027       55.049       19.601     1157.816     3030.432      384.191        0.341        0.229       47.061       15.849        0.113      343.551       19.742      860.778
08/22/2014  03:36:00      -84.538      -50.962       -4.972       34.610       33.839       17.454     1197.836     1145.097      304.632        0.621        0.132       98.710       16.606        0.028      343.535       19.714      860.769
08/22/2014  03:37:00      -21.251      -18.424        6.460       38.071       22.929       17.112     1449.390      525.754      292.822        0.155        0.113       28.125       20.394        0.526      343.476       19.616      860.766
08/22/2014  03:38:00      -55.446      -36.721        1.256       19.718       19.117       11.541      388.794      365.466      133.195        0.266        0.044       66.503        8.346        0.016      343.432       19.539      860.755
08/22/2014  03:39:00        9.049      -52.223      -11.120       22.824       14.624       10.019      520.942      213.871      100.371        0.188        0.042       53.001       10.512        0.039      343.509       19.669      860.746
08/22/2014  03:40:00        2.743      -47.623        1.508       19.522       30.433       22.034      381.125      926.151      485.480        0.203        0.090       47.701       10.054        0.044      343.390       19.468      860.735
08/22/2014  03:41:00      -21.424      -35.859       -2.573       25.915       25.419       16.254      671.579      646.105      264.196        0.167        0.079       41.771       14.329        0.118      343.398       19.482      860.729
08/22/2014  03:42:00      -39.994      -50.046       -4.162       17.940       25.627       13.863      321.832      656.750      192.179        0.265        0.059       64.063        3.828        0.004      343.479       19.618      860.713
08/22/2014  03:43:00      -32.142      -19.918       -7.840       15.310       10.493        8.353      234.388      110.109       69.770        0.095        0.021       37.813        4.236        0.013      343.431       19.539      860.686
08/22/2014  03:44:00      -52.099      -16.512       -6.966       24.465       12.734        9.379      598.530      162.153       87.974        0.194        0.042       54.653        8.504        0.024      343.462       19.591      860.656
08/22/2014  03:45:00      -61.197      -27.161       -5.959       17.532       13.944       12.291      307.356      194.445      151.061        0.259        0.033       66.953       10.875        0.026      343.409       19.502      860.640
08/22/2014  03:46:00      -50.721      -35.271        4.372       41.770       20.672       15.317     1744.697      427.340      234.612        0.312        0.120       61.779        9.904        0.026      343.360       19.417      860.636
08/22/2014  03:47:00      -13.174      -57.221       -4.734       15.519       13.228       11.774      240.833      174.987      138.627        0.201        0.028       58.717        7.377        0.016      343.357       19.412      860.631
08/22/2014  03:48:00      -31.185      -87.324        7.717       19.397       23.851       10.937      376.235      568.877      119.611        0.486        0.053       92.725        9.380        0.010      343.547       19.735      860.616
08/22/2014  03:49:00       -7.579      -49.057        4.449       17.528       44.290       13.681      307.246     1961.579      187.179        0.247        0.123       49.639       13.639        0.075      343.524       19.697      860.583
08/22/2014  03:50:00      -23.929        2.913        3.579       20.466       15.163       13.117      418.855      229.911      172.066        0.071        0.041       24.105        8.534        0.125      343.389       19.464      860.541
08/22/2014  03:51:00       -5.257        4.420        1.322       20.318       14.213        9.646      412.824      202.022       93.050        0.038        0.035        6.869        6.806        0.982      343.341       19.386      860.515
08/22/2014  03:52:00        0.831        4.512        9.667       56.624       25.619       19.810     3206.273      656.346      392.433        0.218        0.213        4.588       26.891       34.356      343.284       19.289      860.505
08/22/2014  03:53:00       38.323       37.078       30.345       30.015       15.383       23.157      900.916      236.630      536.265        0.272        0.084       53.324       19.202        0.130      342.730       18.344      860.501
08/22/2014  03:54:00        8.711       36.079       46.830       35.062       30.124       25.546     1229.312      907.471      652.615        0.318        0.139       37.115       22.707        0.374      342.764       18.402      860.507
08/22/2014  03:55:00       72.010       17.719       16.316       44.864       32.183       28.172     2012.765     1035.772      793.658        0.480        0.192       74.158       26.908        0.132      342.596       18.118      860.504
08/22/2014  03:56:00       85.994       45.250       11.390       36.469       26.523       28.159     1329.992      703.459      792.923        0.620        0.141       97.172       21.046        0.047      342.488       17.932      860.504
08/22/2014  03:57:00      107.977       63.019       24.301       40.523       16.899       20.936     1642.103      285.570      438.297        0.929        0.118      125.021       14.973        0.014      342.452       17.870      860.511
08/22/2014  03:58:00       53.165       19.499       17.704       50.182       39.498       26.356     2518.240     1560.112      694.658        0.415        0.239       56.628       23.927        0.179      342.573       18.077      860.515
08/22/2014  03:59:00       15.107      -16.516       22.075       36.627       47.627       29.853     1341.554     2268.374      891.195        0.274        0.225       22.383       37.657        2.830      342.519       17.987      860.541
08/22/2014  04:00:00       32.908      -15.279       20.116       25.556       48.995       35.719      653.128     2400.507     1275.821        0.302        0.216       36.282       38.449        1.123      342.531       18.006      860.581
08/22/2014  04:01:00       -5.865       44.701       64.110       19.031       31.215       24.867      362.160      974.372      618.351        0.405        0.098       45.084       23.006        0.260      342.579       18.089      860.593
08/22/2014  04:02:00       12.627       67.469       78.341       30.833       30.516       17.467      950.700      931.218      305.095        0.652        0.109       68.641       15.302        0.050      342.504       17.960      860.597
08/22/2014  04:03:00       40.072       55.209       49.707       24.814       28.055       20.444      615.730      787.098      417.941        0.447        0.091       68.219       14.213        0.043      342.491       17.938      860.620
08/22/2014  04:04:00       53.621       43.067       32.920       24.004       25.512       26.088      576.202      650.856      680.568        0.386        0.095       68.774       17.751        0.067      342.425       17.825      860.639
08/22/2014  04:05:00      104.971       33.484       26.617       61.512       39.306       36.649     3783.720     1544.984     1343.161        0.976        0.334      110.182       32.379        0.086      342.479       17.917      860.624
08/22/2014  04:06:00       44.814       28.072       36.192       44.545       35.171       33.885     1984.220     1237.007     1148.171        0.424        0.218       52.880       25.807        0.238      342.462       17.888      860.599
08/22/2014  04:07:00      201.740      124.902        8.364       68.926       55.221       49.462     4750.861     3049.361     2446.516        3.331        0.512      237.275       36.651        0.024      342.504       17.956      860.580
08/22/2014  04:08:00       97.088       43.325       19.049       63.043       36.758       37.225     3974.412     1351.115     1385.720        0.919        0.336      106.316       32.429        0.093      342.383       17.753      860.547
08/22/2014  04:09:00       94.122       51.024       19.252       96.620       38.929       33.870     9335.420     1515.469     1147.188        1.191        0.600      107.062       18.571        0.030      342.394       17.771      860.542
08/22/2014  04:10:00       35.855       22.886        9.878       34.924       29.990       23.585     1219.718      899.385      556.266        0.229        0.134       42.536       17.437        0.168      342.290       17.595      860.540
08/22/2014  04:11:00       56.843       45.741       13.649       56.808       52.376       32.342     3227.140     2743.200     1046.025        0.626        0.351       72.962       27.116        0.138      342.407       17.795      860.543
08/22/2014  04:12:00       58.720       35.725        4.716       47.221       28.779       27.089     2229.779      828.234      733.835        0.427        0.190       68.734       16.079        0.055      342.475       17.911      860.541
08/22/2014  04:13:00      135.469       82.196       -4.180       30.448       31.191       24.943      927.085      972.868      622.135        1.382        0.126      158.455       12.496        0.006      342.544       18.029      860.529
08/22/2014  04:14:00      135.236       73.827       15.831       42.592       31.500       33.715     1814.089      992.261     1136.711        1.397        0.197      154.075       22.424        0.021      342.590       18.106      860.514
08/22/2014  04:15:00      163.814       80.128       23.454       56.496       51.057       40.626     3191.790     2606.845     1650.480        2.063        0.372      182.361       34.052        0.035      342.526       17.995      860.471
08/22/2014  04:16:00       91.017       71.798       52.112       55.022       57.954       51.986     3027.445     3358.630     2702.593        1.262        0.454      115.927       35.935        0.096      342.430       17.833      860.427
08/22/2014  04:17:00      161.496       78.513       12.508       41.941       40.323       34.146     1759.075     1625.908     1165.942        1.848        0.228      179.569       19.702        0.012      342.304       17.618      860.400
08/22/2014  04:18:00      144.518       70.764       13.842       55.447       34.686       29.729     3074.373     1203.146      883.810        1.562        0.258      160.913       20.970        0.017      342.246       17.520      860.380
08/22/2014  04:19:00       52.317       40.678       39.395       54.593       36.653       27.830     2980.342     1343.428      774.523        0.552        0.255       66.271       28.406        0.184      342.157       17.371      860.379
08/22/2014  04:20:00       20.144      -25.296       13.877       31.909       35.117       27.792     1018.160     1233.231      772.386        0.213        0.151       32.337       18.836        0.339      342.315       17.639      860.363
08/22/2014  04:21:00       44.432       -0.737       11.252       34.652       62.457       32.274     1200.789     3900.916     1041.587        0.412        0.307       44.438       28.134        0.401      342.323       17.652      860.374
08/22/2014  04:22:00       59.455       -0.397       30.140       47.496       36.830       31.810     2255.846     1356.418     1011.879        0.453        0.231       59.457       29.306        0.243      342.359       17.714      860.384
08/22/2014  04:23:00       28.266       37.664       45.133       38.236       20.913       20.450     1462.011      437.360      418.208        0.329        0.116       47.091       18.220        0.150      342.347       17.693      860.359
08/22/2014  04:24:00       32.839        3.277       28.960       49.525       30.986       26.818     2452.751      960.127      719.208        0.303        0.207       33.002       15.800        0.229      342.469       17.899      860.338
08/22/2014  04:25:00       57.322        3.859       50.409       50.872       75.786       42.554     2587.992     5743.498     1810.872        0.799        0.507       57.452       53.386        0.863      342.272       17.566      860.371
08/22/2014  04:26:00       28.402       25.682       49.341       39.021       36.141       22.353     1522.633     1306.192      499.661        0.361        0.166       38.291       19.636        0.263      342.240       17.511      860.407
08/22/2014  04:27:00       15.102       39.324       61.486       25.927       33.333       25.182      672.224     1111.116      634.149        0.399        0.121       42.124       24.727        0.345      342.305       17.623      860.425
08/22/2014  04:28:00       53.332        6.705       23.322       40.751       28.126       28.014     1660.635      791.088      784.783        0.333        0.162       53.752       22.516        0.175      342.298       17.609      860.458
08/22/2014  04:29:00       46.443       54.512       28.876       38.223       26.672       29.688     1460.993      711.370      881.381        0.451        0.153       71.613        9.230        0.017      342.280       17.580      860.472
08/22/2014  04:30:00       73.176       39.837       18.535       42.826       29.803       26.451     1834.107      888.221      699.642        0.535        0.171       83.317        8.703        0.011      342.200       17.444      860.496
08/22/2014  04:31:00       89.145       43.402        9.324       42.604       32.126       23.621     1815.137     1032.111      557.939        0.666        0.170       99.149       19.286        0.038      342.138       17.336      860.528
08/22/2014  04:32:00      119.408       48.393       21.704       48.657       21.610       29.891     2367.511      466.978      893.442        1.040        0.186      128.842       22.253        0.030      342.108       17.288      860.521
08/22/2014  04:33:00       85.386       98.351       69.759       45.695       44.023       33.123     2088.036     1938.055     1097.149        1.348        0.256      130.245       23.921        0.034      342.188       17.423      860.495
08/22/2014  04:34:00       38.761       73.870       79.098       43.613       30.639       24.936     1902.116      938.729      621.826        0.834        0.173       83.422       24.152        0.084      342.165       17.384      860.487
08/22/2014  04:35:00       23.029       41.421       56.795       34.107       36.254       30.411     1163.305     1314.319      924.840        0.444        0.170       47.393       29.019        0.375      342.157       17.369      860.478
08/22/2014  04:36:00       45.861       36.793       43.598       39.849       23.554       21.819     1587.934      554.789      476.047        0.399        0.131       58.796       16.760        0.081      342.077       17.234      860.463
08/22/2014  04:37:00       73.616       24.867       20.407       37.893       27.613       31.579     1435.883      762.454      997.237        0.482        0.160       77.703       21.848        0.079      342.134       17.331      860.443
08/22/2014  04:38:00       69.297       24.793       18.830       38.020       28.456       20.708     1445.520      809.736      428.808        0.423        0.134       73.598       19.024        0.067      342.075       17.229      860.431
08/22/2014  04:39:00      115.917       37.852       21.506       29.117       22.692       24.968      847.785      514.935      623.389        0.866        0.099      121.941       10.267        0.007      342.101       17.274      860.447
08/22/2014  04:40:00       62.911       57.508       52.853       43.127       30.164       32.169     1859.966      909.841     1034.844        0.693        0.190       85.234       25.190        0.087      342.099       17.271      860.469
08/22/2014  04:41:00       34.592       55.570       61.733       39.552       28.667       19.463     1564.347      821.791      378.820        0.543        0.138       65.457       15.329        0.055      342.120       17.307      860.486
08/22/2014  04:42:00       20.725      -13.433       13.813       32.327       28.423       18.866     1045.007      807.893      355.927        0.150        0.110       24.698       17.082        0.478      342.172       17.395      860.536
08/22/2014  04:43:00        4.346      -47.685       -5.917       19.696       20.619       14.292      387.929      425.124      204.263        0.167        0.051       47.883       11.274        0.055      342.285       17.588      860.551
08/22/2014  04:44:00       17.221        3.337        4.583       18.069       22.778       15.360      326.498      518.856      235.938        0.070        0.054       17.541       10.570        0.363      342.192       17.429      860.507
08/22/2014  04:45:00       14.956        8.380       13.686       18.279       13.757       12.158      334.126      189.265      147.823        0.058        0.034       17.144        5.268        0.094      342.009       17.119      860.476
08/22/2014  04:46:00      -16.713       20.137       -0.619       26.868       20.309        8.598      721.887      412.453       73.932        0.095        0.060       26.169       10.427        0.159      341.960       17.034      860.497
08/22/2014  04:47:00      -72.245       22.395       -5.139       17.141       13.368        8.573      293.820      178.699       73.491        0.315        0.027       75.637        6.151        0.007      341.912       16.953      860.532
08/22/2014  04:48:00      -53.022        5.159       -0.304       24.973        7.938       11.639      623.664       63.012      135.456        0.183        0.041       53.272       13.683        0.066      341.962       17.038      860.546
08/22/2014  04:49:00       37.079       35.288       19.390       39.029       23.601       10.356     1523.273      556.985      107.248        0.259        0.109       51.187       16.619        0.105      341.984       17.077      860.544
08/22/2014  04:50:00      109.846       49.214       18.447       23.356       24.807       22.987      545.489      615.387      528.424        0.826        0.084      120.367       13.664        0.013      342.257       17.540      860.531
08/22/2014  04:51:00       59.776       21.016       19.980       34.229       30.046       21.397     1171.605      902.791      457.848        0.347        0.127       63.362       15.493        0.060      342.294       17.603      860.544
08/22/2014  04:52:00       -6.485      -31.003        1.901       16.060       23.255       11.411      257.927      540.789      130.213        0.097        0.046       31.674        8.846        0.078      342.364       17.724      860.586
08/22/2014  04:53:00      -22.393      -14.228       -7.979       15.440       16.142       10.302      238.402      260.548      106.124        0.069        0.030       26.531        6.445        0.059      342.341       17.682      860.624
08/22/2014  04:54:00        9.011      -24.653       -9.085       12.992       14.678        9.624      168.805      215.431       92.617        0.062        0.024       26.248        7.354        0.078      342.344       17.687      860.626
08/22/2014  04:55:00       -9.091       -8.875       -1.913       10.754       17.945       11.377      115.641      322.017      129.431        0.037        0.028       12.705       13.190        1.078      342.317       17.641      860.602
08/22/2014  04:56:00        1.317        3.207        2.886       12.556        8.418        7.031      157.662       70.858       49.428        0.015        0.014        3.467        5.348        2.380      342.248       17.526      860.586
08/22/2014  04:57:00        3.662       11.007       -4.227        6.989        6.050        5.540       48.848       36.603       30.687        0.013        0.006       11.601        2.922        0.063      342.344       17.688      860.596
08/22/2014  04:58:00      -53.428        6.849       -6.454       23.136        7.287        7.170      535.263       53.093       51.403        0.179        0.032       53.865        4.354        0.007      342.323       17.651      860.603
08/22/2014  04:59:00      -81.527       15.506       -9.710        7.543        8.496        6.431       56.897       72.188       41.355        0.358        0.009       82.989        3.911        0.002      342.206       17.453      860.607
08/22/2014  05:00:00      -54.425       11.239      -16.524       13.715       12.217        6.225      188.109      149.250       38.750        0.187        0.019       55.574        5.183        0.009      342.283       17.585      860.597
08/22/2014  05:01:00      -12.201       -4.333       -4.602       16.500       12.498       11.825      272.261      156.189      139.835        0.038        0.028       12.948       13.080        1.021      342.224       17.484      860.563
08/22/2014  05:02:00      -21.183       23.761       -7.351       12.150       14.762        9.653      147.622      217.923       93.175        0.076        0.023       31.833        6.202        0.038      342.297       17.607      860.527
08/22/2014  05:03:00      -18.541       12.119       -4.140       12.129        7.733        8.341      147.116       59.799       69.564        0.039        0.014       22.151        3.585        0.026      342.374       17.741      860.507
08/22/2014  05:04:00      -17.007        8.942       -2.470        8.517        8.185        7.910       72.536       66.999       62.571        0.029        0.010       19.214        5.325        0.077      342.224       17.484      860.506
08/22/2014  05:05:00       11.182        8.405        6.075       11.861        7.015        4.981      140.675       49.212       24.809        0.022        0.011       13.989        4.916        0.123      342.190       17.425      860.480
08/22/2014  05:06:00       46.526       34.662        9.502       10.478       12.855       10.633      109.797      165.261      113.065        0.192        0.019       58.018        9.042        0.024      342.101       17.276      860.436
08/22/2014  05:07:00       24.203       16.105        0.573       29.624       21.342        6.307      877.575      455.461       39.776        0.111        0.069       29.071       10.471        0.130      341.942       17.005      860.400
08/22/2014  05:08:00      -12.783       -1.763      -14.030       20.872       13.025        6.743      435.644      169.662       45.469        0.051        0.033       12.904        6.829        0.280      342.003       17.109      860.429
08/22/2014  05:09:00      -41.350      -26.319       -4.122       49.128       26.140       20.252     2413.585      683.316      410.160        0.296        0.175       49.015       19.174        0.153      342.046       17.181      860.511
08/22/2014  05:10:00      -39.990      -63.304        4.200       45.299       37.287       24.915     2051.956     1390.301      620.746        0.484        0.203       74.878       20.329        0.074      341.968       17.050      860.568
08/22/2014  05:11:00      -30.030      -32.050        4.993       42.087       48.170       19.299     1771.286     2320.318      372.439        0.321        0.223       43.921       30.833        0.493      342.109       17.288      860.555
08/22/2014  05:12:00       62.519       47.786       19.714       16.884       22.969       20.660      285.073      527.589      426.838        0.391        0.062       78.690        5.624        0.005      342.081       17.241      860.487
08/22/2014  05:13:00       98.723       76.750        3.994       34.084       22.954       23.282     1161.714      526.871      542.048        0.894        0.112      125.047       12.141        0.009      342.139       17.340      860.425
08/22/2014  05:14:00       44.959       66.339       -9.525       30.720       37.325       21.756      943.745     1393.156      473.335        0.466        0.141       80.139       19.740        0.061      341.953       17.024      860.392
08/22/2014  05:15:00       34.517       77.318      -11.702       17.386       20.709       13.712      302.289      428.883      188.007        0.411        0.046       84.673       10.907        0.017      342.282       17.583      860.390
08/22/2014  05:16:00       -6.952       79.936      -12.601       22.803       29.144        8.055      519.975      849.361       64.884        0.402        0.072       80.238        6.311        0.006      342.451       17.869      860.405
08/22/2014  05:17:00      -27.627       12.175       -6.200       15.068       18.757        9.943      227.055      351.836       98.861        0.081        0.034       30.191        8.336        0.076      342.038       17.168      860.417
08/22/2014  05:18:00       -2.682        8.874       -5.446       17.803       11.419        6.682      316.936      130.390       44.643        0.030        0.025        9.270        4.508        0.236      342.153       17.364      860.416
08/22/2014  05:19:00        5.509       -5.669       -2.525       10.132       19.794       11.089      102.650      391.815      122.963        0.034        0.031        7.905        1.953        0.061      342.239       17.511      860.424
08/22/2014  05:20:00       10.296      -62.962       -7.171       15.368       12.785       11.347      236.181      163.463      128.747        0.232        0.026       63.798        6.689        0.011      342.190       17.427      860.434
08/22/2014  05:21:00      -58.894      -53.245       -1.988       42.876       20.549       12.644     1838.325      422.269      159.872        0.436        0.121       79.395       12.818        0.026      342.284       17.586      860.460
08/22/2014  05:22:00      -78.949      -54.113       -1.267       39.840       33.975       19.304     1587.186     1154.269      372.629        0.614        0.156       95.714       18.275        0.036      342.116       17.299      860.459
08/22/2014  05:23:00      -92.776      -23.230       -4.898       24.802       34.338       14.907      615.129     1179.071      222.209        0.559        0.101       95.640       13.733        0.021      342.040       17.172      860.411
08/22/2014  05:24:00     -113.834       39.831      -12.907       21.835       23.550       14.080      476.784      554.587      198.260        0.797        0.061      120.602        5.071        0.002      341.881       16.902      860.314
08/22/2014  05:25:00      -75.979       51.873       -7.626       47.120       30.557       21.806     2220.254      933.726      475.487        0.607        0.181       91.998       19.441        0.045      341.778       16.728      860.247
08/22/2014  05:26:00     -105.321       50.135      -29.777       28.146       41.638       20.370      792.204     1733.714      414.929        0.872        0.147      116.645        7.622        0.004      341.845       16.841      860.239
08/22/2014  05:27:00      -29.769      -15.403        3.197       38.030       26.278       23.510     1446.249      690.514      552.715        0.191        0.134       33.518       16.771        0.250      341.774       16.719      860.290
08/22/2014  05:28:00        4.676      -42.176        8.222       44.793       26.630       16.306     2006.447      709.167      265.872        0.242        0.149       42.434       14.895        0.123      341.815       16.790      860.332
08/22/2014  05:29:00      -60.799      -54.010       -2.010       30.011       30.100       17.263      900.649      906.037      298.022        0.436        0.105       81.324       14.234        0.031      341.815       16.790      860.360
08/22/2014  05:30:00     -144.623      -45.235       -9.621       34.738       24.229       16.790     1206.704      587.055      281.891        1.256        0.104      151.532       14.418        0.009      341.861       16.866      860.387
08/22/2014  05:31:00     -158.275       16.238      -16.046       37.157       29.456       19.313     1380.623      867.679      372.991        1.410        0.131      159.106       18.933        0.014      341.857       16.861      860.405
08/22/2014  05:32:00     -175.315       43.314      -16.240       42.302       30.929       21.099     1789.466      956.631      445.172        1.803        0.160      180.587       19.456        0.012      341.816       16.789      860.426
08/22/2014  05:33:00     -153.379       43.212      -11.340       42.717       27.862       23.431     1824.755      776.316      549.002        1.433        0.158      159.350       10.166        0.004      341.899       16.931      860.448
08/22/2014  05:34:00      -90.094       10.603       -9.853       39.693       25.253       12.901     1575.558      637.713      166.444        0.535        0.119       90.716        7.501        0.007      341.888       16.914      860.459
08/22/2014  05:35:00      -77.113      -13.790      -14.798       32.475       36.027       24.447     1054.640     1297.919      597.675        0.465        0.148       78.336       19.793        0.064      341.941       17.002      860.459
08/22/2014  05:36:00      -85.683      -53.937      -12.778       27.954       25.137       21.837      781.434      631.844      476.836        0.615        0.095      101.246        9.773        0.009      341.889       16.916      860.457
08/22/2014  05:37:00     -152.196      -60.222      -16.266       31.589       29.441       20.471      997.886      866.780      419.050        1.467        0.114      163.678       16.340        0.010      341.731       16.648      860.456
08/22/2014  05:38:00      -88.551      -27.603        0.209       35.861       29.736       21.530     1285.984      884.215      463.527        0.562        0.132       92.753       18.986        0.042      341.624       16.467      860.448
08/22/2014  05:39:00     -112.608      -34.638       -1.446       29.087       29.823       18.241      846.078      889.418      332.717        0.797        0.103      117.815       15.291        0.017      341.651       16.511      860.440
08/22/2014  05:40:00      -81.808      -19.056       -4.289       29.773       24.503       18.448      886.452      600.404      340.333        0.445        0.091       83.998       16.984        0.041      341.649       16.509      860.444
08/22/2014  05:41:00     -108.803        3.558       -7.628       27.511       28.286       20.398      756.849      800.119      416.093        0.694        0.099      108.861       14.512        0.018      341.704       16.601      860.467
08/22/2014  05:42:00      -70.042      -23.182        1.397       23.300       26.289       15.974      542.894      691.121      255.172        0.347        0.074       73.779       14.049        0.036      341.700       16.594      860.473
08/22/2014  05:43:00      -44.605      -47.680       -3.463       28.550       14.622       14.877      815.116      213.799      221.334        0.276        0.063       65.292       14.613        0.050      341.839       16.831      860.469
08/22/2014  05:44:00      -37.424      -36.313       -6.653       16.086       13.149        8.199      258.747      172.890       67.222        0.163        0.025       52.146        6.264        0.014      341.906       16.945      860.471
08/22/2014  05:45:00      -64.090      -29.398       -8.646       17.142        8.345        7.314      293.831       69.638       53.501        0.273        0.021       70.511        7.083        0.010      341.874       16.889      860.492
08/22/2014  05:46:00      -99.907      -27.079      -12.743        9.510       16.244       11.901       90.437      263.870      141.634        0.569        0.025      103.512        5.411        0.003      341.901       16.935      860.524
08/22/2014  05:47:00      -84.241      -41.837       -7.643       27.335       13.856       11.561      747.218      191.985      133.665        0.499        0.054       94.058        5.013        0.003      341.835       16.823      860.530
08/22/2014  05:48:00      -57.881      -30.434       -3.792       26.525       19.872       14.811      703.549      394.905      219.366        0.280        0.066       65.394       12.404        0.036      341.767       16.709      860.507
08/22/2014  05:49:00      -58.450      -17.723       -7.366       14.153       16.243        9.345      200.318      263.847       87.329        0.217        0.028       61.078        7.454        0.015      341.798       16.759      860.460
08/22/2014  05:50:00      -56.274      -16.886       -8.338        9.887       12.802        6.144       97.747      163.889       37.749        0.191        0.015       58.753        6.646        0.013      341.953       17.024      860.412
08/22/2014  05:51:00      -77.602       -2.861      -13.961        8.657        7.476        5.556       74.945       55.897       30.867        0.319        0.008       77.654        3.190        0.002      342.054       17.195      860.392
08/22/2014  05:52:00     -109.717      -13.114      -17.747       16.653       13.923       10.592      277.313      193.839      112.189        0.655        0.029      110.498        5.476        0.002      341.898       16.930      860.424
08/22/2014  05:53:00      -88.586      -20.136       -4.505       37.421       39.509       16.209     1400.330     1560.981      262.718        0.575        0.161       90.846       13.452        0.022      341.634       16.482      860.474
08/22/2014  05:54:00      -87.012       -6.301      -15.143       35.479       36.150       22.475     1258.736     1306.819      505.145        0.545        0.154       87.240       15.401        0.031      341.534       16.313      860.523
08/22/2014  05:55:00      -44.602       -2.764      -10.932       43.912       23.025       16.865     1928.301      530.146      284.414        0.243        0.137       44.688       17.706        0.157      341.540       16.323      860.546
08/22/2014  05:56:00      -39.258        0.593      -13.799       18.623       24.341       12.486      346.835      592.474      155.905        0.141        0.055       39.263       12.093        0.095      341.660       16.526      860.547
08/22/2014  05:57:00      -46.001       19.807      -11.892       18.961       20.672       14.102      359.509      427.347      198.874        0.182        0.049       50.084        9.673        0.037      341.643       16.498      860.562
08/22/2014  05:58:00      -62.993       14.688      -13.230       13.166       18.059        8.709      173.356      326.130       75.845        0.247        0.029       64.683        4.184        0.004      341.714       16.619      860.572
08/22/2014  05:59:00      -23.845      -31.006       -8.399       32.395       15.210       12.767     1049.466      231.355      163.004        0.152        0.072       39.115        6.053        0.024      341.703       16.600      860.579
08/22/2014  06:00:00      -44.309      -37.435       -5.332       36.622       18.609       15.202     1341.158      346.294      231.114        0.266        0.096       58.006       17.478        0.091      341.648       16.508      860.576
08/22/2014  06:01:00        2.200      -25.511       -2.561       17.194       19.511       13.080      295.618      380.680      171.084        0.075        0.042       25.605        7.026        0.075      341.666       16.537      860.566
08/22/2014  06:02:00      -23.130      -48.649       -1.191       35.081       24.863       21.485     1230.674      618.148      461.615        0.261        0.116       53.867       10.593        0.039      341.568       16.369      860.573
08/22/2014  06:03:00      -40.863      -49.971        4.446       36.193       30.353       24.947     1309.956      921.312      622.359        0.352        0.143       64.551       26.586        0.170      341.528       16.302      860.607
08/22/2014  06:04:00      -98.181      -88.439        0.293       55.423       40.925       26.103     3071.759     1674.866      681.343        1.144        0.271      132.140       17.498        0.018      341.579       16.388      860.644
08/22/2014  06:05:00     -132.619      -90.087       -4.605       44.200       33.449       25.040     1953.658     1118.849      627.014        1.471        0.185      160.323       24.778        0.024      341.720       16.628      860.672
08/22/2014  06:06:00     -137.513      -58.968      -11.374       44.247       27.195       21.309     1957.831      739.592      454.064        1.283        0.158      149.623       17.839        0.014      341.791       16.748      860.662
08/22/2014  06:07:00     -140.813      -25.817       -9.779       45.206       37.377       25.062     2043.605     1397.067      628.108        1.233        0.203      143.160       25.242        0.031      341.664       16.534      860.644
08/22/2014  06:08:00     -160.109       41.557      -15.888       47.780       43.534       29.286     2282.924     1895.188      857.681        1.632        0.252      165.414       20.272        0.015      341.575       16.382      860.633
08/22/2014  06:09:00     -172.781       47.923      -13.188       38.894       36.117       26.065     1512.727     1304.429      679.375        1.791        0.175      179.304       21.144        0.014      341.520       16.289      860.639
08/22/2014  06:10:00     -189.984       42.748      -10.723       35.416       34.574       25.507     1254.291     1195.360      650.586        2.057        0.155      194.734       17.935        0.008      341.826       16.808      860.659
08/22/2014  06:11:00     -161.960       38.555      -17.867       25.866       25.010       18.844      669.040      625.509      355.113        1.484        0.082      166.485       13.292        0.006      341.866       16.877      860.685
08/22/2014  06:12:00      -97.793       14.339       -5.723       37.092       20.681       16.196     1375.827      427.709      262.318        0.593        0.103       98.838       16.637        0.028      341.923       16.972      860.717
08/22/2014  06:13:00      -13.778      -25.397       -0.441       24.775       20.568       13.145      613.822      423.052      172.804        0.102        0.060       28.893        8.742        0.092      341.815       16.791      860.748
08/22/2014  06:14:00       -6.484      -27.966      -14.023       21.010       16.781       11.992      441.434      281.608      143.815        0.094        0.043       28.708        9.929        0.120      341.836       16.826      860.771
08/22/2014  06:15:00        8.645      -22.171       -2.942       17.164       22.623       19.260      294.597      511.792      370.943        0.088        0.059       23.797       12.099        0.258      341.868       16.879      860.773
08/22/2014  06:16:00      -66.773      -38.326       -0.645       53.982       22.911       20.672     2914.108      524.931      427.312        0.490        0.193       76.990       26.627        0.120      341.675       16.552      860.777
08/22/2014  06:17:00      -78.855      -53.651       -4.958       25.145       22.763       17.602      632.273      518.157      309.847        0.529        0.073       95.375       11.883        0.016      341.690       16.577      860.765
08/22/2014  06:18:00     -102.562      -60.030       -6.256       28.620       32.611       12.878      819.103     1063.491      165.842        0.810        0.102      118.838        7.062        0.004      341.681       16.563      860.741
08/22/2014  06:19:00      -91.767       -7.829      -10.652       22.708       16.779       14.246      515.670      281.533      202.936        0.480        0.050       92.100       13.701        0.022      341.559       16.356      860.708
08/22/2014  06:20:00      -99.403       22.056      -10.190       15.067       14.529        8.465      227.008      211.101       71.662        0.549        0.025      101.821        3.431        0.001      341.612       16.445      860.671
08/22/2014  06:21:00      -85.399       31.378      -10.669       22.586       14.495       11.007      510.120      210.119      121.150        0.462        0.042       90.982       10.467        0.013      341.704       16.600      860.649
08/22/2014  06:22:00      -61.000        4.757       -5.151       26.659       23.528       15.694      710.679      553.571      246.289        0.264        0.076       61.186       14.320        0.055      341.609       16.440      860.644
08/22/2014  06:23:00      -22.400      -24.282        1.419       25.494       22.571       13.468      649.947      509.471      181.381        0.122        0.067       33.036       14.624        0.196      341.632       16.480      860.651
08/22/2014  06:24:00        3.491      -59.048      -10.092       15.717       15.041       11.411      247.024      226.227      130.202        0.210        0.030       59.151        7.755        0.017      341.705       16.605      860.671
08/22/2014  06:25:00      -12.463      -57.537       -7.731       13.980       27.047       12.942      195.430      731.521      167.501        0.231        0.055       58.871        9.058        0.024      341.699       16.593      860.688
08/22/2014  06:26:00      -49.370      -47.098       -2.884       51.253       32.598       26.426     2626.906     1062.604      698.337        0.453        0.219       68.232       21.477        0.099      341.679       16.559      860.668
08/22/2014  06:27:00      -97.849      -37.755       -2.893       35.091       34.575       21.039     1231.352     1195.442      442.620        0.694        0.143      104.880       14.826        0.020      341.608       16.440      860.630
08/22/2014  06:28:00      -64.627      -59.917        0.667       36.714       30.382       20.969     1347.907      923.067      439.685        0.524        0.136       88.129       17.985        0.042      341.532       16.308      860.641
08/22/2014  06:29:00      -74.620      -65.471       -4.102       23.705       26.011       17.337      561.945      676.598      300.556        0.570        0.077       99.270        8.771        0.008      341.510       16.274      860.657
08/22/2014  06:30:00      -66.881      -25.876        0.663       15.966       16.195       12.438      254.908      262.267      154.698        0.291        0.034       71.712        9.323        0.017      341.429       16.135      860.645
08/22/2014  06:31:00      -46.061      -15.355       -7.695       13.709       10.620        8.781      187.925      112.783       77.111        0.140        0.019       48.553        4.574        0.009      341.491       16.238      860.622
08/22/2014  06:32:00      -59.364       -5.357       -7.349       14.359        9.731        6.836      206.186       94.689       46.730        0.198        0.017       59.605        5.161        0.007      341.459       16.187      860.641
08/22/2014  06:33:00     -100.644      -37.139       -5.959       16.438       14.760        7.300      270.206      217.860       53.295        0.604        0.027      107.278        5.900        0.003      341.480       16.221      860.661
08/22/2014  06:34:00     -120.655      -43.952       -6.671       18.463       16.524       10.644      340.867      273.056      113.294        0.863        0.036      128.411       10.579        0.007      341.476       16.215      860.672
08/22/2014  06:35:00      -82.763      -64.838        1.948       48.893       31.134       28.833     2390.525      969.354      831.334        0.762        0.210      105.136       16.520        0.025      341.404       16.093      860.685
08/22/2014  06:36:00      -49.663      -62.860        2.221       30.184       40.217       17.234      911.044     1617.387      297.022        0.462        0.141       80.111       10.982        0.019      341.372       16.038      860.690
08/22/2014  06:37:00      -62.006      -32.334       -3.165       16.925       13.262       10.172      286.456      175.876      103.466        0.273        0.028       69.930        7.771        0.012      341.472       16.208      860.655
08/22/2014  06:38:00      -86.237      -36.187       -6.347       12.669       18.264        6.959      160.504      333.575       48.427        0.466        0.027       93.522        4.622        0.002      341.451       16.172      860.636
08/22/2014  06:39:00     -121.995      -46.915       -3.665       32.181       21.294       14.952     1035.637      453.436      223.557        0.940        0.086      130.705       13.055        0.010      341.357       16.013      860.626
08/22/2014  06:40:00      -97.624      -74.452       -2.879       44.036       37.551       26.356     1939.154     1410.093      694.638        0.956        0.202      122.774       16.300        0.018      341.323       15.955      860.609
08/22/2014  06:41:00     -111.357       25.009       -9.177       49.637       35.990       17.170     2463.811     1295.246      294.796        0.858        0.203      114.131       18.037        0.025      341.192       15.734      860.594
08/22/2014  06:42:00      -60.659       11.893      -11.639       35.207       25.664       17.096     1239.557      658.633      292.279        0.307        0.110       61.814       11.711        0.036      341.084       15.552      860.591
08/22/2014  06:43:00      -23.544       28.137        2.059       30.597       24.519       20.931      936.204      601.198      438.093        0.166        0.099       36.688       20.806        0.322      341.322       15.954      860.576
08/22/2014  06:44:00       25.281      -17.032        1.938       16.574       33.865       15.848      274.682     1146.837      251.151        0.130        0.084       30.484       16.574        0.296      341.592       16.412      860.548
08/22/2014  06:45:00      -25.153      -30.180        2.329       22.800       21.889       18.733      519.854      479.145      350.939        0.145        0.067       39.288       17.030        0.188      341.833       16.820      860.556
08/22/2014  06:46:00      -75.578      -32.292        8.729       50.312       27.410       28.837     2531.323      751.324      831.584        0.547        0.206       82.187       28.029        0.116      341.591       16.410      860.574
08/22/2014  06:47:00     -124.828      -31.446       -8.291       20.278       26.710       18.153      411.178      713.445      329.534        0.905        0.073      128.728       10.622        0.007      341.335       15.975      860.585
08/22/2014  06:48:00     -121.844       -7.122       -9.980       43.786       30.083       27.769     1917.254      904.998      771.116        0.929        0.180      122.052       26.521        0.047      341.165       15.689      860.605
08/22/2014  06:49:00      -67.294      -21.574       -3.831       39.766       23.050       19.235     1581.347      531.319      369.977        0.375        0.124       70.667       19.412        0.075      341.385       16.060      860.617
08/22/2014  06:50:00        2.359      -22.360       -3.059       19.867       22.870       16.911      394.700      523.056      285.998        0.086        0.060       22.484       12.809        0.325      341.613       16.447      860.623
08/22/2014  06:51:00      -18.093      -17.065       -2.756       22.556       20.982       13.384      508.790      440.242      179.123        0.088        0.056       24.871        7.215        0.084      341.687       16.574      860.638
08/22/2014  06:52:00      -64.509      -25.656       -3.065       19.782        9.981        8.154      391.331       99.610       66.488        0.269        0.028       69.424        5.135        0.005      341.565       16.365      860.643
08/22/2014  06:53:00      -18.187       -7.051        2.614       17.813       20.166       13.549      317.295      406.671      183.583        0.065        0.045       19.506       12.743        0.427      341.587       16.404      860.648
08/22/2014  06:54:00      -34.068      -17.206       -2.911       19.291       24.939       14.257      372.160      621.930      203.259        0.133        0.060       38.166        8.174        0.046      341.451       16.172      860.658
08/22/2014  06:55:00       -6.969      -30.764        3.887       25.233       15.280       12.759      636.706      233.466      162.781        0.102        0.052       31.544        7.642        0.059      341.518       16.286      860.681
08/22/2014  06:56:00       11.237        2.878       10.624       13.534       15.098       10.071      183.157      227.949      101.422        0.038        0.026       11.600        5.291        0.208      341.828       16.811      860.692
08/22/2014  06:57:00       -2.155       18.522        6.756       18.661        9.953       11.942      348.237       99.055      142.618        0.049        0.029       18.647       13.049        0.490      341.775       16.723      860.669
08/22/2014  06:58:00      -78.501       30.445       -5.415       13.047       13.275        7.339      170.227      176.233       53.857        0.376        0.020       84.198        5.937        0.005      341.692       16.581      860.649
08/22/2014  06:59:00       -6.130       60.302       -5.344       20.285       30.952       15.447      411.492      958.044      238.600        0.265        0.080       60.612       15.765        0.068      341.919       16.966      860.632
08/22/2014  07:00:00       43.895       49.525       -7.139       27.874       51.179       20.203      776.979     2619.319      408.149        0.412        0.190       66.178       14.381        0.047      341.927       16.980      860.581
08/22/2014  07:01:00      -16.910      -34.864       11.761       56.804       39.135       33.956     3226.638     1531.575     1152.981        0.377        0.296       38.749       26.662        0.473      341.876       16.894      860.613
08/22/2014  07:02:00      -78.052      -70.470        4.319       45.649       38.205       29.681     2083.809     1459.619      880.972        0.775        0.221      105.157       26.603        0.064      341.769       16.711      860.663
08/22/2014  07:03:00       22.094       42.524       58.541       44.288       51.688       52.210     1961.445     2671.615     2725.916        0.654        0.368       47.921       41.656        0.756      342.046       17.182      860.630
08/22/2014  07:04:00      -18.567        1.997       43.509       45.649       55.278       40.827     2083.845     3055.706     1666.865        0.452        0.340       18.674       37.915        4.122      342.164       17.382      860.631
08/22/2014  07:05:00      -60.310      -23.397        9.781       74.539       35.182       22.143     5556.109     1237.763      490.309        0.578        0.364       64.689       24.643        0.145      341.916       16.961      860.684
08/22/2014  07:06:00       23.457       26.947       37.142       30.931       72.030       31.455      956.754     5188.369      989.437        0.489        0.357       35.726       22.905        0.411      342.161       17.377      860.668
08/22/2014  07:07:00       -8.186        5.945       28.718       24.757       62.802       47.188      612.888     3944.092     2226.708        0.385        0.339       10.117       49.045       23.500      342.222       17.480      860.666
08/22/2014  07:08:00      -10.228        5.857       15.254       23.087       22.198       21.046      532.994      492.752      442.925        0.092        0.073       11.787       14.059        1.423      342.223       17.482      860.671
08/22/2014  07:09:00       -8.210       16.146       22.979       16.164       17.506       16.494      261.282      306.457      272.050        0.085        0.042       18.113       13.190        0.530      342.277       17.575      860.642
08/22/2014  07:10:00        5.332      -12.085       11.856       15.136       36.221       13.975      229.100     1311.950      195.302        0.103        0.087       13.209       16.774        1.613      342.417       17.812      860.644
08/22/2014  07:11:00       17.365      -54.845        2.550       29.121       47.052       27.300      848.012     2213.908      745.291        0.356        0.190       57.529       30.093        0.274      342.343       17.685      860.643
08/22/2014  07:12:00      -13.386       21.998       52.573       11.799       20.734       16.847      139.213      429.910      283.820        0.214        0.043       25.750       13.789        0.287      342.562       18.059      860.632
08/22/2014  07:13:00        2.153       19.345       43.338       15.887       15.427       10.519      252.391      237.996      110.655        0.143        0.030       19.464       10.163        0.273      342.465       17.894      860.624
08/22/2014  07:14:00       22.990       20.354       28.507       30.059       25.719       25.307      903.569      661.474      640.436        0.198        0.110       30.705       22.809        0.552      342.403       17.788      860.643
08/22/2014  07:15:00       30.139       48.960       52.381       22.923       25.719       16.431      525.457      661.458      269.981        0.375        0.073       57.493       16.150        0.079      342.275       17.572      860.632
08/22/2014  07:16:00        8.650        5.353       45.390       23.905       40.763       25.587      571.448     1661.617      654.678        0.253        0.144       10.172       23.342        5.266      342.547       18.032      860.606
08/22/2014  07:17:00       33.633      -95.402       -6.240       36.552       33.957       28.564     1336.014     1153.097      815.926        0.679        0.165      101.156       27.607        0.074      342.418       17.813      860.627
08/22/2014  07:18:00       41.334      -75.298      -17.732       29.167       44.873       26.320      850.693     2013.568      692.749        0.562        0.178       85.897       19.644        0.052      342.444       17.858      860.652
08/22/2014  07:19:00       24.208      -67.328        1.367       38.045       59.549       42.112     1447.400     3546.026     1773.390        0.594        0.338       71.547       39.228        0.301      342.389       17.764      860.655
08/22/2014  07:20:00        0.368        5.998       41.932       27.686       36.912       19.265      766.496     1362.473      371.149        0.215        0.125        6.009       19.367       10.387      342.583       18.093      860.616
08/22/2014  07:21:00       36.132       15.058       30.478       38.594       24.950       23.595     1489.528      622.515      556.722        0.256        0.133       39.145       23.778        0.369      342.514       17.976      860.548
08/22/2014  07:22:00       14.052       55.240       -5.089       32.000       30.608       22.185     1024.011      936.824      492.190        0.286        0.123       56.999       23.723        0.173      342.389       17.764      860.484
08/22/2014  07:23:00      -48.336       57.926      -12.371       34.733       35.913       19.946     1206.383     1289.749      397.830        0.437        0.145       75.444       24.367        0.104      342.510       17.969      860.470
08/22/2014  07:24:00      -21.209        1.052       10.443       23.859       19.812       13.973      569.237      392.501      195.235        0.086        0.058       21.235       10.933        0.265      342.617       18.153      860.486
08/22/2014  07:25:00      -93.243      -38.223       -6.438       21.917       24.527       10.986      480.373      601.561      120.695        0.570        0.060      100.773        9.106        0.008      342.303       17.617      860.534
08/22/2014  07:26:00      -31.852       22.357        2.214       26.478       30.296       21.023      701.086      917.846      441.952        0.179        0.103       38.915       14.710        0.143      342.490       17.935      860.543
08/22/2014  07:27:00        7.671        5.349        8.076       15.827       11.889       15.801      250.498      141.354      249.667        0.040        0.032        9.352       10.328        1.220      342.720       18.328      860.554
08/22/2014  07:28:00       42.146       28.275       22.118       15.295       11.602       18.618      233.930      134.605      346.627        0.189        0.036       50.752        8.146        0.026      342.525       17.997      860.568
08/22/2014  07:29:00       42.352       28.486        5.387       21.550       17.695       17.105      464.422      313.125      292.576        0.185        0.054       51.041        7.625        0.022      342.488       17.932      860.584
08/22/2014  07:30:00       57.750       36.993       37.949       32.190       24.280       23.363     1036.223      589.520      545.835        0.416        0.109       68.582       22.381        0.106      342.533       18.009      860.613
08/22/2014  07:31:00       -2.513      -13.642       45.002       24.131       51.316       28.579      582.312     2633.323      816.778        0.312        0.202       13.871       17.907        1.667      342.774       18.418      860.652
08/22/2014  07:32:00        1.535      -22.958       31.297       17.816       40.384       21.033      317.419     1630.838      442.393        0.195        0.120       23.010       19.201        0.696      342.831       18.516      860.655
08/22/2014  07:33:00       40.243       41.009       -1.671       34.754       21.256       26.912     1207.846      451.829      724.239        0.284        0.119       57.457       23.806        0.172      342.642       18.194      860.603
08/22/2014  07:34:00      124.889       69.563       13.616       29.937       36.228       31.303      896.199     1312.447      979.871        1.190        0.159      142.956       16.106        0.013      342.432       17.839      860.512
08/22/2014  07:35:00      110.484       68.887        3.674       45.921       34.438       29.613     2108.781     1186.007      876.909        1.057        0.209      130.200       18.828        0.021      342.319       17.643      860.453
08/22/2014  07:36:00       30.817       36.144       11.673       47.594       35.708       30.864     2265.192     1275.033      952.562        0.344        0.225       47.498       16.608        0.122      342.456       17.879      860.405
08/22/2014  07:37:00       32.163       21.107        8.293       28.314       23.841       21.723      801.681      568.406      471.873        0.169        0.092       38.470       15.596        0.164      342.627       18.169      860.403
08/22/2014  07:38:00       31.919       32.751       10.936       15.696       14.019       15.695      246.354      196.523      246.346        0.145        0.034       45.732       11.512        0.063      342.420       17.816      860.444
08/22/2014  07:39:00        6.518        6.075       12.090       19.179       24.085       14.180      367.818      580.107      201.086        0.069        0.057        8.910        5.589        0.393      342.847       18.544      860.498
08/22/2014  07:40:00      -10.369       25.963       53.095       10.356       32.412       21.422      107.242     1050.539      458.912        0.261        0.081       27.957       22.121        0.626      343.190       19.129      860.518
08/22/2014  07:41:00       11.484       53.062       59.452       30.391       38.961       30.382      923.621     1517.948      923.082        0.492        0.168       54.291       28.704        0.280      342.846       18.542      860.496
08/22/2014  07:42:00       71.956       40.466       39.320       55.383       45.093       40.778     3067.256     2033.344     1662.864        0.756        0.338       82.554       31.985        0.150      342.671       18.245      860.454
08/22/2014  07:43:00       74.199       32.940       14.360       35.990       24.110       32.572     1295.251      581.316     1060.933        0.487        0.147       81.182       21.969        0.073      342.524       17.994      860.465
08/22/2014  07:44:00       43.146       41.976       30.014       26.591       22.092       21.576      707.106      488.065      465.540        0.309        0.083       60.197       14.216        0.056      342.530       18.004      860.506
08/22/2014  07:45:00       16.181       19.718       14.772       12.836       14.462       17.499      164.770      209.155      306.230        0.077        0.034       25.507        7.470        0.086      342.616       18.149      860.514
08/22/2014  07:46:00       20.323       43.743        8.243       22.675       39.471       21.539      514.140     1557.932      463.938        0.246        0.127       48.234       21.943        0.207      342.841       18.532      860.466
08/22/2014  07:47:00       43.010      127.107      -22.848       26.909       40.110       17.592      724.079     1608.791      309.482        1.058        0.132      134.186       13.473        0.010      342.538       18.020      860.385
08/22/2014  07:48:00        0.559       68.003      -11.331       29.077       34.961       14.894      845.454     1222.238      221.845        0.352        0.114       68.005       18.319        0.073      342.581       18.092      860.347
08/22/2014  07:49:00      -24.758       32.487       -4.051       22.873       19.339       17.094      523.157      374.007      292.215        0.144        0.059       40.845        8.887        0.047      342.716       18.321      860.365
08/22/2014  07:50:00       -2.354       27.946       -2.913       14.192       15.228       15.299      201.418      231.887      234.048        0.073        0.033       28.045        9.121        0.106      342.810       18.480      860.412
08/22/2014  07:51:00      -16.063       15.827       11.848       14.641       15.987       14.890      214.349      255.580      221.710        0.067        0.035       22.550        6.275        0.077      342.840       18.530      860.423
08/22/2014  07:52:00        6.547      -58.890       -3.138       29.830       48.503       29.017      889.843     2352.525      841.977        0.380        0.204       59.253       33.865        0.327      342.911       18.652      860.439
08/22/2014  07:53:00       13.544      -80.577      -18.755       32.553       41.108       25.191     1059.703     1689.906      634.591        0.521        0.169       81.707       18.406        0.051      343.018       18.833      860.484
08/22/2014  07:54:00        0.139      -17.940       39.522       18.466       29.166       25.772      340.990      850.674      664.215        0.187        0.093       17.941       19.196        1.145      343.286       19.293      860.468
08/22/2014  07:55:00      -14.572       -9.576       30.975       15.873       22.370       12.965      251.953      500.419      168.089        0.109        0.046       17.437        7.996        0.210      343.316       19.342      860.429
08/22/2014  07:56:00      -22.237       -8.518        7.003       20.496       14.266       16.887      420.079      203.528      285.160        0.076        0.045       23.812       12.621        0.281      342.980       18.769      860.389
08/22/2014  07:57:00      -12.863        9.864       23.273       17.286       20.983       15.733      298.793      440.298      247.524        0.090        0.049       16.210       11.361        0.491      343.556       19.750      860.353
08/22/2014  07:58:00      -25.190       -1.385       19.066       21.418       12.965       17.320      458.748      168.096      299.992        0.096        0.046       25.228       16.155        0.410      343.427       19.532      860.353
08/22/2014  07:59:00       -1.323       12.082       43.537       37.573       41.319       26.003     1411.734     1707.220      676.167        0.292        0.190       12.154       25.345        4.349      343.411       19.504      860.353
08/22/2014  08:00:00        6.295      -25.003       28.783       43.868       62.155       28.455     1924.423     3863.260      809.671        0.404        0.330       25.783       25.064        0.945      343.306       19.325      860.334
08/22/2014  08:01:00        8.442       12.378       67.086       27.327       48.644       31.587      746.739     2366.255      997.733        0.442        0.206       14.982       28.328        3.575      343.692       19.984      860.308
08/22/2014  08:02:00       30.493       61.892       79.540       52.662       40.325       37.921     2773.311     1626.104     1438.036        0.846        0.292       68.995       30.120        0.191      343.357       19.412      860.260
08/22/2014  08:03:00       27.697       41.772       56.834       31.389       64.143       38.659      985.278     4114.264     1494.530        0.617        0.330       50.121       41.859        0.697      343.134       19.032      860.260
08/22/2014  08:04:00       40.119      -40.723       19.790       30.281       51.817       40.277      916.924     2685.036     1622.264        0.444        0.261       57.165       38.933        0.464      343.383       19.457      860.287
08/22/2014  08:05:00       49.741      -72.314       16.425       54.590      109.171       51.860     2980.110    11918.313     2689.486        1.278        0.879       87.769       70.140        0.639      343.206       19.154      860.264
08/22/2014  08:06:00       49.892      -37.260       17.674       45.149       54.537       48.599     2038.416     2974.253     2361.907        0.578        0.369       62.270       39.544        0.403      343.307       19.328      860.244
08/22/2014  08:07:00        9.847       -3.983       48.415       23.750       54.487       25.864      564.055     2968.798      668.972        0.333        0.210       10.623       29.866        7.905      343.507       19.668      860.219
08/22/2014  08:08:00       15.553       12.590       42.165       30.067       43.490       27.267      904.051     1891.348      743.500        0.286        0.177       20.010       26.919        1.810      343.632       19.880      860.199
08/22/2014  08:09:00       31.120       46.248       40.930       35.129       33.095       32.982     1234.020     1095.301     1087.822        0.410        0.171       55.743       27.214        0.238      343.309       19.331      860.138
08/22/2014  08:10:00       30.403      -16.916        2.109       37.442       53.188       22.890     1401.922     2828.952      523.936        0.298        0.238       34.792       21.443        0.380      343.332       19.369      860.106
08/22/2014  08:11:00       23.016       19.263       40.606       39.020       30.129       24.410     1522.573      907.737      595.859        0.279        0.151       30.014       22.538        0.564      343.563       19.763      860.140
08/22/2014  08:12:00       30.897       33.555       56.170       42.588       51.118       38.296     1813.721     2613.035     1466.598        0.556        0.295       45.613       40.403        0.785      343.513       19.677      860.148
08/22/2014  08:13:00       69.297      -38.933        6.887       47.171       80.600       52.685     2225.142     6496.395     2775.663        0.893        0.575       79.485       56.897        0.512      343.451       19.571      860.146
08/22/2014  08:14:00       24.041       23.185       60.242       55.582       81.139       65.636     3089.314     6583.522     4308.121        0.936        0.699       33.399       73.001        4.777      343.577       19.787      860.149
08/22/2014  08:15:00       59.647       77.904       97.585       78.995       54.004       49.463     6240.235     2916.386     2446.540        1.537        0.580       98.116       57.512        0.344      343.376       19.444      860.127
08/22/2014  08:16:00       29.274       58.499       74.087       53.491       54.152       43.578     2861.305     2932.397     1899.042        0.873        0.385       65.415       33.827        0.267      343.551       19.742      860.097
08/22/2014  08:17:00       -6.694      -83.935        7.640       33.028       41.097       30.943     1090.839     1688.948      957.447        0.544        0.187       84.202       19.708        0.055      343.636       19.887      860.078
08/22/2014  08:18:00      -30.132      -26.957       -2.069       41.872       36.421       26.140     1753.283     1326.474      683.295        0.270        0.188       40.431       18.512        0.210      343.416       19.513      860.080
08/22/2014  08:19:00       30.243       42.429       54.745       39.468       38.062       34.704     1557.745     1448.712     1204.357        0.496        0.211       52.104       34.484        0.438      343.719       20.030      860.051
08/22/2014  08:20:00       49.807       49.801       54.300       35.917       21.084       22.650     1290.054      444.515      513.005        0.508        0.112       70.433       14.805        0.044      343.440       19.553      860.019
08/22/2014  08:21:00       -1.876      -17.185       27.045       16.906       33.209       27.999      285.813     1102.840      783.968        0.160        0.109       17.287       20.732        1.438      343.941       20.409      859.997
08/22/2014  08:22:00        0.750        6.158       41.725       18.243       28.217       26.063      332.804      796.222      679.273        0.179        0.090        6.203       18.897        9.279      344.306       21.032      859.984
08/22/2014  08:23:00       17.348       87.927       95.455       33.801       36.179       19.177     1142.535     1308.930      367.772        0.998        0.141       89.622       18.222        0.041      343.543       19.728      859.977
08/22/2014  08:24:00       51.553       37.934       41.268       23.346       33.821       34.720      545.050     1143.877     1205.454        0.435        0.145       64.006       27.113        0.179      343.443       19.557      859.965
08/22/2014  08:25:00       32.343       44.616       30.502       27.313       31.375       22.331      745.977      984.370      498.691        0.310        0.111       55.106        6.026        0.012      343.741       20.066      859.973
08/22/2014  08:26:00       27.784       37.909       43.659       35.013       27.274       25.488     1225.899      743.852      649.660        0.337        0.131       47.001       21.008        0.200      344.055       20.603      859.974
08/22/2014  08:27:00        9.439       18.179       47.690       23.213       50.897       29.314      538.847     2590.467      859.285        0.334        0.199       20.483       33.803        2.723      344.146       20.759      859.977
08/22/2014  08:28:00        9.544        0.409       51.155       26.927       34.689       18.710      725.067     1203.323      350.072        0.249        0.114        9.553       12.756        1.783      344.252       20.940      859.988
08/22/2014  08:29:00       24.662      -63.269        6.859       30.570       33.720       25.022      934.555     1137.065      626.078        0.368        0.135       67.906       18.825        0.077      343.682       19.967      860.004
08/22/2014  08:30:00      -13.355      -11.138       12.480       15.114       13.699        9.336      228.437      187.659       87.166        0.048        0.025       17.390        5.438        0.098      343.688       19.976      860.010
08/22/2014  08:31:00      -14.223        3.220       -0.768       13.453       18.941       16.236      180.988      358.754      263.608        0.051        0.040       14.583        6.626        0.206      343.928       20.385      860.025
08/22/2014  08:32:00        5.506       29.966       17.303       20.860       20.806       20.920      435.120      432.896      437.627        0.127        0.065       30.467       14.219        0.218      344.419       21.225      860.004
08/22/2014  08:33:00       53.001       45.159        9.200       26.144       21.556       23.841      683.534      464.664      568.374        0.332        0.086       69.631       18.684        0.072      344.040       20.577      859.989
08/22/2014  08:34:00       88.430       62.831       -0.498       36.592       33.013       30.562     1338.983     1089.873      934.027        0.756        0.168      108.478       18.559        0.029      343.948       20.419      859.945
08/22/2014  08:35:00       71.824       46.895       15.701       56.545       36.552       33.990     3197.319     1336.022     1155.317        0.665        0.284       85.778       23.537        0.075      344.188       20.828      859.906
08/22/2014  08:36:00      107.355       58.400        7.078       56.526       45.021       40.937     3195.199     2026.877     1675.847        1.094        0.345      122.211       30.000        0.060      343.897       20.331      859.912
08/22/2014  08:37:00      103.258       51.601       32.626       77.123       39.500       40.950     5947.963     1560.284     1676.940        1.179        0.459      115.434       33.321        0.083      343.931       20.390      859.961
08/22/2014  08:38:00       38.278       39.169       34.648       46.689       43.090       27.781     2179.843     1856.790      771.779        0.450        0.240       54.767        9.320        0.029      344.015       20.534      860.025
08/22/2014  08:39:00      159.031       87.626       34.563       43.927       46.873       50.826     1929.561     2197.042     2583.309        2.044        0.335      181.575       34.592        0.036      343.594       19.815      860.037
08/22/2014  08:40:00       96.408       64.503       32.956       82.474       50.243       41.993     6801.913     2524.403     1763.392        1.281        0.554      115.996       32.619        0.079      343.821       20.205      860.011
08/22/2014  08:41:00      136.756       86.462        7.425       55.132       45.794       40.526     3039.564     2097.053     1642.381        1.650        0.339      161.796       26.331        0.026      343.711       20.015      859.969
08/22/2014  08:42:00       78.251       62.306       14.203       57.874       44.009       44.252     3349.396     1936.821     1958.245        0.872        0.362      100.027       25.387        0.064      343.733       20.052      859.943
08/22/2014  08:43:00       26.081      117.741       -5.584       48.338       51.194       39.238     2336.537     2620.827     1539.639        1.053        0.325      120.595       31.240        0.067      343.802       20.171      859.917
08/22/2014  08:44:00       47.888       61.478        8.248       54.413       35.624       38.273     2960.791     1269.103     1464.801        0.592        0.285       77.928       26.002        0.111      343.966       20.450      859.902
08/22/2014  08:45:00      131.008       78.849        7.365       73.075       51.098       40.721     5339.907     2610.979     1658.161        1.652        0.480      152.906       37.754        0.061      343.855       20.261      859.896
08/22/2014  08:46:00      175.565      130.401        8.302       46.895       40.891       39.064     2199.175     1672.093     1526.017        2.665        0.270      218.695       24.271        0.012      343.591       19.806      859.890
08/22/2014  08:47:00      106.377       68.339       -1.564       44.302       47.272       28.565     1962.682     2234.689      815.962        1.050        0.251      126.437       27.077        0.046      343.537       19.717      859.934
08/22/2014  08:48:00       87.280       77.050       47.416       71.532       38.914       46.526     5116.817     1514.271     2164.624        1.230        0.440      116.424       29.171        0.063      343.907       20.349      859.951
08/22/2014  08:49:00      168.442      122.436       16.732       40.234       39.141       38.262     1618.757     1532.054     1463.972        2.413        0.231      208.239       16.489        0.006      343.598       19.819      859.949
08/22/2014  08:50:00      172.255       87.340       44.713       92.853       67.710       48.805     8621.710     4584.603     2381.937        2.744        0.779      193.133       32.074        0.028      343.880       20.300      859.930
08/22/2014  08:51:00      131.598      107.596       70.016       85.006       53.961       58.464     7225.994     2911.744     3418.073        2.367        0.678      169.985       53.632        0.100      343.876       20.294      859.915
08/22/2014  08:52:00       90.252      147.883      122.670       87.271       62.761       67.731     7616.153     3938.948     4587.532        3.060        0.807      173.248       64.666        0.139      343.662       19.928      859.900
08/22/2014  08:53:00       47.779       51.946       41.517       72.298       53.725       39.719     5226.936     2886.404     1577.624        0.820        0.485       70.577       33.598        0.227      344.187       20.828      859.875
08/22/2014  08:54:00       91.982       51.296       25.692       88.864       42.920       41.526     7896.792     1842.116     1724.367        1.161        0.573      105.319       45.162        0.184      344.209       20.865      859.866
08/22/2014  08:55:00      132.984       72.074       52.477       78.750       53.378       51.523     6201.622     2849.161     2654.584        1.867        0.585      151.259       41.302        0.075      343.886       20.314      859.853
08/22/2014  08:56:00       63.044       31.864       24.457       76.469       48.627       51.426     5847.552     2364.565     2644.660        0.822        0.543       70.639       32.787        0.215      343.970       20.456      859.839
08/22/2014  08:57:00       20.101       82.606       -1.132       41.400       72.414       32.537     1713.927     5243.856     1058.633        0.762        0.401       85.017       39.413        0.215      344.300       21.021      859.828
08/22/2014  08:58:00       60.500      142.153       -8.237       62.579       60.083       42.397     3916.137     3609.991     1797.528        1.663        0.466      154.492       38.040        0.061      344.056       20.604      859.837
08/22/2014  08:59:00       63.670       72.068        8.879       59.120       54.393       38.035     3495.190     2958.585     1446.629        0.861        0.395       96.164       29.358        0.093      344.141       20.749      859.838
08/22/2014  09:00:00       93.343       73.761        0.417       49.773       50.695       37.269     2477.316     2570.032     1389.014        1.029        0.322      118.969       25.830        0.047      344.066       20.622      859.852
08/22/2014  09:01:00       85.718       85.514        1.085       47.710       46.886       41.094     2276.286     2198.252     1688.697        1.041        0.308      121.079       32.345        0.071      344.077       20.640      859.857
08/22/2014  09:02:00      164.919       91.159       21.916       60.537       43.294       48.284     3664.715     1874.363     2331.309        2.193        0.394      188.436       22.891        0.015      344.106       20.688      859.874
08/22/2014  09:03:00       57.868       13.123       39.857       78.414       43.636       38.427     6148.706     1904.103     1476.617        0.732        0.476       59.338       23.082        0.151      344.455       21.288      859.866
08/22/2014  09:04:00      -17.153       38.257        6.557       40.048       41.343       28.139     1603.872     1709.238      791.831        0.295        0.205       41.926       15.091        0.130      344.607       21.546      859.874
08/22/2014  09:05:00       90.824       79.867       51.755       49.386       42.424       36.015     2438.962     1799.771     1297.061        1.142        0.277      120.945       26.610        0.048      344.399       21.190      859.875
08/22/2014  09:06:00       87.733       87.489       25.669       42.530       42.741       41.142     1808.785     1826.773     1692.699        1.067        0.266      123.900       28.146        0.052      344.349       21.102      859.859
08/22/2014  09:07:00       85.224       73.537        8.384       50.581       41.072       35.271     2558.440     1686.928     1244.042        0.911        0.274      112.565       17.229        0.023      344.560       21.465      859.837
08/22/2014  09:08:00      103.332       71.667       28.026       50.625       45.615       39.355     2562.917     2080.729     1548.798        1.139        0.310      125.752       26.211        0.043      344.586       21.510      859.832
08/22/2014  09:09:00       70.777       73.392        9.515       54.702       36.236       34.474     2992.349     1313.012     1188.459        0.799        0.275      101.959       27.252        0.071      344.625       21.576      859.804
08/22/2014  09:10:00      106.623       66.582        7.085       59.812       43.840       38.092     3577.478     1921.904     1450.985        1.140        0.348      125.704       20.613        0.027      344.473       21.317      859.796
08/22/2014  09:11:00       83.510       54.411       15.898       43.635       38.904       33.423     1903.973     1513.518     1117.127        0.736        0.227       99.672       22.564        0.051      344.440       21.259      859.815
08/22/2014  09:12:00       69.940       39.315        5.277       28.862       33.090       27.502      833.017     1094.950      756.385        0.457        0.134       80.233       17.045        0.045      344.496       21.356      859.835
08/22/2014  09:13:00       39.367       49.194        1.215       31.433       32.581       17.543      988.062     1061.533      307.754        0.316        0.118       63.006       13.639        0.047      344.475       21.320      859.818
08/22/2014  09:14:00       43.475       74.362       10.151       29.846       34.476       28.070      890.807     1188.602      787.939        0.519        0.143       86.138       15.138        0.031      344.833       21.933      859.787
08/22/2014  09:15:00        8.865       31.124       41.291       27.417       28.748       17.744      751.691      826.443      314.835        0.232        0.095       32.361       11.805        0.133      345.647       23.328      859.779
08/22/2014  09:16:00        5.197       24.428       30.168       15.396       20.301       19.102      237.033      412.150      364.873        0.127        0.051       24.975        7.431        0.089      345.501       23.077      859.800
08/22/2014  09:17:00        3.564        6.877       18.191       23.937       21.262       21.893      572.980      452.053      479.286        0.095        0.075        7.746       11.331        2.140      345.426       22.949      859.812
08/22/2014  09:18:00       28.257       65.261       -0.169       32.307       48.062       24.584     1043.756     2309.990      604.395        0.451        0.198       71.115       27.300        0.147      345.560       23.178      859.803
08/22/2014  09:19:00       74.282       55.231        9.055       26.254       27.362       28.521      689.268      748.678      813.421        0.545        0.113       92.565       13.324        0.021      345.074       22.344      859.786
08/22/2014  09:20:00       67.490       61.035        6.798       21.876       28.106       23.974      478.563      789.925      574.729        0.508        0.092       90.995       13.606        0.022      344.952       22.137      859.778
08/22/2014  09:21:00       15.252       17.237       -6.208       42.935       22.201       21.031     1843.426      492.874      442.317        0.167        0.139       23.016       10.993        0.228      345.067       22.332      859.779
08/22/2014  09:22:00      -28.785      -23.143      -10.764       10.669       14.391       12.388      113.823      207.098      153.470        0.098        0.024       36.934        9.040        0.060      345.030       22.271      859.801
08/22/2014  09:23:00       -3.976      -32.937       -6.489       10.856       12.018       14.531      117.860      144.440      211.139        0.081        0.024       33.176        3.034        0.008      345.093       22.378      859.813
08/22/2014  09:24:00      -38.289      -25.929      -17.131       16.619       26.278       19.748      276.186      690.528      389.967        0.189        0.068       46.242       13.611        0.087      345.219       22.593      859.822
08/22/2014  09:25:00       30.085       38.140       53.871       36.905       29.874       24.544     1361.978      892.472      602.386        0.406        0.143       48.578       18.727        0.149      345.875       23.719      859.824
08/22/2014  09:26:00       92.543       93.263       70.471       63.892       60.063       50.054     4082.223     3607.537     2505.404        1.621        0.510      131.386       41.734        0.101      345.407       22.915      859.815
08/22/2014  09:27:00       68.169       97.955       96.115       70.283       60.287       53.698     4939.767     3634.519     2883.432        1.747        0.573      119.340       48.448        0.165      345.425       22.943      859.808
08/22/2014  09:28:00       90.501       99.054      115.888       75.771       56.476       54.774     5741.237     3189.586     3000.218        2.168        0.597      134.172       42.795        0.102      345.275       22.687      859.811
08/22/2014  09:29:00       75.407        8.012       78.020       57.596      124.642       65.516     3317.249    15535.582     4292.305        1.749        1.157       75.832       76.946        1.030      345.432       22.956      859.804
08/22/2014  09:30:00       18.754       53.630       84.565       42.482       49.836       29.729     1804.744     2483.614      883.786        0.777        0.259       56.814       28.031        0.243      345.895       23.753      859.800
08/22/2014  09:31:00       52.329       68.816       90.166       56.548       84.593       55.149     3197.656     7156.000     3041.378        1.450        0.670       86.452       60.534        0.490      345.528       23.123      859.815
08/22/2014  09:32:00       65.687      -37.601       57.365       74.812      100.105       71.990     5596.818    10020.977     5182.504        1.491        1.040       75.688       83.689        1.223      345.681       23.384      859.790
08/22/2014  09:33:00       76.104        6.757       73.793       85.474       66.033       59.196     7305.734     4360.400     3504.143        1.322        0.759       76.403       38.615        0.255      345.797       23.584      859.739
08/22/2014  09:34:00       70.169      -31.310       46.239       81.753       97.191       58.752     6683.516     9446.127     3451.854        1.381        0.979       76.838       65.683        0.731      345.924       23.803      859.752
08/22/2014  09:35:00       15.756       61.321       86.921       41.428       62.614       32.501     1716.255     3920.471     1056.307        0.913        0.335       63.313       29.488        0.217      346.193       24.265      859.756
08/22/2014  09:36:00        1.475       61.047      107.081       43.369       67.558       57.569     1880.909     4564.064     3314.222        1.248        0.488       61.065       51.140        0.701      345.997       23.927      859.750
08/22/2014  09:37:00       47.938       65.076       86.867       71.114       72.579       54.597     5057.266     5267.737     2980.794        1.369        0.665       80.827       53.695        0.441      345.831       23.643      859.740
08/22/2014  09:38:00       91.100       94.484       72.233       62.767       47.434       51.065     3939.706     2249.954     2607.610        1.562        0.440      131.249       44.445        0.115      345.526       23.120      859.742
08/22/2014  09:39:00       41.401       69.284       20.255       43.298       20.667       37.159     1874.712      427.125     1380.771        0.530        0.184       80.712       28.296        0.123      345.582       23.214      859.765
08/22/2014  09:40:00      -11.591       30.157       -9.719       22.607       24.139       16.947      511.055      582.678      287.196        0.126        0.069       32.307       10.609        0.108      345.751       23.507      859.766
08/22/2014  09:41:00      -25.540       12.933       -9.383       25.706       26.460       21.601      660.792      700.130      466.595        0.137        0.091       28.628       18.972        0.439      345.746       23.496      859.763
08/22/2014  09:42:00       -8.426       47.205        6.524       26.390       31.658       24.825      696.414     1002.209      616.281        0.233        0.116       47.951       13.536        0.080      346.142       24.176      859.745
08/22/2014  09:43:00       38.582       49.619       13.958       51.296       44.767       40.609     2631.281     2004.044     1649.131        0.521        0.314       62.854       39.537        0.396      346.547       24.874      859.734
08/22/2014  09:44:00       76.741       66.708       21.679       49.920       40.761       41.255     2492.020     1661.421     1701.985        0.833        0.293      101.682       21.788        0.046      346.121       24.141      859.719
08/22/2014  09:45:00       69.612       46.267       30.349       69.802       47.252       37.043     4872.385     2232.780     1372.191        0.819        0.424       83.585       30.442        0.133      346.275       24.406      859.721
08/22/2014  09:46:00       20.962       37.927       35.310       66.727       49.036       42.221     4452.426     2404.568     1782.627        0.588        0.432       43.334       38.453        0.787      346.469       24.739      859.691
08/22/2014  09:47:00       77.555      113.334      129.209       98.987       88.388       70.365     9798.342     7812.382     4951.211        2.905        1.128      137.330       76.853        0.313      346.112       24.124      859.673
08/22/2014  09:48:00       95.264       50.027       91.209       85.615      144.439       80.354     7329.899    20862.598     6456.757        2.727        1.732      107.601       88.681        0.679      346.076       24.061      859.660
08/22/2014  09:49:00      125.511     -126.528       29.248       97.051      113.686       66.546     9418.894    12924.619     4428.433        2.969        1.339      178.220       75.605        0.180      346.020       23.967      859.642
08/22/2014  09:50:00      195.370     -143.820       10.880      118.685      164.239       83.790    14086.176    26974.349     7020.758        5.352        2.404      242.597       91.964        0.144      345.766       23.528      859.620
08/22/2014  09:51:00       53.468      108.119      129.490       70.931      104.980       61.863     5031.205    11020.718     3827.047        2.559        0.994      120.617       61.371        0.259      346.117       24.133      859.617
08/22/2014  09:52:00      158.676      152.215      125.907      123.640      101.170       94.785    15286.800    10235.312     8984.255        4.935        1.725      219.880       86.068        0.153      345.566       23.184      859.616
08/22/2014  09:53:00       85.044       84.241       40.537       80.956       49.652       58.827     6553.827     2465.276     3460.581        1.422        0.624      119.704       42.871        0.128      345.848       23.672      859.629
08/22/2014  09:54:00      -24.684        9.370       17.776       37.313       51.993       29.361     1392.226     2703.233      862.058        0.298        0.248       26.402       22.850        0.749      346.183       24.247      859.653
08/22/2014  09:55:00      163.275       84.456       14.563      102.478       57.093       47.690    10501.835     3259.579     2274.318        2.502        0.802      183.825       27.285        0.022      345.647       23.324      859.659
08/22/2014  09:56:00       62.876       49.317       60.080       60.807       57.392       46.386     3697.471     3293.819     2151.699        0.957        0.457       79.910       40.389        0.255      345.920       23.795      859.667
08/22/2014  09:57:00      214.620      144.922       79.793      107.769       82.715       88.821    11614.135     6841.718     7889.235        4.988        1.317      258.967       71.681        0.077      345.750       23.501      859.552
08/22/2014  09:58:00       40.799       15.767        8.640      132.820      104.910       72.016    17641.082    11006.049     5186.239        1.790        1.692       43.740       62.443        2.038      345.916       23.788      859.461
08/22/2014  09:59:00     -218.154     -108.976        2.726      142.083      139.218       76.666    20187.594    19381.669     5877.675        5.245        2.272      243.858       81.309        0.111      345.977       23.888      859.543
08/22/2014  10:00:00     -288.779        5.531      -35.543      205.159      225.261       79.119    42090.226    50742.500     6259.807        9.187        4.955      288.832       64.398        0.050      345.992       23.916      859.527
08/22/2014  10:01:00     -216.887      -98.451       -1.447       98.619      108.273       46.923     9725.694    11723.089     2201.754        4.019        1.183      238.186       47.687        0.040      346.062       24.037      859.515
08/22/2014  10:02:00     -185.238       93.266      -10.683      165.370      137.644       71.491    27347.160    18945.827     5110.946        4.725        2.570      207.393       83.638        0.163      346.207       24.285      859.473
08/22/2014  10:03:00     -451.074     -139.637      -36.695      204.388      179.566       90.462    41774.258    32244.014     8183.380       15.324        4.110      472.193       90.375        0.037      346.090       24.082      859.383
08/22/2014  10:04:00     -385.015      -36.301       -9.032      170.559      179.838       91.714    29090.364    32341.673     8411.392       10.973        3.492      386.722       93.709        0.059      346.234       24.330      859.357
08/22/2014  10:05:00     -310.097      -51.207       -1.394      122.485       94.424       66.770    15002.514     8915.974     4458.275        6.357        1.419      314.296       69.639        0.049      346.364       24.555      859.391
08/22/2014  10:06:00     -278.959     -139.971      -24.881      106.092      155.519       65.140    11255.485    24186.133     4243.251        6.885        1.984      312.106       47.740        0.023      346.219       24.305      859.395
08/22/2014  10:07:00     -246.411     -247.513      -20.050      123.126      106.106       67.326    15159.910    11258.535     4532.856        7.666        1.548      349.258       66.518        0.036      346.084       24.073      859.379
08/22/2014  10:08:00     -323.434     -227.461      -15.639      158.091      133.315       58.558    24992.834    17772.915     3429.056       10.138        2.310      395.408       61.463        0.024      346.224       24.316      859.387
08/22/2014  10:09:00     -178.760      -96.289       24.135      162.901      105.762       54.217    26536.738    11185.634     2939.522        4.123        2.033      203.044       45.586        0.050      346.496       24.784      859.437
08/22/2014  10:10:00     -142.337      -82.473        5.873      129.218      125.671       58.561    16697.197    15793.078     3429.372        3.150        1.796      164.504       57.736        0.123      346.715       25.161      859.412
08/22/2014  10:11:00     -440.479     -222.185      -10.571      231.941      130.434       83.788    53796.567    17013.059     7020.419       16.065        3.892      493.343       85.805        0.030      346.235       24.332      859.378
08/22/2014  10:12:00     -232.907      -62.940        9.416      164.070      114.826       56.543    26919.085    13185.007     3197.125        5.079        2.165      241.261       71.483        0.088      346.367       24.559      859.361
08/22/2014  10:13:00     -375.804     -210.696      -11.234      242.185      163.464       86.070    58653.671    26720.617     7407.979       13.925        4.639      430.839      107.233        0.062      346.347       24.526      859.407
08/22/2014  10:14:00     -343.910     -188.045      -21.726      178.293      166.836       85.489    31788.475    27834.183     7308.311       11.051        3.347      391.963       89.749        0.052      346.262       24.380      859.356
08/22/2014  10:15:00     -398.975     -261.937      -11.848      249.793      157.873       99.626    62396.501    24923.787     9925.267       16.257        4.862      477.276       97.743        0.042      346.179       24.236      859.355
08/22/2014  10:16:00     -307.715     -238.905        5.288      233.994      204.599       96.673    54753.149    41860.918     9345.589       12.885        5.298      389.569       96.933        0.062      346.266       24.387      859.356
08/22/2014  10:17:00     -155.883     -170.927       14.777      140.940      126.709       67.925    19864.044    16055.075     4613.826        4.713        2.027      231.334       73.197        0.100      346.400       24.618      859.444
08/22/2014  10:18:00     -252.035     -128.484       -3.785      190.034      115.063       69.206    36112.868    13239.483     4789.427        6.708        2.707      282.895       80.026        0.080      346.321       24.481      859.415
08/22/2014  10:19:00     -252.681     -134.879       -5.988      162.177      160.010       76.458    26301.219    25603.120     5845.790        6.990        2.888      286.426       81.959        0.082      346.346       24.524      859.351
08/22/2014  10:20:00     -153.412      -52.243       11.259       93.874      118.220       51.787     8812.269    13975.871     2681.859        2.593        1.273      162.064       45.527        0.079      346.448       24.699      859.352
08/22/2014  10:21:00      -94.532      -96.306       26.738      175.210      130.257       65.652    30698.509    16966.952     4310.247        3.544        2.599      134.949       86.895        0.415      346.840       25.376      859.339
08/22/2014  10:22:00     -255.054     -182.954       14.726      225.910      168.758       91.498    51035.426    28479.333     8371.969        9.330        4.394      313.887      103.701        0.109      346.587       24.940      859.301
08/22/2014  10:23:00     -266.585      -61.631       -0.953      214.984      140.761       76.992    46218.079    19813.762     5927.787        7.340        3.598      273.616       96.250        0.124      346.563       24.899      859.301
08/22/2014  10:24:00     -335.678     -221.042       -8.402      189.287      119.557       73.831    35829.733    14293.894     5451.030       10.858        2.779      401.919       75.230        0.035      346.255       24.368      859.278
08/22/2014  10:25:00     -254.408      -35.807       10.787      174.371      140.132       78.757    30405.306    19636.938     6202.619        6.117        2.812      256.916       77.633        0.091      346.582       24.931      859.228
08/22/2014  10:26:00     -260.326     -157.354        6.410      190.862      133.653       72.280    36428.208    17863.075     5224.374        7.603        2.976      304.187       76.144        0.063      346.684       25.106      859.262
08/22/2014  10:27:00      -76.131      -45.298        7.873       57.126       55.911       42.481     3263.341     3126.094     1804.619        0.805        0.410       88.588       23.173        0.068      346.800       25.308      859.346
08/22/2014  10:28:00     -136.013     -103.688       -9.969      107.628       67.429       42.421    11583.860     4546.620     1799.578        2.364        0.897      171.028       27.627        0.026      346.740       25.204      859.420
08/22/2014  10:29:00     -220.482      -83.128      -11.953      134.607      114.470       49.726    18118.977    13103.476     2472.687        4.467        1.685      235.633       52.200        0.049      346.478       24.751      859.477
08/22/2014  10:30:00      -54.243     -296.843       13.282      118.945      185.586       78.494    14147.858    34442.165     6161.297        7.298        2.738      301.758       71.737        0.057      346.663       25.071      859.453
08/22/2014  10:31:00     -438.010     -151.369      -21.423      240.644      166.219       90.896    57909.627    27628.758     8262.102       15.449        4.690      463.428       96.311        0.043      346.520       24.822      859.467
08/22/2014  10:32:00     -492.102     -114.890      -26.134      310.351      177.594       98.011    96317.712    31539.680     9606.093       19.673        6.873      505.335      129.460        0.066      346.478       24.750      859.477
08/22/2014  10:33:00     -524.057     -332.931       -5.567      278.166      184.744      105.376    77376.230    34130.256    11104.078       25.404        6.131      620.870      119.666        0.037      346.385       24.591      859.465
08/22/2014  10:34:00     -157.875     -120.593       36.300      201.337      130.844       93.993    40536.592    17120.056     8834.694        5.362        3.325      198.664      107.976        0.295      346.544       24.865      859.449
08/22/2014  10:35:00     -437.594     -160.784      -29.060      158.415      159.882       84.812    25095.375    25562.103     7193.017       13.801        2.893      466.198       75.832        0.026      346.234       24.330      859.428
08/22/2014  10:36:00     -519.078     -261.456      -15.087      331.242      233.119      129.219   109721.216    54344.320    16697.590       25.936        9.038      581.207      151.837        0.068      346.336       24.506      859.383
08/22/2014  10:37:00     -517.263     -339.359       23.711      293.262      203.416      135.980    86002.751    41377.977    18490.658       26.455        7.294      618.648      155.502        0.063      346.267       24.389      859.379
08/22/2014  10:38:00     -435.404     -281.746      -14.330      235.445      233.132       90.434    55434.364    54350.420     8178.291       19.354        5.898      518.611       95.133        0.034      346.310       24.461      859.404
08/22/2014  10:39:00     -417.333     -236.739       -2.753      321.083      193.539      125.095   103094.113    37457.202    15648.683       19.318        7.810      479.804      143.576        0.090      346.471       24.739      859.385
08/22/2014  10:40:00     -480.561     -363.110       -1.493      244.693      208.740      121.031    59874.881    43572.250    14648.589       24.042        5.905      602.319      142.776        0.056      346.225       24.315      859.350
08/22/2014  10:41:00     -522.563     -109.953      -28.892      206.340      148.514       93.901    42576.186    22056.447     8817.346       17.971        3.672      534.005       92.211        0.030      346.304       24.452      859.312
08/22/2014  10:42:00     -424.251      -84.449      -17.616      256.919      213.645      110.406    66007.487    45644.268    12189.511       15.561        6.192      432.575      118.117        0.075      346.511       24.807      859.308
08/22/2014  10:43:00     -597.974     -258.241      -29.509      322.175      241.678      128.282   103796.970    58408.143    16456.235       30.186        8.933      651.354      134.591        0.043      346.427       24.663      859.287
08/22/2014  10:44:00     -396.744      -88.749       -3.279      211.898      176.248      101.662    44900.698    31063.326    10335.066       12.578        4.315      406.549       93.952        0.053      346.693       25.119      859.294
08/22/2014  10:45:00     -312.940     -196.279       11.077      238.734      194.525      102.412    56993.684    37839.866    10488.220       12.093        5.266      369.401      123.373        0.112      346.728       25.180      859.307
08/22/2014  10:46:00     -262.640     -204.827       -9.449      202.914      171.279       76.748    41174.103    29336.531     5890.266        9.370        3.820      333.068       91.500        0.075      346.674       25.090      859.299
08/22/2014  10:47:00     -697.782     -391.194      -28.052      288.907      253.493      121.068    83467.025    64258.599    14657.413       40.152        8.119      799.958      114.660        0.021      346.418       24.648      859.275
08/22/2014  10:48:00     -303.558     -243.390      -11.859      249.815      176.739      102.804    62407.303    31236.598    10568.743       12.785        5.211      389.083      131.611        0.114      346.425       24.660      859.278
08/22/2014  10:49:00     -538.296     -231.063      -11.820      297.017      225.413      105.886    88219.030    50811.217    11211.826       24.674        7.512      585.792      125.229        0.046      346.438       24.682      859.228
08/22/2014  10:50:00     -516.690     -223.119       -4.311      243.612      265.312      109.422    59346.621    70390.248    11973.227       22.921        7.086      562.806      131.765        0.055      346.562       24.896      859.257
08/22/2014  10:51:00     -481.707      -94.775      -14.713      238.715      222.530      120.466    56984.635    49519.655    14511.971       18.110        6.051      490.942      126.140        0.066      346.325       24.486      859.239
08/22/2014  10:52:00     -333.678     -215.248       -7.610      230.164      220.514      110.129    52975.639    48626.287    12128.430       13.571        5.687      397.080      123.112        0.096      346.578       24.925      859.182
08/22/2014  10:53:00     -809.316     -175.382      -32.651      365.260      275.799      125.060   133415.065    76064.974    15640.122       45.592       11.256      828.101      157.971        0.036      346.388       24.596      859.105
08/22/2014  10:54:00     -588.499     -122.470      -14.006      315.480      176.051      113.502    99527.410    30993.816    12882.760       25.244        7.170      601.108      140.429        0.055      346.569       24.908      859.102
08/22/2014  10:55:00     -453.101     -248.665      -32.974      260.964      218.190      108.261    68101.956    47606.931    11720.524       19.780        6.371      516.851      132.749        0.066      346.658       25.060      859.166
08/22/2014  10:56:00     -394.667     -194.706       -1.570      250.422      190.253       97.914    62710.941    36196.320     9587.209       15.106        5.425      440.083      118.799        0.073      346.654       25.054      859.184
08/22/2014  10:57:00     -503.100     -174.035      -22.699      313.061      248.633      121.861    98007.074    61818.312    14850.183       22.926        8.734      532.351      142.674        0.072      346.561       24.895      859.232
08/22/2014  10:58:00     -429.042       33.561      -23.012      279.649      152.636       84.386    78203.500    23297.636     7120.942       14.716        5.431      430.353      113.788        0.070      346.621       24.998      859.274
08/22/2014  10:59:00     -414.410     -134.561      -14.827      166.159      158.278       72.790    27608.650    25051.800     5298.386       12.400        2.898      435.709       69.786        0.026      346.468       24.733      859.246
08/22/2014  11:00:00     -483.021     -107.421      -17.474      217.157      120.487       78.208    47157.245    14517.048     6116.478       15.646        3.390      494.822       87.149        0.031      346.598       24.957      859.249
08/22/2014  11:01:00     -428.896     -187.363      -12.816      224.616      150.889       81.477    50452.131    22767.547     6638.533       14.952        3.993      468.035       89.726        0.037      346.582       24.930      859.250
08/22/2014  11:02:00     -331.063     -140.119      -21.015      169.610      174.714       81.615    28767.461    30524.821     6661.076        9.780        3.298      359.495       63.142        0.031      346.520       24.823      859.205
08/22/2014  11:03:00     -460.884     -113.305      -21.378      202.294      150.426       95.570    40922.859    22627.882     9133.677       14.918        3.634      474.607      102.349        0.047      346.475       24.746      859.215
08/22/2014  11:04:00     -346.686      -59.659       12.159      245.286      216.790      116.182    60165.159    46997.951    13498.299       12.226        6.033      351.782      139.942        0.158      346.804       25.311      859.184
08/22/2014  11:05:00     -363.594     -163.983       -7.490      207.100      180.194       99.557    42890.506    32469.811     9911.650       12.219        4.264      398.862      116.990        0.086      346.752       25.223      859.198
08/22/2014  11:06:00     -226.760     -157.914        8.007      172.352      176.654       89.844    29705.142    31206.745     8071.937        7.269        3.449      276.328       89.323        0.104      346.841       25.377      859.163
08/22/2014  11:07:00     -275.294     -154.954        9.032      171.192      161.327       86.048    29306.755    26026.386     7404.281        8.130        3.137      315.907       84.155        0.071      346.747       25.213      859.164
08/22/2014  11:08:00     -544.525     -161.474      -30.956      207.664      176.373      103.738    43124.481    31107.293    10761.578       20.425        4.250      567.962       81.796        0.021      346.701       25.135      859.154
08/22/2014  11:09:00     -492.695     -221.180      -20.428      303.890      241.161      130.275    92348.908    58158.587    16971.580       22.975        8.374      540.064      162.351        0.090      346.623       24.999      859.158
08/22/2014  11:10:00     -331.201     -112.254       -2.280      202.804      121.732       84.388    41129.478    14818.684     7121.376        9.267        3.153      349.707      104.519        0.089      346.693       25.120      859.171
08/22/2014  11:11:00     -331.943     -134.000      -31.725      188.774      117.981       65.190    35635.515    13919.489     4249.696        9.147        2.690      357.970       69.694        0.038      346.604       24.968      859.165
08/22/2014  11:12:00     -308.610     -134.670       -1.041      198.959      156.519       88.048    39584.755    24498.078     7752.419        9.259        3.592      336.714       99.480        0.087      346.828       25.353      859.127
08/22/2014  11:13:00     -379.708     -171.506       -9.875      214.517      172.510       96.841    46017.686    29759.628     9378.222       12.941        4.258      416.645      110.655        0.071      346.795       25.297      859.108
08/22/2014  11:14:00     -357.555     -159.402       -8.193      175.722      187.752       83.779    30878.358    35250.974     7018.979       11.322        3.657      391.478       90.087        0.053      346.948       25.558      859.107
08/22/2014  11:15:00     -277.677      -64.007       -8.329      169.382      157.711       87.423    28690.202    24872.860     7642.728        7.123        3.060      284.958       81.486        0.082      346.703       25.137      859.097
08/22/2014  11:16:00     -179.393     -116.707      -10.134      134.774       75.232       52.923    18164.093     5659.785     2800.816        3.626        1.331      214.014       64.039        0.090      346.691       25.117      859.066
08/22/2014  11:17:00     -209.679     -176.716       -3.775      150.081      102.427       66.264    22524.324    10491.328     4390.896        5.630        1.870      274.215       65.941        0.058      346.876       25.436      859.077
08/22/2014  11:18:00     -432.953     -249.470        5.549      232.558      180.034      105.622    54083.292    32412.127    11156.081       17.366        4.883      499.683      113.445        0.052      346.864       25.415      859.087
08/22/2014  11:19:00     -493.544     -232.560      -27.409      218.677      163.409       83.653    47819.796    26702.661     6997.815       18.995        4.076      545.591       95.559        0.031      346.920       25.511      859.051
08/22/2014  11:20:00     -425.049      -79.306      -20.379      185.146      267.618       95.841    34278.942    71619.629     9185.539       15.121        5.754      432.385      106.513        0.061      346.941       25.547      859.054
08/22/2014  11:21:00     -362.083     -157.992      -14.085      262.878      167.168      100.327    69104.760    27945.245    10065.461       13.167        5.356      395.052      111.307        0.079      347.074       25.778      859.060
08/22/2014  11:22:00     -436.817     -113.479       -7.804      304.546      202.790      113.236    92748.162    41123.774    12822.471       17.519        7.335      451.316      140.221        0.097      346.812       25.324      859.010
08/22/2014  11:23:00     -407.330     -134.118      -23.877      182.973      176.243       73.275    33479.129    31061.538     5369.295       12.718        3.495      428.842       65.656        0.023      346.821       25.341      859.004
08/22/2014  11:24:00     -435.097     -121.077      -20.684      214.221      137.431       74.544    45890.692    18887.205     5556.780       13.735        3.517      451.629       79.515        0.031      346.929       25.526      859.021
08/22/2014  11:25:00     -299.800      -67.082       -4.712      146.971      115.309       69.019    21600.438    13296.234     4763.649        6.702        1.983      307.213       62.599        0.042      347.282       26.136      859.002
08/22/2014  11:26:00     -498.742      -97.036       -5.980      245.618      215.017       96.349    60328.119    46232.182     9283.110       18.700        5.792      508.094      104.067        0.042      346.856       25.402      858.977
08/22/2014  11:27:00     -491.219     -173.152      -26.256      178.518      163.495       89.387    31868.721    26730.613     7989.964       16.926        3.329      520.843       76.893        0.022      346.885       25.451      858.960
08/22/2014  11:28:00     -439.063     -168.154       -5.588      318.321      225.066      121.432   101328.492    50654.710    14745.653       19.387        8.336      470.162      145.863        0.096      347.066       25.762      858.943
08/22/2014  11:29:00     -436.489      -68.842      -19.761      234.126      157.378       89.989    54815.113    24767.843     8097.989       14.165        4.384      441.884      107.424        0.059      346.999       25.648      858.964
08/22/2014  11:30:00     -370.808      -66.223       -1.479      192.825      164.501       93.449    37181.323    27060.513     8732.686       10.742        3.649      376.675      101.919        0.073      347.108       25.834      858.920
08/22/2014  11:31:00     -430.736     -124.813       -9.924      202.082      213.381       84.224    40837.155    45531.451     7093.684       14.732        4.673      448.455       70.960        0.025      346.879       25.441      858.905
08/22/2014  11:32:00     -619.485      -22.944      -26.174      227.014      148.399       91.147    51535.516    22022.138     8307.861       23.340        4.093      619.910      103.691        0.028      346.782       25.274      858.876
08/22/2014  11:33:00     -496.947     -265.707       -6.190      294.231      209.380      117.884    86571.739    43840.128    13896.523       23.092        7.215      563.522      134.333        0.057      346.949       25.562      858.921
08/22/2014  11:34:00     -474.306     -283.881      -27.644      228.157      186.716      115.781    52055.729    34862.751    13405.335       20.330        5.016      552.770      109.412        0.039      346.770       25.253      858.912
08/22/2014  11:35:00     -235.796     -176.320        4.256      200.859      156.338       89.143    40344.253    24441.576     7946.507        7.971        3.637      294.429       94.275        0.103      347.024       25.690      858.869
08/22/2014  11:36:00     -256.445     -167.058        6.195      239.815      172.412       85.550    57511.102    29726.051     7318.770        9.411        4.728      306.060      114.226        0.139      347.203       26.001      858.907
08/22/2014  11:37:00     -444.779     -227.202      -11.128      263.022      217.741      105.516    69180.350    47411.129    11133.638       18.862        6.386      499.449      126.488        0.064      347.198       25.991      858.924
08/22/2014  11:38:00     -618.483     -148.360      -22.043      244.300      202.358       97.622    59682.489    40948.906     9530.016       25.757        5.508      636.028      113.917        0.032      346.998       25.647      858.924
08/22/2014  11:39:00     -531.694      -87.840      -20.592      216.934      227.742       99.362    47060.494    51866.619     9872.722       19.980        5.440      538.901       82.369        0.023      346.810       25.321      858.941
08/22/2014  11:40:00     -582.339     -201.759      -20.389      305.849      229.596      108.132    93543.494    52714.509    11692.497       26.906        7.898      616.300      115.541        0.035      346.939       25.544      858.941
08/22/2014  11:41:00     -647.529     -108.761      -36.533      280.124      187.891      103.815    78469.320    35302.977    10777.496       27.848        6.227      656.599      124.254        0.036      346.880       25.444      858.926
08/22/2014  11:42:00     -393.943      -88.486      -14.140      196.694      139.231       65.516    38688.552    19385.344     4292.360       11.278        3.118      403.758       78.304        0.038      347.204       26.000      858.931
08/22/2014  11:43:00     -642.686      -11.222      -45.340      240.256      224.155       89.364    57723.015    50245.646     7985.878       26.557        5.798      642.784       76.537        0.014      346.867       25.420      858.933
08/22/2014  11:44:00     -617.507      -29.653      -53.356      185.342      158.837       99.972    34351.580    25229.122     9994.393       22.729        3.479      618.219      104.864        0.029      346.956       25.574      858.895
08/22/2014  11:45:00     -443.643     -134.499       12.380      331.715      197.116      124.171   110034.679    38854.623    15418.315       18.965        8.215      463.583      153.364        0.109      347.036       25.712      858.895
08/22/2014  11:46:00     -403.586     -137.494       -8.874      200.935      191.106       92.108    40374.677    36521.625     8483.885       13.361        4.269      426.364      102.116        0.057      347.077       25.781      858.906
08/22/2014  11:47:00     -550.008      -57.041      -37.091      269.379      183.217       96.373    72565.131    33568.355     9287.707       21.126        5.771      552.958      110.361        0.040      346.882       25.445      858.893
08/22/2014  11:48:00     -419.954     -245.353       -7.727      231.820      144.766       98.261    53740.365    20957.228     9655.251       16.047        4.218      486.374      115.980        0.057      347.100       25.821      858.906
08/22/2014  11:49:00     -497.039     -176.732      -17.148      180.922      163.675       99.838    32732.775    26789.404     9967.678       17.402        3.474      527.525       94.052        0.032      347.105       25.828      858.897
08/22/2014  11:50:00     -403.830     -273.004      -21.408      200.197      175.736       94.383    40078.966    30882.967     8908.112       15.895        3.994      487.453      102.953        0.045      347.071       25.772      858.875
08/22/2014  11:51:00     -460.108     -186.040       -6.859      223.703      196.757       95.432    50042.930    38713.407     9107.175       17.209        4.893      496.296      103.470        0.043      347.120       25.856      858.867
08/22/2014  11:52:00     -368.978     -300.457        0.847      269.393      175.010      111.065    72572.459    30628.374    12335.512       17.096        5.777      475.835      137.659        0.084      347.078       25.784      858.848
08/22/2014  11:53:00     -331.876     -161.781       19.664      177.457      211.363       98.325    31490.988    44674.212     9667.846       11.125        4.292      369.208      104.466        0.080      347.211       26.013      858.836
08/22/2014  11:54:00     -333.367     -204.399        6.765      214.934      169.902      100.000    46196.714    28866.668    10000.091       11.899        4.253      391.040      117.491        0.090      347.324       26.208      858.846
08/22/2014  11:55:00     -648.171     -164.303      -15.261      278.828      216.130      111.447    77745.186    46712.146    12420.333       29.209        6.844      668.671      140.011        0.044      347.117       25.850      858.884
08/22/2014  11:56:00     -637.796     -149.244      -17.936      285.815      178.311      105.236    81690.000    31794.976    11074.553       27.694        6.228      655.025      126.037        0.037      346.949       25.561      858.885
08/22/2014  11:57:00     -508.644     -127.842       -3.413      272.175      212.106      107.282    74079.082    44989.145    11509.371       20.280        6.529      524.464      122.201        0.054      347.057       25.747      858.883
08/22/2014  11:58:00     -505.676     -155.230      -28.607      251.447      245.902      102.004    63225.487    60467.840    10404.805       20.733        6.705      528.966      115.020        0.047      346.907       25.490      858.890
08/22/2014  11:59:00     -406.147     -106.092       -2.403      210.273      165.536       93.366    44214.895    27402.229     8717.193       12.826        4.017      419.775       93.216        0.049      347.089       25.802      858.884
08/22/2014  12:00:00     -542.798     -115.505      -11.214      258.699      208.786       98.541    66924.978    43591.598     9710.343       21.414        6.011      554.952      121.954        0.048      346.918       25.509      858.841
08/22/2014  12:01:00     -284.661      -80.768       -5.027      168.669      134.998       71.834    28449.258    18224.360     5160.132        6.970        2.592      295.898       80.551        0.074      347.190       25.976      858.821
08/22/2014  12:02:00     -445.149     -180.565        1.408      286.074      219.837      105.712    81838.592    48328.510    11175.098       18.602        7.067      480.376      125.634        0.068      347.162       25.929      858.814
08/22/2014  12:03:00     -527.572     -134.410      -33.778      253.990      202.121      100.326    64511.117    40852.940    10065.295       20.646        5.771      544.425      126.652        0.054      347.044       25.726      858.818
08/22/2014  12:04:00     -497.336      -90.098      -11.407      330.419      192.440      112.971   109176.672    37033.279    12762.539       20.725        7.949      505.431      145.904        0.083      347.077       25.783      858.831
08/22/2014  12:05:00     -468.516     -134.433      -25.293      236.722      250.023       96.517    56037.471    62511.311     9315.625       18.302        6.393      487.421      120.071        0.061      346.946       25.557      858.880
08/22/2014  12:06:00     -431.617      -62.970      -15.481      176.690      169.139       87.201    31219.451    28607.851     7604.040       12.895        3.372      436.186       91.429        0.044      347.047       25.729      858.858
08/22/2014  12:07:00     -462.353     -165.818      -12.970      221.666      198.486      107.053    49135.940    39396.790    11460.241       17.069        5.000      491.188      121.871        0.062      347.100       25.821      858.884
08/22/2014  12:08:00     -427.077     -275.243       -0.957      242.039      197.081      115.619    58582.714    38840.886    13367.692       18.445        5.540      508.088      131.763        0.067      347.021       25.685      858.885
08/22/2014  12:09:00     -400.473      -90.582      -10.021      207.603      176.268       89.070    43098.932    31070.307     7933.502       12.538        4.105      410.589      104.210        0.064      346.972       25.600      858.920
08/22/2014  12:10:00     -367.758     -125.193       -3.410      206.249      190.472      102.546    42538.733    36279.572    10515.586       12.011        4.467      388.483      112.291        0.084      347.092       25.808      858.896
08/22/2014  12:11:00     -205.892      -63.369       12.822      213.801      201.944      104.429    45710.717    40781.216    10905.415        7.197        4.870      215.424      104.167        0.234      347.118       25.852      858.856
08/22/2014  12:12:00     -326.519      -98.438       -3.667      256.181      218.056       83.090    65628.713    47548.602     6903.934       11.818        6.004      341.035      101.646        0.089      347.421       26.375      858.843
08/22/2014  12:13:00     -607.125     -111.525      -49.711      182.992      203.918       87.284    33486.249    41582.646     7618.418       23.308        4.134      617.284       69.808        0.013      347.078       25.782      858.857
08/22/2014  12:14:00     -239.355     -118.758       30.245      247.667      187.664      111.118    61339.091    35217.829    12347.294        9.059        5.445      267.197      126.026        0.222      347.227       26.041      858.868
08/22/2014  12:15:00     -328.463     -217.841      -16.713      202.571      146.249       85.554    41035.103    21388.907     7319.479       11.267        3.487      394.135       92.482        0.055      346.992       25.635      858.862
08/22/2014  12:16:00     -304.940     -135.792      -21.061      199.077      135.529       71.326    39631.574    18368.037     5087.351        8.747        3.154      333.808       76.737        0.053      347.109       25.838      858.844
08/22/2014  12:17:00     -400.367     -238.026       -7.529      226.010      181.001       99.264    51080.531    32761.472     9853.437       15.533        4.685      465.779      121.235        0.068      347.167       25.937      858.851
08/22/2014  12:18:00     -430.296     -176.399      -24.396      235.488      182.860      106.129    55454.385    33437.676    11263.284       15.849        5.008      465.049      118.669        0.065      347.231       26.047      858.832
08/22/2014  12:19:00     -411.985     -192.425       -2.740      260.645      253.657      119.010    67935.945    64341.889    14163.451       17.657        7.322      454.708      123.341        0.074      347.266       26.108      858.815
08/22/2014  12:20:00     -342.856     -163.458      -10.163      239.817      179.960       94.673    57512.010    32385.544     8963.024       12.160        4.943      379.827      101.275        0.071      347.367       26.283      858.797
08/22/2014  12:21:00     -498.345     -215.153      -28.874      225.993      185.624       99.714    51072.855    34456.217     9942.795       19.545        4.774      542.806      101.155        0.035      347.155       25.916      858.775
08/22/2014  12:22:00     -414.923     -231.880      -14.284      273.605      232.295      108.114    74859.898    53961.190    11688.711       18.329        7.025      475.320      128.574        0.073      347.293       26.154      858.712
08/22/2014  12:23:00     -503.868     -299.255        7.271      233.218      234.599      110.224    54390.511    55036.697    12149.376       23.251        6.079      586.034      127.712        0.047      347.211       26.013      858.728
08/22/2014  12:24:00     -395.777     -282.486       -6.310      237.613      234.486      112.396    56459.805    54983.538    12632.795       18.025        6.204      486.249      129.596        0.071      347.201       25.996      858.686
08/22/2014  12:25:00     -489.484     -343.097      -24.376      269.844      157.617      121.842    72815.581    24842.971    14845.491       23.518        5.625      597.754      123.642        0.043      347.232       26.050      858.705
08/22/2014  12:26:00     -260.767      -45.393        7.087      173.561      160.941       95.625    30123.267    25901.979     9144.097        6.763        3.258      264.688       85.412        0.104      347.508       26.524      858.708
08/22/2014  12:27:00     -537.228     -209.861      -18.433      243.834      213.893      108.245    59455.008    45750.258    11717.002       22.494        5.846      576.763      118.854        0.042      347.488       26.490      858.668
08/22/2014  12:28:00     -233.375     -117.684       -8.363      156.462      143.086       70.169    24480.239    20473.663     4923.720        5.912        2.494      261.368       76.368        0.085      347.681       26.824      858.738
08/22/2014  12:29:00     -176.243      -41.342       12.635      210.766      126.768       89.332    44422.409    16070.112     7980.271        5.069        3.424      181.027      109.822        0.368      347.981       27.341      858.738
08/22/2014  12:30:00     -629.848      -25.910      -32.140      259.009      224.428      113.120    67085.518    50367.879    12796.023       26.431        6.512      630.381      105.282        0.028      347.269       26.111      858.706
08/22/2014  12:31:00     -481.144      -50.848      -13.967      237.009      179.114      100.593    56173.488    32081.899    10118.973       16.631        4.919      483.823      112.514        0.054      347.495       26.501      858.730
08/22/2014  12:32:00     -416.663     -158.366      -10.221      193.738      201.248       89.676    37534.566    40500.939     8041.697       14.242        4.304      445.744       94.108        0.045      347.522       26.549      858.722
08/22/2014  12:33:00     -425.380     -147.467       -3.099      241.196      189.461      106.180    58175.701    35895.456    11274.087       15.400        5.267      450.216      109.753        0.059      347.603       26.688      858.725
08/22/2014  12:34:00     -571.346      -66.665       -8.726      258.932      251.169      126.953    67046.025    63085.882    16117.087       23.857        7.312      575.222      142.184        0.061      347.323       26.205      858.697
08/22/2014  12:35:00     -299.791     -239.155        5.245      166.977      160.715       94.271    27881.454    25829.373     8887.056       10.484        3.130      383.497       95.861        0.062      347.472       26.461      858.723
08/22/2014  12:36:00     -549.234     -100.144      -29.923      259.560      213.344       96.378    67371.163    45515.687     9288.664       21.735        6.109      558.289      116.423        0.043      347.346       26.245      858.710
08/22/2014  12:37:00     -370.611     -278.527      -18.510      154.172      147.517       82.074    23768.875    21761.367     6736.170       13.376        2.613      463.606       76.287        0.027      347.415       26.365      858.736
08/22/2014  12:38:00     -487.473     -264.059       -2.121      224.395      162.513      101.418    50353.083    26410.320    10285.559       19.719        4.352      554.398      106.044        0.037      347.288       26.144      858.723
08/22/2014  12:39:00     -297.786     -189.369       -4.445      223.429      161.589       89.800    49920.624    26111.056     8064.037       10.431        4.205      352.898      111.712        0.100      347.399       26.338      858.718
08/22/2014  12:40:00     -556.736     -327.359       -4.379      257.075      241.816      129.106    66087.786    58475.002    16668.316       27.916        7.062      645.847      139.079        0.046      347.268       26.112      858.623
08/22/2014  12:41:00     -520.681     -303.471      -13.289      297.423      213.817      118.126    88460.242    45717.810    13953.709       25.573        7.407      602.664      143.275        0.057      347.191       25.977      858.611
08/22/2014  12:42:00     -487.661     -320.931       -3.150      248.584      199.642      114.313    61793.932    39856.998    13067.481       22.775        5.736      583.789      124.871        0.046      347.186       25.969      858.574
08/22/2014  12:43:00     -468.132     -313.493       -3.176      281.684      173.553      118.931    79346.080    30120.769    14144.472       22.050        6.181      563.405      131.369        0.054      347.422       26.374      858.574
08/22/2014  12:44:00     -342.086     -225.833        1.099      261.203      250.812      111.789    68226.940    62906.903    12496.775       15.580        7.182      409.907      138.050        0.113      347.555       26.605      858.619
08/22/2014  12:45:00     -217.667      -24.982        2.646      124.526      124.172       62.342    15506.627    15418.589     3886.586        4.140        1.741      219.096       50.216        0.053      347.693       26.845      858.613
08/22/2014  12:46:00     -342.284      -37.188       12.547      207.333      171.072       91.289    42986.965    29265.491     8333.611        9.963        4.029      344.298       98.511        0.082      347.667       26.800      858.606
08/22/2014  12:47:00     -328.913     -211.866       -8.212      256.252      244.715       95.428    65665.198    59885.560     9106.439       14.387        6.733      391.243      104.926        0.072      347.621       26.719      858.605
08/22/2014  12:48:00     -493.697     -261.454      -12.148      281.356      213.790      103.932    79161.418    45706.083    10801.811       22.393        6.783      558.655      122.967        0.048      347.164       25.933      858.574
08/22/2014  12:49:00     -375.523     -282.183        2.538      260.765      199.861      113.685    67998.203    39944.364    12924.309       17.073        6.043      469.729      127.142        0.073      347.381       26.306      858.581
08/22/2014  12:50:00     -214.513      -21.676       19.110      249.240      152.764       95.981    62120.522    23336.734     9212.284        7.074        4.733      215.605      121.343        0.317      347.741       26.929      858.606
08/22/2014  12:51:00     -280.214      -98.831       -1.849      158.628      141.168       68.174    25162.766    19928.525     4647.689        6.900        2.487      297.132       67.796        0.052      347.561       26.615      858.601
08/22/2014  12:52:00      -98.161      -38.438       19.984      131.771      102.787       64.382    17363.559    10565.087     4145.046        2.179        1.604      105.418       70.480        0.447      347.875       27.160      858.561
08/22/2014  12:53:00     -286.193       36.518       -9.276      188.944      144.643       95.851    35699.739    20921.741     9187.494        7.455        3.290      288.513       77.744        0.073      347.685       26.829      858.541
08/22/2014  12:54:00     -325.810       12.307      -23.298      152.698      124.782       67.657    23316.713    15570.481     4577.428        7.515        2.173      326.042       67.750        0.043      347.747       26.937      858.531
08/22/2014  12:55:00     -417.029     -143.561      -22.910      274.299      230.074      114.662    75239.817    52934.016    13147.414       16.816        7.066      441.048      134.802        0.093      347.695       26.848      858.501
08/22/2014  12:56:00     -597.528     -237.320      -31.509      259.266      222.635      133.297    67218.645    49566.198    17768.036       27.443        6.728      642.931      121.919        0.036      347.300       26.166      858.531
08/22/2014  12:57:00     -511.777     -250.886       -6.982      276.117      179.090      110.505    76240.440    32073.350    12211.414       22.269        6.026      569.964      131.998        0.054      347.401       26.340      858.524
08/22/2014  12:58:00     -413.613     -223.522      -23.221      239.915      161.398       89.105    57559.036    26049.423     7939.753       15.654        4.577      470.146       96.598        0.042      347.235       26.053      858.563
08/22/2014  12:59:00     -189.022     -116.082      -14.492      105.286      124.070       55.776    11085.045    15393.456     3110.923        3.950        1.479      221.820       40.771        0.034      347.404       26.346      858.533
08/22/2014  13:00:00     -224.756     -157.362       -0.949      137.950       98.523       56.517    19030.284     9706.866     3194.225        5.360        1.597      274.368       61.097        0.050      347.392       26.325      858.525
08/22/2014  13:01:00     -305.842     -228.364      -10.704      149.919      124.533       71.595    22475.813    15508.464     5125.777        9.445        2.156      381.693       76.198        0.040      347.335       26.225      858.486
08/22/2014  13:02:00     -159.231     -200.284        6.376      189.668      160.446       89.544    35973.776    25742.867     8018.172        6.761        3.487      255.867       70.491        0.076      347.613       26.705      858.442
08/22/2014  13:03:00     -316.283     -109.742       16.525      207.064      124.628       94.682    42875.393    15532.040     8964.689        8.985        3.369      334.781      108.553        0.105      347.763       26.965      858.428
08/22/2014  13:04:00     -478.650     -144.003      -29.037      240.781      159.276       83.925    57975.573    25368.806     7043.470       17.052        4.519      499.843       92.558        0.034      347.510       26.527      858.403
08/22/2014  13:05:00     -217.652     -386.165       22.923      185.269      365.163       97.296    34324.717   133343.969     9466.488       18.704        8.857      443.278       95.735        0.047      347.400       26.337      858.367
08/22/2014  13:06:00     -341.089     -245.000       -1.732      224.034      222.870       95.523    50191.324    49671.143     9124.613       14.266        5.449      419.960       89.863        0.046      347.561       26.614      858.370
08/22/2014  13:07:00     -415.850     -374.630       -1.835      274.986      231.997      107.988    75617.077    53822.446    11661.503       22.716        7.055      559.713      105.413        0.035      347.451       26.426      858.398
08/22/2014  13:08:00     -435.374     -186.127       -0.547      173.625      226.076      109.166    30145.799    51110.460    11917.219       15.867        4.659      473.491      103.561        0.048      347.552       26.600      858.410
08/22/2014  13:09:00     -348.279     -196.065       21.353      238.701      197.524      106.088    56978.205    39015.775    11254.569       13.370        5.362      399.674      135.144        0.114      347.638       26.749      858.451
08/22/2014  13:10:00     -515.732      -37.730      -26.656      240.280      203.597       88.964    57734.549    41451.542     7914.672       18.759        5.355      517.110      102.706        0.039      347.476       26.469      858.423
08/22/2014  13:11:00     -195.099      -61.198       13.560      188.590      129.213       67.570    35566.015    16695.940     4565.639        4.940        2.841      204.472       80.710        0.156      347.791       27.014      858.438
08/22/2014  13:12:00     -410.426     -259.605       -9.615      223.380      146.907       94.309    49898.537    21581.552     8894.176       15.814        4.019      485.638       95.990        0.039      347.511       26.529      858.415
08/22/2014  13:13:00     -370.625     -210.052       11.554      204.144      174.154      100.545    41674.749    30329.586    10109.199       13.185        4.106      426.010      103.935        0.060      347.605       26.692      858.466
08/22/2014  13:14:00     -385.172     -219.676       -7.212      169.769      123.445       80.050    28821.628    15238.648     6408.034       12.356        2.523      443.413       90.505        0.042      347.612       26.703      858.483
08/22/2014  13:15:00     -439.815     -265.183       -7.481      239.497      163.723      101.116    57359.038    26805.173    10224.362       17.908        4.719      513.575      113.127        0.049      347.488       26.490      858.521
08/22/2014  13:16:00     -366.475      -53.887      -13.310      252.927      163.392       90.531    63972.194    26696.807     8195.782       11.810        4.943      370.415       85.508        0.053      347.368       26.283      858.507
08/22/2014  13:17:00     -233.188      -55.546      -18.648      118.744      107.242       60.470    14100.019    11500.946     3656.670        4.353        1.463      239.713       40.906        0.029      347.511       26.531      858.453
08/22/2014  13:18:00     -387.508     -105.704      -25.462      204.978      162.347       82.077    42016.181    26356.590     6736.701       11.853        3.755      401.666       94.507        0.055      347.326       26.211      858.367
08/22/2014  13:19:00     -440.829     -128.611       -9.860      147.368      137.238       85.313    21717.213    18834.302     7278.379       12.939        2.391      459.207       71.430        0.024      347.341       26.236      858.276
08/22/2014  13:20:00     -230.249     -120.630       11.846      137.922      113.389       68.463    19022.416    12856.989     4687.245        5.213        1.828      259.935       61.259        0.056      347.738       26.921      858.297
08/22/2014  13:21:00     -263.574     -130.153        0.972      177.099      119.572       75.522    31364.064    14297.392     5703.526        6.888        2.568      293.958       77.313        0.069      347.657       26.782      858.291
08/22/2014  13:22:00     -523.121     -271.423       -6.457      285.804      184.193      103.406    81683.663    33927.173    10692.832       23.681        6.315      589.344      132.892        0.051      347.546       26.589      858.320
08/22/2014  13:23:00     -308.544     -154.545        1.507      205.154      175.781       83.527    42088.149    30898.914     6976.842        9.951        3.998      345.085       95.262        0.076      347.623       26.722      858.321
08/22/2014  13:24:00     -577.401     -299.073      -11.793      296.175      239.879      105.625    87719.503    57541.809    11156.583       28.967        7.821      650.259      136.355        0.044      347.487       26.487      858.245
08/22/2014  13:25:00     -373.726     -264.621      -26.387      223.027      222.698       93.501    49740.890    49594.275     8742.520       15.921        5.404      457.926      103.964        0.052      347.465       26.450      858.240
08/22/2014  13:26:00     -459.790     -284.189      -23.419      205.220      182.040       92.719    42115.068    33138.564     8596.775       18.827        4.193      540.528       94.369        0.030      347.381       26.307      858.195
08/22/2014  13:27:00     -394.413     -355.405      -24.326      215.247      168.221       83.968    46331.155    28298.140     7050.586       18.206        4.084      530.918       98.614        0.035      347.373       26.291      858.081
08/22/2014  13:28:00     -229.294     -232.329        2.873      187.413      149.733       78.968    35123.633    22419.822     6236.000        8.516        3.189      326.424       53.038        0.026      347.817       27.057      858.096
08/22/2014  13:29:00     -316.604      -83.685        0.116      211.800      134.242       96.091    44859.299    18020.871     9233.466        8.966        3.606      327.477       96.931        0.088      347.875       27.158      858.123
08/22/2014  13:30:00     -390.875     -107.273      -10.178      212.475      138.336       91.949    45145.454    19136.785     8454.639       11.855        3.637      405.328       87.634        0.047      347.976       27.332      858.140
08/22/2014  13:31:00     -310.802     -219.651        0.720      238.241      157.621       99.858    56758.556    24844.499     9971.622       11.819        4.579      380.584      101.919        0.072      347.904       27.206      858.179
08/22/2014  13:32:00     -331.836     -230.000       15.546      264.892      178.123      106.997    70167.838    31727.898    11448.287       13.828        5.667      403.752      129.820        0.103      347.996       27.366      858.140
08/22/2014  13:33:00     -368.799     -100.205       -5.765      231.358      150.993       98.309    53526.607    22798.824     9664.564       11.602        4.299      382.170      113.013        0.087      347.762       26.962      858.178
08/22/2014  13:34:00     -511.315     -337.603      -16.000      314.355      223.208      107.619    98819.196    49821.970    11581.834       26.792        8.011      612.714      142.815        0.054      347.468       26.455      858.168
08/22/2014  13:35:00     -402.191     -269.225        0.078      260.450      186.292      100.565    67834.345    34704.572    10113.279       17.342        5.633      483.983      113.125        0.055      347.319       26.200      858.161
08/22/2014  13:36:00     -440.329     -287.662      -14.947      180.223      168.120       86.942    32480.411    28264.485     7558.847       17.257        3.415      525.965       76.604        0.021      347.430       26.391      858.167
08/22/2014  13:37:00     -334.238     -260.384        6.791      214.825      187.356       94.971    46149.677    35102.391     9019.577       13.490        4.514      423.692      100.908        0.057      347.436       26.400      858.154
08/22/2014  13:38:00     -327.944     -138.786      -10.865      237.891      141.789       95.842    56592.241    20104.104     9185.602       10.639        4.294      356.102      111.193        0.097      347.545       26.588      858.095
08/22/2014  13:39:00     -162.017     -131.523       35.925      214.087      144.577       90.395    45833.426    20902.376     8171.244        5.986        3.745      208.681      102.659        0.242      347.888       27.181      858.075
08/22/2014  13:40:00     -176.947     -168.813        6.867      176.072      121.035       81.457    31001.488    14649.551     6635.273        5.606        2.614      244.557       64.272        0.069      347.652       26.773      858.067
08/22/2014  13:41:00     -251.725     -182.609      -17.776      169.381      141.279       74.350    28689.949    19959.651     5527.929        7.559        2.709      310.985       66.008        0.045      347.642       26.755      858.066
08/22/2014  13:42:00     -390.449     -294.964        2.459      234.958      217.875      107.614    55205.059    47469.336    11580.710       17.683        5.713      489.340       93.788        0.037      347.558       26.610      858.087
08/22/2014  13:43:00     -552.232     -463.665      -29.697      291.720      269.355      158.924    85100.409    72552.058    25256.951       35.183        9.145      721.072      184.227        0.065      347.433       26.396      858.051
08/22/2014  13:44:00     -501.910     -301.038       -5.358      233.558      221.015      102.873    54549.201    48847.607    10582.767       22.825        5.699      585.267      102.930        0.031      347.535       26.571      858.072
08/22/2014  13:45:00     -531.638     -390.811        0.926      313.593      209.749      113.400    98340.473    43994.435    12859.592       29.525        7.760      659.827      134.157        0.041      347.361       26.270      858.080
08/22/2014  13:46:00     -353.775     -286.057        0.766      212.687      201.310       98.661    45235.677    40525.677     9734.025       15.122        4.775      454.957       88.928        0.038      347.332       26.219      858.108
08/22/2014  13:47:00     -585.431     -384.830       -7.856      293.110      228.435      118.486    85913.498    52182.379    14038.997       32.148        7.607      700.588      136.494        0.038      347.344       26.241      858.072
08/22/2014  13:48:00     -330.440     -245.857       16.522      304.597      232.320      119.669    92779.141    53972.656    14320.595       16.546        8.054      411.869      160.128        0.151      347.504       26.518      858.115
08/22/2014  13:49:00     -246.973     -226.255       24.068      202.300      213.890       88.460    40925.366    45749.129     7825.218       10.361        4.725      334.943      102.093        0.093      347.603       26.689      858.114
08/22/2014  13:50:00     -341.065     -167.393       18.893      188.067      239.649       93.864    35369.323    57431.788     8810.507       12.314        5.081      379.929      100.997        0.071      347.512       26.531      858.140
08/22/2014  13:51:00     -254.417     -174.485        6.236      213.365      181.296       93.032    45524.759    32868.347     8655.004        9.111        4.352      308.501       95.784        0.096      347.357       26.264      858.081
08/22/2014  13:52:00     -189.207     -231.323       10.602      189.017      132.736       89.579    35727.367    17618.769     8024.329        7.538        3.069      298.847       74.978        0.063      347.636       26.745      858.075
08/22/2014  13:53:00     -471.765     -355.022      -24.404      251.993      198.039      110.431    63500.230    39219.487    12194.931       23.203        5.746      590.426      116.757        0.039      347.493       26.498      858.063
08/22/2014  13:54:00     -465.955     -247.496       -7.965      274.683      200.494      104.510    75450.622    40197.654    10922.440       20.248        6.329      527.607      120.800        0.052      347.505       26.518      858.034
08/22/2014  13:55:00     -548.093     -387.634       -6.749      294.625      178.579      115.723    86803.722    31890.428    13391.846       29.137        6.604      671.316      135.266        0.041      347.524       26.552      858.004
08/22/2014  13:56:00     -320.737     -215.898       -7.940      188.460      192.282       98.888    35517.047    36972.439     9778.926       11.589        4.113      386.632      102.514        0.070      347.563       26.619      858.043
08/22/2014  13:57:00     -210.947     -121.416       14.780      187.713      146.264       95.663    35236.199    21393.246     9151.408        6.261        3.289      243.394       84.109        0.119      347.895       27.193      858.023
08/22/2014  13:58:00     -672.506     -419.408      -19.255      305.165      260.033      123.905    93125.847    67617.306    15352.542       40.228        8.805      792.570      139.251        0.031      347.478       26.472      858.008
08/22/2014  13:59:00     -526.824     -296.796       -4.684      256.567      247.009      118.856    65826.768    61013.560    14126.666       25.328        7.048      604.674      126.542        0.044      347.515       26.536      858.049
08/22/2014  14:00:00     -610.688     -426.470      -38.345      264.644      221.445      130.518    70036.248    49037.960    17034.884       34.617        6.805      744.860      139.618        0.035      347.234       26.054      858.066
08/22/2014  14:01:00     -534.557     -362.778        3.382      236.835      179.658      103.825    56090.912    32277.071    10779.593       25.824        4.957      646.034      116.032        0.032      347.291       26.149      858.115
08/22/2014  14:02:00     -342.778     -234.209        6.191      213.212      173.518      106.084    45459.503    30108.429    11253.894       12.959        4.341      415.151       88.684        0.046      347.317       26.195      858.108
08/22/2014  14:03:00     -337.964     -110.424      -12.640      157.734      128.032       64.364    24880.092    16392.091     4142.739        8.598        2.271      355.546       64.521        0.033      347.498       26.507      858.061
08/22/2014  14:04:00     -191.343     -193.033       -1.655      183.989      120.748       60.473    33851.998    14580.098     3656.996        6.297        2.604      271.797       77.899        0.082      347.744       26.933      858.028
08/22/2014  14:05:00     -345.374     -159.504      -29.632      248.499      171.389       88.302    61751.933    29374.104     7797.170       12.224        4.946      380.427       97.590        0.066      347.532       26.566      857.987
08/22/2014  14:06:00     -366.707     -124.025       28.540      223.850      162.796       97.599    50108.797    26502.500     9525.472       11.839        4.307      387.113      102.583        0.070      347.941       27.272      857.950
08/22/2014  14:07:00     -342.089     -135.893        7.272      219.438      169.771       90.123    48152.876    28822.315     8122.074       11.030        4.255      368.093      100.791        0.075      347.930       27.253      857.994
08/22/2014  14:08:00     -222.634     -100.576       -3.390      180.971      133.959       56.232    32750.580    17945.110     3161.994        5.676        2.693      244.298       71.980        0.087      347.883       27.173      857.981
08/22/2014  14:09:00     -232.664     -160.131       -1.901      185.318       91.849       57.615    34342.784     8436.238     3319.432        6.293        2.305      282.444       69.847        0.061      347.966       27.315      857.946
08/22/2014  14:10:00     -247.730     -158.509       20.252      168.746      128.237       69.681    28475.050    16444.798     4855.402        6.833        2.489      294.100       84.035        0.082      348.143       27.620      857.937
08/22/2014  14:11:00     -429.751      -94.126      -34.385      232.639      164.492       80.664    54121.052    27057.598     6506.616       14.119        4.384      439.938       91.519        0.043      347.757       26.955      857.917
08/22/2014  14:12:00     -347.339     -226.225      -23.882      157.451      160.784       87.976    24790.686    25851.568     7739.780       11.538        2.919      414.514       57.234        0.019      347.838       27.092      857.908
08/22/2014  14:13:00     -396.668     -102.480       23.992      271.945      259.248      127.058    73954.259    67209.364    16143.834       16.283        7.865      409.692      152.567        0.139      347.828       27.077      857.872
08/22/2014  14:14:00     -533.787     -297.412        5.549      269.395      302.386      138.558    72573.876    91437.021    19198.276       27.827        9.160      611.050      158.503        0.067      347.537       26.574      857.855
08/22/2014  14:15:00     -379.426     -371.350      -10.134      274.774      224.164      111.134    75500.508    50249.397    12350.875       21.001        6.905      530.910      122.823        0.054      347.571       26.632      857.847
08/22/2014  14:16:00     -445.725     -290.875       -5.483      265.686      178.101      109.198    70588.938    31720.107    11924.145       19.875        5.712      532.239       92.602        0.030      347.423       26.377      857.846
08/22/2014  14:17:00     -397.809     -158.270        0.170      236.633      208.798       87.202    55995.059    43596.579     7604.111       14.523        5.360      428.137       90.493        0.045      347.483       26.482      857.752
08/22/2014  14:18:00     -271.906     -333.542       17.529      171.912      229.189      100.708    29553.788    52527.610    10142.178       13.884        4.611      430.329       88.867        0.043      347.674       26.811      857.812
08/22/2014  14:19:00     -271.246     -187.486        7.750      160.807      163.614       86.982    25858.890    26769.685     7565.799        8.448        3.010      329.735       87.739        0.071      347.801       27.030      857.819
08/22/2014  14:20:00     -300.885     -281.987       -4.019      256.281      200.918       94.084    65679.718    40368.227     8851.740       14.246        5.745      412.369       93.711        0.052      347.722       26.893      857.847
08/22/2014  14:21:00     -492.834     -410.984      -16.171      225.548      213.265      100.839    50871.929    45482.033    10168.549       25.927        5.326      641.711      108.842        0.029      347.462       26.446      857.832
08/22/2014  14:22:00     -399.254     -222.328      -16.866      176.018      172.684       85.349    30982.243    29819.595     7284.488       13.859        3.404      456.983       65.525        0.021      347.502       26.514      857.860
08/22/2014  14:23:00     -568.465     -168.739      -16.728      242.051      197.863      118.047    58588.836    39149.657    13935.023       23.177        5.584      592.980      133.297        0.051      347.526       26.555      857.830
08/22/2014  14:24:00     -490.522     -280.378      -30.609      257.001      212.175       86.181    66049.322    45018.113     7427.119       21.930        5.925      564.999       85.250        0.023      347.508       26.523      857.858
08/22/2014  14:25:00     -567.818     -275.486      -25.271      251.439      207.119      114.264    63221.543    42898.288    13056.284       25.904        5.959      631.117      124.020        0.039      347.631       26.737      857.869
08/22/2014  14:26:00     -403.889     -179.540       13.749      327.941      188.229      113.777   107545.219    35430.050    12945.255       17.570        7.796      441.996      135.447        0.094      347.653       26.775      857.861
08/22/2014  14:27:00     -302.198     -175.190       11.438      221.089      155.839       77.763    48880.488    24285.917     6047.103       10.066        3.961      349.307       88.104        0.064      347.569       26.628      857.878
08/22/2014  14:28:00     -221.843     -318.221       -4.035      137.685      240.365       73.883    18957.061    57775.114     5458.736       11.633        4.110      387.916       78.771        0.041      347.613       26.706      857.843
08/22/2014  14:29:00     -366.082     -232.563       -8.017      192.159      191.504       82.591    36925.110    36673.655     6821.206       13.428        4.021      433.707       94.310        0.047      347.625       26.727      857.808
08/22/2014  14:30:00     -338.703     -318.699       17.075      272.896      289.004      132.452    74472.232    83523.601    17543.449       19.603        8.777      465.069      148.004        0.101      347.867       27.144      857.754
08/22/2014  14:31:00     -565.979     -314.246      -10.576      232.821      220.640      115.678    54205.839    48681.903    13381.299       26.771        5.813      647.366      127.511        0.039      347.556       26.607      857.797
08/22/2014  14:32:00     -242.677     -187.831        8.717      221.133      146.420       87.121    48899.584    21438.956     7590.140        8.607        3.896      306.875      113.338        0.136      347.659       26.785      857.804
08/22/2014  14:33:00     -233.727     -110.130       -7.073      183.600      117.253       66.735    33708.821    13748.357     4453.545        5.935        2.596      258.373       73.368        0.081      347.931       27.256      857.798
08/22/2014  14:34:00     -211.764       -4.092       24.328      209.181      128.662       95.525    43756.857    16554.010     9125.064        5.743        3.472      211.803      115.164        0.296      348.232       27.776      857.762
08/22/2014  14:35:00     -233.183      -82.248        2.307      145.372       85.842       59.011    21132.914     7368.815     3482.269        4.656        1.599      247.263       70.028        0.080      348.045       27.451      857.818
08/22/2014  14:36:00     -383.205     -178.959      -13.089      197.074      186.991       90.485    38838.148    34965.667     8187.553       13.050        4.100      422.933       79.172        0.035      347.761       26.959      857.835
08/22/2014  14:37:00     -256.095     -502.872       -2.063      184.187      234.835      103.547    33924.850    55147.432    10722.075       20.911        4.990      564.327      100.840        0.032      347.457       26.437      857.780
08/22/2014  14:38:00     -249.631     -150.023       -5.426      201.309      158.857       71.969    40525.180    25235.495     5179.564        7.788        3.547      291.243       98.964        0.115      347.739       26.923      857.810
08/22/2014  14:39:00     -194.434     -185.814       16.984      168.123      154.994       88.824    28265.357    24023.176     7889.776        6.639        3.009      268.945      102.849        0.146      347.959       27.303      857.804
08/22/2014  14:40:00     -208.521      -90.064       -0.950      127.622      107.052       56.696    16287.446    11460.025     3214.446        4.127        1.548      227.140       42.727        0.035      348.102       27.551      857.777
08/22/2014  14:41:00     -238.882      -13.994       -3.219      190.523      145.393       70.213    36298.864    21139.163     4929.862        5.981        3.118      239.291       70.122        0.086      348.196       27.713      857.749
08/22/2014  14:42:00     -255.147     -208.531        3.611      193.389      180.630       86.201    37399.341    32627.256     7430.685        9.301        3.873      329.523       94.950        0.083      347.962       27.308      857.783
08/22/2014  14:43:00     -320.272     -276.707       12.622      221.728      174.791       93.729    49163.517    30552.066     8785.107       13.388        4.425      423.250      101.475        0.057      347.934       27.260      857.721
08/22/2014  14:44:00     -290.790     -128.433       -9.143      210.554      164.262       88.522    44332.869    26981.998     7836.194        9.013        3.958      317.889      103.188        0.105      348.041       27.444      857.741
08/22/2014  14:45:00     -367.113        7.300      -18.165      218.326      150.739       82.515    47666.256    22722.151     6808.757       10.616        3.860      367.185       89.999        0.060      348.247       27.801      857.739
08/22/2014  14:46:00     -365.664     -182.189        2.790      213.573      190.285       94.752    45613.407    36208.292     8977.901       12.884        4.540      408.538      107.401        0.069      348.157       27.646      857.745
08/22/2014  14:47:00     -313.642     -240.078       -5.399      220.939      205.772      114.160    48814.092    42342.154    13032.594       13.009        5.209      394.980      132.444        0.112      348.133       27.603      857.768
08/22/2014  14:48:00     -446.694     -205.313      -23.959      176.223      213.855       93.324    31054.646    45733.783     8709.421       16.386        4.275      491.619       87.643        0.032      347.933       27.258      857.751
08/22/2014  14:49:00     -393.540     -157.720       -8.057      243.146      195.097      111.691    59119.822    38062.749    12474.858       14.471        5.483      423.968      124.760        0.087      348.116       27.573      857.758
08/22/2014  14:50:00     -256.427      -22.878       18.169      259.910      145.087      104.231    67553.218    21050.372    10864.022        8.302        4.973      257.446      118.504        0.212      348.155       27.641      857.787
08/22/2014  14:51:00     -323.287      -13.706      -15.767      145.208      134.724       66.304    21085.316    18150.462     4396.268        7.428        2.182      323.577       64.977        0.040      348.092       27.531      857.774
08/22/2014  14:52:00     -458.283      -94.797      -31.928      214.209      149.115       73.063    45885.643    22235.368     5338.160       14.673        3.673      467.985       71.981        0.024      347.944       27.276      857.746
08/22/2014  14:53:00     -316.742     -113.291        8.018      232.820      183.587       97.981    54205.133    33704.217     9600.192       10.535        4.875      336.393      110.601        0.108      347.997       27.370      857.721
08/22/2014  14:54:00     -316.968      -21.966      -16.094      186.897       91.003       73.181    34930.517     8281.458     5355.465        7.488        2.428      317.728       67.908        0.046      348.077       27.506      857.731
08/22/2014  14:55:00     -481.561     -157.310      -22.670      236.609      217.838       88.266    55983.583    47453.430     7790.956       18.417        5.561      506.604       86.102        0.029      347.896       27.194      857.735
08/22/2014  14:56:00     -556.957     -221.776      -12.685      302.754      152.529       95.850    91659.687    23265.195     9187.282       24.180        6.206      599.488       96.189        0.026      347.653       26.775      857.721
08/22/2014  14:57:00     -305.266     -221.820      -20.070      167.026      153.516       75.695    27897.742    23567.063     5729.798        9.998        2.860      377.348       85.333        0.051      347.884       27.174      857.756
08/22/2014  14:58:00     -276.914     -205.476      -21.158      237.080      169.625       81.457    56207.015    28772.794     6635.241       10.546        4.581      344.821      102.466        0.088      347.719       26.890      857.750
08/22/2014  14:59:00     -394.583     -213.656      -27.407      246.607      187.998       96.695    60814.988    35343.073     9349.940       15.378        5.275      448.714      100.812        0.050      347.761       26.963      857.716
08/22/2014  15:00:00     -391.467     -160.523       -4.992      211.204      172.484       89.954    44607.054    29750.731     8091.809       13.073        4.122      423.100      100.364        0.056      347.819       27.062      857.689
08/22/2014  15:01:00     -314.361     -143.079       -7.825      189.098      157.313       91.622    35758.151    24747.275     8394.638        9.411        3.445      345.391      101.231        0.086      348.085       27.520      857.755
08/22/2014  15:02:00     -283.228      -68.863      -29.655      131.311      145.515       73.160    17242.660    21174.653     5352.423        6.480        2.188      291.480       54.116        0.034      348.151       27.634      857.810
08/22/2014  15:03:00     -197.355      -84.609       -1.364      175.839      126.388       62.024    30919.221    15973.990     3846.924        4.841        2.537      214.727       68.891        0.103      348.261       27.826      857.839
08/22/2014  15:04:00     -149.174     -115.302       12.271      139.508      129.561       65.524    19462.452    16786.157     4293.334        3.811        2.027      188.541       70.695        0.141      348.208       27.733      857.844
08/22/2014  15:05:00     -225.365      -27.236        5.255      164.175      107.731       72.523    26953.405    11605.890     5259.581        4.768        2.191      227.004       84.836        0.140      348.245       27.797      857.813
08/22/2014  15:06:00     -197.363     -129.066       11.116      160.925      153.472       84.679    25897.009    23553.769     7170.514        5.617        2.831      235.818       73.167        0.096      348.046       27.454      857.784
08/22/2014  15:07:00     -286.054     -125.178       -2.641      223.361      229.656       89.573    49889.915    52741.659     8023.275       10.406        5.533      312.244      110.036        0.124      348.058       27.473      857.761
08/22/2014  15:08:00     -422.062     -135.664      -30.068      154.170      153.313       77.685    23768.268    23504.896     6034.917       12.537        2.665      443.329       78.918        0.032      347.891       27.185      857.759
08/22/2014  15:09:00     -184.667      -96.869        3.466      166.340      139.783       76.695    27668.989    19539.253     5882.090        4.828        2.655      208.532       84.085        0.163      348.232       27.776      857.751
08/22/2014  15:10:00     -447.845      -88.248      -10.811      230.541      172.025      101.949    53149.105    29592.537    10393.498       15.078        4.657      456.457      102.911        0.051      348.016       27.402      857.750
08/22/2014  15:11:00     -331.293      -82.866      -25.992      224.377      109.183       74.839    50344.967    11920.838     5600.826        9.257        3.393      341.499      105.250        0.095      348.219       27.753      857.788
08/22/2014  15:12:00     -253.498     -126.087       -6.335      175.442      144.189       76.090    30779.989    20790.515     5789.675        6.877        2.868      283.124       78.821        0.078      348.190       27.701      857.798
08/22/2014  15:13:00     -253.636     -163.521       10.933      190.357      165.405       94.704    36235.702    27358.965     8968.905        8.186        3.628      301.779      103.044        0.117      348.197       27.713      857.795
08/22/2014  15:14:00     -328.104        2.930      -27.094      111.113      102.056       65.840    12346.154    10415.497     4334.915        6.774        1.355      328.118       56.669        0.030      348.152       27.636      857.812
08/22/2014  15:15:00     -380.528     -227.623      -20.058      176.328      165.045       88.372    31091.535    27239.890     7809.664       13.157        3.307      443.412       87.686        0.039      347.963       27.310      857.823
08/22/2014  15:16:00     -308.716      -95.504      -30.734      112.059      122.014       64.564    12557.271    14887.498     4168.527        6.849        1.581      323.151       13.526        0.002      347.798       27.025      857.782
08/22/2014  15:17:00     -206.458      -82.522       -6.011      103.966      106.449       63.252    10808.954    11331.478     4000.854        3.780        1.307      222.339       52.956        0.057      348.129       27.597      857.742
08/22/2014  15:18:00     -407.613     -273.085      -18.095      228.865      183.681      106.355    52379.372    33738.715    11311.449       16.922        4.871      490.636      113.262        0.053      348.041       27.444      857.726
08/22/2014  15:19:00     -277.998     -165.678        5.896      211.686      149.243       93.653    44811.081    22273.594     8770.931        9.030        3.793      323.623       99.984        0.095      348.217       27.748      857.752
08/22/2014  15:20:00     -229.832      -25.238       21.050      211.483      166.077       88.046    44725.152    27581.496     7752.159        6.697        4.003      231.214      100.832        0.190      348.391       28.049      857.812
08/22/2014  15:21:00     -412.825     -129.654      -16.964      293.262      155.583       87.874    86002.760    24206.220     7721.786       15.270        5.897      432.706      110.113        0.065      347.674       26.810      857.810
08/22/2014  15:22:00     -353.432      -21.294      -26.745      110.589      131.828       58.146    12229.991    17378.509     3380.992        7.953        1.649      354.073       45.481        0.016      347.593       26.671      857.819
08/22/2014  15:23:00     -139.734      -92.095       13.145      135.935      134.087       68.756    18478.347    17979.431     4727.359        3.467        2.059      167.353       76.155        0.207      347.997       27.370      857.793
08/22/2014  15:24:00     -164.326      -54.623      -10.467      119.855       82.681       54.969    14365.326     6836.087     3021.630        2.715        1.211      173.166       55.095        0.101      347.941       27.272      857.785
08/22/2014  15:25:00     -203.858      -85.761      -19.153      164.856      102.392       54.214    27177.661    10484.115     2939.202        4.493        2.030      221.163       68.789        0.097      348.171       27.671      857.795
08/22/2014  15:26:00     -193.937      -25.770       14.721      146.541      122.113       70.219    21474.382    14911.651     4930.754        3.990        2.066      195.641       67.164        0.118      348.324       27.934      857.816
08/22/2014  15:27:00     -205.809     -157.726       17.242      196.395      153.512      104.003    38571.067    23565.842    10816.531        7.023        3.648      259.297      113.122        0.190      347.801       27.030      857.781
08/22/2014  15:28:00     -172.306      -87.988      -16.774      131.058       79.093       48.692    17176.268     6255.685     2370.927        3.175        1.290      193.471       54.378        0.079      347.775       26.988      857.754
08/22/2014  15:29:00      -51.732       33.065       -1.600      120.657       66.501       52.449    14558.065     4422.358     2750.863        1.275        1.087       61.396       58.651        0.913      348.224       27.762      857.701
08/22/2014  15:30:00     -359.591     -133.042      -15.521      174.715      150.650       82.882    30525.168    22695.515     6869.397       10.366        3.005      383.413       67.768        0.031      348.083       27.518      857.692
08/22/2014  15:31:00     -159.005      -85.467       13.323      147.739      101.385       71.432    21826.774    10278.946     5102.492        3.498        1.860      180.520       81.890        0.206      348.348       27.976      857.780
08/22/2014  15:32:00     -349.936       12.743      -21.424      156.431      191.239       86.963    24470.502    36572.315     7562.542        9.583        3.430      350.168       80.287        0.053      347.922       27.239      857.786
08/22/2014  15:33:00     -422.204      -55.399      -15.589      218.175      149.837       79.756    47600.356    22451.266     6361.006       12.897        3.821      425.823      100.598        0.056      347.815       27.054      857.781
08/22/2014  15:34:00     -558.506      -66.880      -52.432      259.435      179.535       87.613    67306.317    32232.682     7676.055       21.316        5.361      562.496      107.561        0.037      347.789       27.010      857.762
08/22/2014  15:35:00     -357.141     -143.538       -4.651      160.958      186.238       91.457    25907.477    34684.597     8364.333       10.855        3.448      384.906       85.708        0.050      347.824       27.069      857.807
08/22/2014  15:36:00     -387.246     -205.127       -7.987      191.723      125.113       82.050    36757.699    15653.367     6732.245       12.561        2.957      438.220       85.720        0.038      347.669       26.802      857.804
08/22/2014  15:37:00     -308.453     -233.322        8.490      194.898      139.789       92.785    37985.302    19540.828     8608.964       10.788        3.307      386.759       96.504        0.062      347.598       26.680      857.776
08/22/2014  15:38:00     -351.838     -166.357       10.594      224.210      234.075      106.168    50270.339    54791.116    11271.608       13.393        5.817      389.185      124.886        0.103      347.718       26.887      857.745
08/22/2014  15:39:00     -368.415      -20.777      -20.969      237.562      188.471       87.194    56435.817    35521.258     7602.818       11.806        4.978      369.001       99.630        0.073      347.930       27.252      857.763
08/22/2014  15:40:00     -432.905      -27.803      -24.005      234.198      181.505      101.075    54848.809    32944.011    10216.166       14.336        4.900      433.797      109.937        0.064      347.937       27.265      857.737
08/22/2014  15:41:00     -570.517     -171.259      -29.846      221.462      203.275       97.832    49045.242    41320.821     9571.075       22.780        4.997      595.667      105.742        0.032      347.870       27.150      857.769
08/22/2014  15:42:00     -578.396     -148.683      -29.083      259.355      215.278      112.124    67265.077    46344.685    12571.816       24.181        6.309      597.200      105.690        0.031      347.678       26.818      857.792
08/22/2014  15:43:00     -395.452      -52.029       -8.963      227.548      184.290      107.085    51777.891    33962.836    11467.225       12.817        4.860      398.860      109.642        0.076      347.710       26.874      857.799
08/22/2014  15:44:00     -415.327       30.717      -21.408      176.063      169.653       77.593    30998.043    28782.277     6020.633       11.984        3.290      416.461       74.508        0.032      347.826       27.073      857.834
08/22/2014  15:45:00     -438.535     -163.412      -14.240      204.346      164.387       89.768    41757.174    27023.180     8058.246       14.801        3.842      467.992       91.897        0.039      347.761       26.960      857.801
08/22/2014  15:46:00     -372.767      -90.883      -17.044      205.253      141.881       75.231    42128.737    20130.265     5659.631       10.770        3.396      383.686       93.801        0.060      347.969       27.320      857.831
08/22/2014  15:47:00     -198.701     -119.893       18.619      174.446      151.059       74.455    30431.359    22818.836     5543.521        5.649        2.940      232.069       77.116        0.110      348.014       27.399      857.786
08/22/2014  15:48:00     -329.302     -117.092        7.256      165.976      120.853       67.399    27548.141    14605.435     4542.571        8.444        2.335      349.500       69.068        0.039      347.734       26.914      857.778
08/22/2014  15:49:00     -169.374     -193.452        6.829      130.275      170.541       71.749    16971.582    29084.360     5147.983        5.867        2.560      257.121       71.841        0.078      347.998       27.372      857.824
08/22/2014  15:50:00     -305.355     -176.331      -17.844      174.467      113.887       61.356    30438.670    12970.314     3764.499        8.590        2.359      352.611       70.108        0.040      347.728       26.905      857.821
08/22/2014  15:51:00     -439.750     -142.596      -19.611      184.415      185.867       84.498    34008.798    34546.623     7139.831       14.488        3.785      462.292       88.145        0.036      347.836       27.091      857.813
08/22/2014  15:52:00     -352.256     -231.514        1.397      236.557      144.071       81.573    55959.172    20756.558     6654.147       13.051        4.168      421.525      106.714        0.064      347.723       26.894      857.804
08/22/2014  15:53:00     -229.287     -191.591       26.426      226.729      176.841      100.607    51405.953    31272.820    10121.751        9.137        4.640      298.797      125.902        0.178      347.867       27.145      857.830
08/22/2014  15:54:00     -394.807      -33.284      -22.199      271.680      166.680       97.406    73810.079    27782.308     9488.021       13.425        5.554      396.207      107.046        0.073      347.883       27.172      857.855
08/22/2014  15:55:00     -326.445     -194.402       -8.231      194.180      161.606       91.949    37705.873    26116.577     8454.686       10.834        3.614      379.946       84.950        0.050      347.711       26.875      857.872
08/22/2014  15:56:00     -446.739     -126.261      -11.150      219.171      163.629       79.297    48036.092    26774.364     6288.003       14.835        4.055      464.238       90.040        0.038      347.512       26.531      857.842
08/22/2014  15:57:00     -253.517      -76.782        2.907      191.948      129.064       81.649    36843.861    16657.579     6666.539        6.516        3.008      264.889       95.802        0.131      347.746       26.935      857.871
08/22/2014  15:58:00     -237.092      -83.945      -23.868      171.482       93.060       57.216    29406.008     8660.129     3273.679        5.258        2.067      251.514       77.553        0.095      347.590       26.667      857.846
08/22/2014  15:59:00     -258.837     -175.836      -14.580      119.165      108.392       65.686    14200.180    11748.916     4314.616        6.419        1.513      312.914       71.040        0.052      347.428       26.387      857.817
08/22/2014  16:00:00     -318.282     -206.403        6.265      197.717      151.739       78.223    39092.042    23024.874     6118.810       10.608        3.412      379.349       92.770        0.060      347.711       26.876      857.798
08/22/2014  16:01:00     -390.563     -163.368       -6.505      241.881      181.038       82.334    58506.309    32774.719     6778.899       13.865        4.903      423.354       92.284        0.048      347.693       26.844      857.799
08/22/2014  16:02:00     -401.733     -305.860       11.722      217.844      178.100      101.878    47456.151    31719.599    10379.126       17.230        4.478      504.916      112.073        0.049      347.589       26.665      857.807
08/22/2014  16:03:00     -450.764     -428.217      -14.993      249.268      173.197      112.717    62134.491    29997.161    12705.155       24.579        5.242      621.738      116.085        0.035      347.770       26.977      857.783
08/22/2014  16:04:00     -196.243     -112.830        3.965      158.825      132.510       61.678    25225.440    17558.799     3804.209        4.891        2.329      226.367       69.728        0.095      347.964       27.312      857.846
08/22/2014  16:05:00     -102.935      -30.516       25.608      113.760      100.174       54.434    12941.227    10034.796     2963.111        1.906        1.297      107.363       55.135        0.264      348.209       27.739      857.855
08/22/2014  16:06:00     -278.190      -26.057       11.595      224.188      125.866       67.180    50260.136    15842.292     4513.144        7.440        3.531      279.408       77.456        0.077      348.014       27.398      857.837
08/22/2014  16:07:00     -431.952     -172.449       -8.300      174.361      147.275       92.114    30401.906    21689.928     8484.960       13.847        3.029      465.103       63.880        0.019      347.903       27.207      857.765
08/22/2014  16:08:00     -445.155     -246.000      -13.939      272.742      209.536       97.665    74388.460    43905.426     9538.421       19.333        6.392      508.605      110.577        0.047      347.753       26.948      857.770
08/22/2014  16:09:00     -444.268     -266.655      -17.709      217.368      239.130       90.847    47248.667    57183.220     8253.155       19.072        5.634      518.149       81.055        0.024      347.539       26.578      857.798
08/22/2014  16:10:00     -497.831     -201.744      -14.017      291.431      310.066      138.000    84931.741    96140.782    19044.037       24.439       10.006      537.156      156.037        0.084      347.562       26.617      857.751
08/22/2014  16:11:00     -379.314     -236.357      -20.219      243.420      201.260      104.334    59253.509    40505.772    10885.501       15.538        5.532      446.927      116.723        0.068      347.683       26.827      857.817
08/22/2014  16:12:00     -467.830     -176.734      -18.966      232.171      150.446       93.477    53903.189    22633.943     8737.920       16.785        4.264      500.100       97.951        0.038      347.574       26.639      857.844
08/22/2014  16:13:00     -336.995     -250.493      -14.160      221.666      186.498       80.114    49135.794    34781.424     6418.307       13.341        4.517      419.896       99.171        0.056      347.631       26.736      857.843
08/22/2014  16:14:00     -288.817     -178.957        1.862      166.394      144.493       63.361    27686.890    20878.168     4014.644        8.400        2.629      339.766       61.378        0.033      347.512       26.532      857.818
08/22/2014  16:15:00     -374.568     -170.118       -5.108      145.311      114.515       68.040    21115.235    13113.656     4629.438       10.406        1.943      411.390       71.227        0.030      347.500       26.510      857.792
08/22/2014  16:16:00     -381.586     -224.891      -34.256      201.280      141.680       73.520    40513.828    20073.308     5405.224       13.166        3.300      442.927       62.690        0.020      347.498       26.508      857.792
08/22/2014  16:17:00     -244.617     -228.393        7.669      190.150      205.897       73.625    36156.928    42393.532     5420.670        9.800        4.199      334.665       95.366        0.081      347.804       27.035      857.786
08/22/2014  16:18:00     -393.539     -237.821       -8.311      223.842      149.786       89.589    50105.164    22435.852     8026.168       14.602        4.028      459.817       94.486        0.042      347.761       26.960      857.777
08/22/2014  16:19:00     -430.543     -292.302      -26.542      279.543      238.060      115.283    78144.186    56672.710    13290.073       20.978        7.405      520.392      140.077        0.072      347.706       26.866      857.734
08/22/2014  16:20:00     -451.291     -353.319       -3.615      273.313      194.332      119.938    74700.106    37765.116    14385.082       22.766        6.343      573.148      127.690        0.050      347.679       26.819      857.717
08/22/2014  16:21:00     -258.024     -246.168       15.962      259.977      197.274       91.506    67587.884    38917.053     8373.351       12.113        5.744      356.616      108.846        0.093      347.824       27.071      857.740
08/22/2014  16:22:00     -347.963     -256.334       13.102      213.451      153.640       92.332    45561.272    23605.180     8525.107       13.231        3.885      432.187       98.423        0.052      347.650       26.771      857.738
08/22/2014  16:23:00     -231.669     -223.878        7.596      202.588      172.056       79.552    41042.087    29603.401     6328.447        9.040        3.849      322.168       85.365        0.070      347.760       26.961      857.769
08/22/2014  16:24:00      -97.509     -262.700      -10.127      126.184      120.425       72.988    15922.361    14502.132     5327.204        5.718        1.788      280.213       61.282        0.048      347.622       26.721      857.755
08/22/2014  16:25:00     -269.431     -288.887       -5.347      193.539      165.845       93.055    37457.302    27504.664     8659.302       11.483        3.681      395.030       96.532        0.060      347.571       26.634      857.777
08/22/2014  16:26:00     -339.507     -200.973       -1.194      217.425      137.559       95.383    47273.786    18922.508     9097.942       11.546        3.765      394.531       82.639        0.044      347.611       26.702      857.762
08/22/2014  16:27:00     -429.747     -214.084      -20.021      211.765      148.206       93.299    44844.404    21964.992     8704.756       15.320        3.776      480.119      105.933        0.049      347.546       26.591      857.733
08/22/2014  16:28:00     -357.952     -219.393      -11.971      213.478      123.371       88.196    45572.908    15220.307     7778.576       12.248        3.429      419.837       84.699        0.041      347.791       27.012      857.743
08/22/2014  16:29:00     -363.257     -192.574      -12.262      202.948      170.139       89.840    41187.755    28947.400     8071.272       12.368        3.910      411.146      107.375        0.068      347.873       27.154      857.764
08/22/2014  16:30:00     -568.043     -139.194      -22.708      218.645      179.961       98.326    47805.743    32385.864     9667.997       21.619        4.493      584.849       97.097        0.028      347.748       26.939      857.781
08/22/2014  16:31:00     -324.089     -185.943       -6.355      154.489      137.955       82.426    23866.801    19031.674     6794.094        9.466        2.485      373.642       66.450        0.032      347.590       26.666      857.796
08/22/2014  16:32:00     -378.905     -160.053      -14.844      175.977      152.536       78.992    30967.978    23267.084     6239.697       11.493        3.024      411.322       75.620        0.034      347.731       26.908      857.775
08/22/2014  16:33:00     -224.292      -93.280      -21.410      165.076      156.647       70.724    27250.224    24538.202     5001.815        5.812        2.840      242.916       57.441        0.056      347.887       27.179      857.806
08/22/2014  16:34:00     -185.316      -39.897        2.886      130.512       96.368       55.976    17033.478     9286.696     3133.290        3.269        1.473      189.562       60.763        0.103      347.908       27.215      857.809
08/22/2014  16:35:00     -206.701      -66.406       -7.469      104.314       82.416       48.772    10881.368     6792.455     2378.731        3.362        1.003      217.106       45.563        0.044      348.001       27.376      857.783
08/22/2014  16:36:00     -234.263      -76.200       13.422      158.124      127.722       69.004    25003.311    16312.986     4761.595        5.346        2.304      246.345       81.487        0.109      348.178       27.680      857.818
08/22/2014  16:37:00     -491.149     -234.770       -3.471      264.957      182.287      100.339    70202.123    33228.536    10067.900       20.490        5.675      544.375      105.841        0.038      347.724       26.897      857.836
08/22/2014  16:38:00     -455.894     -234.915      -12.229      226.720      189.155      104.332    51402.132    35779.644    10885.165       18.060        4.903      512.859      118.043        0.053      347.599       26.682      857.793
08/22/2014  16:39:00     -316.985     -157.693       14.203      230.849      221.450      103.780    53291.319    49040.281    10770.389       11.930        5.655      354.043      115.890        0.107      347.757       26.955      857.780
08/22/2014  16:40:00     -325.871     -203.936      -13.160      209.285      188.661       88.555    43800.126    35593.046     7841.970       11.758        4.362      384.424       99.927        0.068      347.634       26.741      857.789
08/22/2014  16:41:00     -239.317     -205.863       10.623      124.153      112.319       64.853    15413.852    12615.640     4205.925        6.599        1.612      315.678       65.472        0.043      347.713       26.879      857.796
08/22/2014  16:42:00     -179.192     -232.125       -1.999      137.018      127.437       79.585    18773.837    16240.111     6333.753        6.366        2.067      293.243       73.904        0.064      347.651       26.772      857.814
08/22/2014  16:43:00     -387.049     -263.902      -15.637      182.165      179.395       93.947    33184.257    32182.473     8826.050       14.693        3.710      468.456       93.589        0.040      347.576       26.643      857.798
08/22/2014  16:44:00     -309.655     -253.922       -8.142      181.034      172.848       82.352    32773.352    29876.511     6781.876       11.492        3.472      400.453       77.768        0.038      347.607       26.694      857.809
08/22/2014  16:45:00     -260.117     -219.590      -15.538      175.581      130.937       74.171    30828.630    17144.466     5501.384        8.479        2.674      340.412       53.525        0.025      347.519       26.543      857.793
08/22/2014  16:46:00     -290.937      -22.211      -17.470      121.854       92.690       47.337    14848.519     8591.398     2240.791        5.556        1.284      291.783       53.450        0.034      347.719       26.889      857.751
08/22/2014  16:47:00     -479.709     -194.460      -39.753      201.708      176.446       94.168    40685.977    31133.312     8867.567       17.508        4.034      517.624       93.120        0.032      347.563       26.621      857.721
08/22/2014  16:48:00     -403.071     -166.464       27.345      254.954      257.487      113.494    65001.451    66299.795    12880.869       16.752        7.209      436.092      125.362        0.083      347.788       27.008      857.701
08/22/2014  16:49:00     -406.469     -189.433       -9.160      188.773      265.804       91.231    35635.068    70651.760     8323.100       15.788        5.730      448.444       91.666        0.042      347.780       26.995      857.729
08/22/2014  16:50:00     -280.663     -129.603       11.740      195.088      158.965       97.415    38059.152    25269.958     9489.746        8.425        3.641      309.142       92.991        0.090      347.877       27.161      857.777
08/22/2014  16:51:00     -418.255     -143.848      -10.375      229.659      163.316       86.600    52743.043    26672.087     7499.644       14.131        4.346      442.300       89.217        0.041      347.699       26.854      857.833
08/22/2014  16:52:00     -425.190     -198.435      -19.255      281.982      175.328      102.963    79513.950    30739.865    10601.415       17.067        6.043      469.215      116.662        0.062      347.507       26.523      857.821
08/22/2014  16:53:00     -497.269     -290.887       -7.492      268.368      232.771      105.856    72021.351    54182.213    11205.412       23.465        6.870      576.101      127.320        0.049      347.540       26.579      857.817
08/22/2014  16:54:00     -468.676     -184.519       -8.373      251.399      202.131       87.405    63201.593    40856.794     7639.619       18.271        5.585      503.691      107.208        0.045      347.364       26.275      857.839
08/22/2014  16:55:00     -321.682     -101.186        2.004      160.071      138.406       69.824    25622.574    19156.315     4875.397        8.168        2.483      337.221       66.277        0.039      347.619       26.716      857.821
08/22/2014  16:56:00     -250.362     -134.887       13.801      217.148      122.480       95.277    47153.395    15001.310     9077.659        7.613        3.562      284.386      110.954        0.152      347.817       27.057      857.827
08/22/2014  16:57:00     -309.039     -154.363      -36.911      223.597      135.373       83.337    49995.489    18325.960     6945.135        9.797        3.763      345.446       97.172        0.079      347.716       26.883      857.848
08/22/2014  16:58:00     -283.256     -154.639        1.983      215.864      123.917       82.037    46597.363    15355.514     6730.074        8.640        3.434      322.719       89.959        0.078      347.699       26.855      857.847
08/22/2014  16:59:00     -416.046     -181.726      -17.159      157.454      119.720       71.792    24791.862    14332.762     5154.119       12.534        2.214      454.003       65.616        0.021      347.580       26.649      857.880
08/22/2014  17:00:00     -325.754     -213.268        2.205      165.098      179.289       87.132    27257.354    32144.600     7591.939       10.929        3.350      389.357       82.918        0.045      347.533       26.567      857.849
08/22/2014  17:01:00     -536.869     -362.396      -26.525      293.804      213.096      115.427    86320.695    45409.693    13323.383       28.263        7.253      647.734      123.892        0.037      347.367       26.281      857.815
08/22/2014  17:02:00     -399.605     -235.722      -20.405      186.647      119.119       90.177    34837.111    14189.435     8131.951       13.640        2.858      463.949       80.201        0.030      347.384       26.310      857.799
08/22/2014  17:03:00     -283.178     -131.457        8.488      209.416      109.437       72.950    43854.923    11976.451     5321.722        7.934        3.058      312.203       88.718        0.081      347.639       26.751      857.758
08/22/2014  17:04:00     -291.215     -107.910       -0.161      167.844      170.612       78.471    28171.611    29108.316     6157.713        7.993        3.172      310.565       94.671        0.093      347.705       26.865      857.796
08/22/2014  17:05:00     -269.614     -116.853       -2.128      168.874      126.338       61.163    28518.511    15961.272     3740.865        6.728        2.411      293.848       78.132        0.071      347.842       27.101      857.834
08/22/2014  17:06:00     -388.444      -35.330      -12.362      204.716      160.542       62.430    41908.455    25773.830     3897.483       11.192        3.579      390.047       66.775        0.029      347.919       27.233      857.864
08/22/2014  17:07:00     -244.796     -141.633       -3.695      129.994      150.368       72.039    16898.476    22610.564     5189.681        6.234        2.235      282.816       55.884        0.039      347.884       27.173      857.908
08/22/2014  17:08:00     -435.910     -154.415      -21.571      216.916      164.173       81.112    47052.723    26952.659     6579.172       14.744        4.029      462.452       95.684        0.043      347.831       27.081      857.906
08/22/2014  17:09:00     -387.042      -94.670      -16.354      217.297      145.881       89.794    47218.024    21281.248     8062.978       11.778        3.828      398.452      103.163        0.067      347.594       26.672      857.910
08/22/2014  17:10:00     -205.712     -191.394       15.090      148.058      153.238       83.803    21921.118    23481.818     7023.001        6.579        2.621      280.979       79.635        0.080      347.621       26.719      857.907
08/22/2014  17:11:00     -444.634     -298.183      -20.709      145.752      122.369       78.569    21243.625    14974.079     6173.054       16.471        2.120      535.362       70.286        0.017      347.532       26.565      857.907
08/22/2014  17:12:00     -264.057     -178.630        4.210      197.039      130.043       64.840    38824.414    16911.188     4204.255        8.078        2.997      318.802       67.318        0.045      347.601       26.686      857.907
08/22/2014  17:13:00     -142.297     -128.132       24.444      110.794      104.333       59.570    12275.207    10885.331     3548.594        3.198        1.335      191.484       47.792        0.062      347.759       26.960      857.917
08/22/2014  17:14:00     -287.943     -138.219       -7.096      158.751      118.258       77.526    25201.972    13984.998     6010.333        7.362        2.260      319.399       74.099        0.054      347.796       27.020      857.926
08/22/2014  17:15:00     -232.154     -148.022       10.955      192.245      123.043       88.190    36958.130    15139.581     7777.455        6.789        2.994      275.328       90.226        0.107      347.802       27.032      857.922
08/22/2014  17:16:00     -448.226     -303.950       -3.691      274.304      195.558      104.925    75242.683    38242.816    11009.282       20.888        6.225      541.564      132.619        0.060      347.513       26.532      857.963
08/22/2014  17:17:00     -507.321     -304.128      -27.047      189.159      150.290       79.801    35781.063    22587.069     6368.195       20.766        3.237      591.496       70.658        0.014      347.356       26.263      857.978
08/22/2014  17:18:00     -394.110     -241.679       -8.340      201.565      159.472       84.022    40628.419    25431.272     7059.632       14.345        3.656      462.311       90.041        0.038      347.475       26.468      857.964
08/22/2014  17:19:00     -177.425      -55.391       13.445      168.511      133.929       78.110    28395.968    17936.999     6101.216        4.357        2.622      185.870       93.175        0.251      347.699       26.855      857.973
08/22/2014  17:20:00     -356.003     -176.532       -6.579      183.840      126.935       75.267    33797.298    16112.605     5665.080       10.675        2.779      397.368       74.738        0.035      347.745       26.932      857.981
08/22/2014  17:21:00     -435.731     -167.673       -6.409      248.032      215.780      100.938    61519.959    46560.958    10188.400       16.812        5.913      466.879      110.153        0.056      347.487       26.488      857.966
08/22/2014  17:22:00     -246.728     -110.619       -7.269      150.761      125.355       70.381    22728.743    15713.887     4953.452        5.827        2.170      270.391       65.646        0.059      347.625       26.727      858.001
08/22/2014  17:23:00     -320.116      -20.555       -4.785      170.295      147.455       75.010    29000.245    21743.110     5626.456        7.963        2.818      320.775       79.556        0.062      347.477       26.471      858.011
08/22/2014  17:24:00     -171.543      -77.635       -7.071       78.479       89.380       44.163     6158.929     7988.848     1950.350        2.580        0.805      188.293       37.727        0.040      347.797       27.025      858.026
08/22/2014  17:25:00     -314.645     -167.691       -6.469      136.488      159.529       72.355    18628.850    25449.490     5235.228        8.823        2.466      356.541       70.916        0.040      347.696       26.848      858.043
08/22/2014  17:26:00     -272.514      -91.305       10.453      200.221      143.590       74.022    40088.494    20618.189     5479.267        7.443        3.309      287.403       88.197        0.094      347.748       26.938      858.092
08/22/2014  17:27:00     -343.040     -120.413      -14.161      197.423      120.896       69.039    38975.700    14615.936     4766.338        9.536        2.918      363.560       72.295        0.040      347.647       26.764      858.058
08/22/2014  17:28:00     -192.587     -180.488       -5.830      144.917      114.756       70.523    21000.972    13168.833     4973.532        5.441        1.957      263.943       54.670        0.043      347.721       26.893      858.061
08/22/2014  17:29:00     -313.812     -194.552      -13.570      156.266      109.213       70.105    24419.111    11927.576     4914.763        8.888        2.063      369.226       77.584        0.044      347.732       26.911      858.084
08/22/2014  17:30:00     -272.878     -217.632      -16.416      208.726      170.872       80.978    43566.706    29197.227     6557.422       10.069        3.966      349.036       87.873        0.063      347.724       26.898      858.083
08/22/2014  17:31:00     -132.434     -119.215       25.939      166.500      115.261       64.453    27722.272    13285.015     4154.183        3.878        2.258      178.188       85.336        0.229      347.914       27.227      858.111
08/22/2014  17:32:00     -311.654     -193.146       23.909      278.488      145.019       94.924    77555.686    21030.579     9010.623       12.128        5.380      366.652       98.438        0.072      347.652       26.773      858.114
08/22/2014  17:33:00     -284.026     -150.802       27.301      223.781      204.157       92.412    50077.840    41679.911     8540.019       10.221        5.015      321.578      108.351        0.114      347.565       26.624      858.130
08/22/2014  17:34:00     -368.961     -260.746      -10.699      194.201      137.729       82.782    37714.141    18969.319     6852.889       13.387        3.177      451.797       92.846        0.042      347.535       26.571      858.139
08/22/2014  17:35:00     -251.992     -168.250        2.666      164.800      145.013       70.509    27159.064    21028.891     4971.489        7.248        2.658      302.999       75.777        0.063      347.732       26.913      858.168
08/22/2014  17:36:00     -216.437     -208.673       15.712      176.116      144.233       75.020    31016.743    20803.125     5627.928        7.403        2.872      300.649       90.638        0.091      347.600       26.684      858.168
08/22/2014  17:37:00     -470.244     -315.011      -13.991      189.782      218.657      103.206    36017.359    47811.091    10651.411       20.750        4.724      566.005      101.082        0.032      347.351       26.253      858.153
08/22/2014  17:38:00     -258.778     -122.038        4.600      184.596      148.694       76.560    34075.559    22109.858     5861.393        7.195        3.102      286.111       81.677        0.081      347.473       26.464      858.173
08/22/2014  17:39:00     -357.031     -231.834      -13.776      212.475      125.236       79.620    45145.432    15683.945     6339.416       12.427        3.358      425.697       88.240        0.043      347.425       26.381      858.165
08/22/2014  17:40:00     -249.437      -97.874       13.367      192.758      115.183       97.280    37155.523    13267.233     9463.356        6.592        2.994      267.952      112.280        0.176      347.476       26.469      858.164
08/22/2014  17:41:00     -325.574     -170.252        0.314      184.605      105.656       73.197    34078.989    11163.202     5357.769        9.278        2.530      367.402       69.234        0.036      347.535       26.570      858.202
08/22/2014  17:42:00     -520.596     -407.193      -19.309      241.981      228.202      112.945    58554.839    52076.096    12756.656       28.027        6.169      660.929      132.449        0.040      347.297       26.162      858.207
08/22/2014  17:43:00     -386.796     -269.439       -2.230      216.279      174.842      109.497    46776.435    30569.732    11989.530       15.576        4.467      471.390      111.176        0.056      347.378       26.301      858.229
08/22/2014  17:44:00     -296.618     -168.740        1.418      179.425      173.990      104.224    32193.185    30272.392    10862.633        9.488        3.666      341.255      105.881        0.096      347.470       26.459      858.262
08/22/2014  17:45:00     -351.041     -126.922      -17.851      100.878      114.294       66.953    10176.284    13063.098     4482.646        8.368        1.386      373.281       58.625        0.025      347.153       25.912      858.266
08/22/2014  17:46:00     -319.282      -97.873      -13.751      192.150      118.154       56.319    36921.719    13960.334     3171.821        8.287        2.703      333.947       69.473        0.043      347.354       26.259      858.259
08/22/2014  17:47:00     -271.741     -136.649       11.203      185.220      117.847       83.777    34306.604    13887.952     7018.619        7.392        2.761      304.164       88.591        0.085      347.350       26.250      858.236
08/22/2014  17:48:00     -272.407     -198.904       -3.060      269.295      149.714       81.529    72519.576    22414.267     6646.933       10.766        5.079      337.296       84.063        0.062      347.433       26.395      858.251
08/22/2014  17:49:00     -405.458     -254.384       -2.268      233.012      183.834      100.972    54294.451    33795.036    10195.294       16.368        4.914      478.652      115.142        0.058      347.307       26.179      858.222
08/22/2014  17:50:00     -421.124     -324.034      -19.127      188.122      168.039       94.823    35389.794    28237.119     8991.390       17.765        3.631      531.360       90.985        0.029      347.328       26.214      858.248
08/22/2014  17:51:00     -322.122     -236.332        0.100      229.897      157.767       80.636    52852.466    24890.358     6502.168       12.191        4.212      399.519       99.901        0.063      347.392       26.324      858.266
08/22/2014  17:52:00     -533.279     -419.378       -8.324      251.383      171.921      109.533    63193.378    29556.682    11997.559       28.252        5.237      678.428      111.421        0.027      347.199       25.992      858.240
08/22/2014  17:53:00     -408.365     -217.690       -0.509      222.992      147.713       89.765    49725.231    21819.232     8057.699       14.686        3.980      462.764       88.088        0.036      347.205       26.002      858.254
08/22/2014  17:54:00     -437.720     -231.689      -12.924      236.106      204.895       91.288    55745.930    41981.931     8333.434       17.573        5.303      495.256       91.179        0.034      347.299       26.163      858.291
08/22/2014  17:55:00     -397.839     -332.838       -9.510      265.678      203.792      114.097    70584.921    41531.355    13018.134       19.712        6.257      518.707      124.357        0.057      347.050       25.736      858.278
08/22/2014  17:56:00     -202.249     -135.278       10.851      157.160      114.444       69.008    24699.280    13097.480     4762.149        5.093        2.128      243.321       67.559        0.077      347.141       25.893      858.253
08/22/2014  17:57:00     -450.320     -252.352      -31.463      193.939      165.438       84.254    37612.526    27369.879     7098.748       16.976        3.604      516.207       82.477        0.026      347.098       25.817      858.242
08/22/2014  17:58:00     -380.826     -150.235       -8.424      228.300      161.546       98.471    52120.894    26097.129     9696.493       12.777        4.396      409.388       99.090        0.059      347.180       25.960      858.232
08/22/2014  17:59:00     -451.690     -336.793      -20.083      243.875      173.455      102.176    59475.176    30086.536    10439.916       20.891        5.000      563.430      120.047        0.045      347.142       25.894      858.215
08/22/2014  18:00:00     -479.917     -271.456      -14.686      211.373      203.190       90.228    44678.707    41286.090     8141.060       19.915        4.705      551.370      101.453        0.034      347.116       25.849      858.213
08/22/2014  18:01:00     -438.109     -274.870      -15.320      229.776      156.684       98.478    52797.131    24549.910     9697.876       17.737        4.352      517.197      119.164        0.053      347.163       25.931      858.218
08/22/2014  18:02:00     -520.616     -337.864      -32.590      271.083      214.432      116.306    73486.019    45980.944    13527.058       25.960        6.650      620.639      131.951        0.045      347.037       25.712      858.218
08/22/2014  18:03:00     -469.696     -325.402      -19.994      226.210      206.372      123.144    51170.762    42589.274    15164.377       21.789        5.446      571.403      120.833        0.045      347.079       25.785      858.229
08/22/2014  18:04:00     -419.058     -305.843        2.324      217.531      190.390      126.228    47319.604    36248.459    15933.566       18.431        4.975      518.796      119.767        0.053      347.106       25.831      858.225
08/22/2014  18:05:00     -303.780     -248.919        9.297      252.670      172.574       90.321    63842.152    29781.646     8157.953       12.804        5.089      392.738      106.612        0.074      347.109       25.836      858.217
08/22/2014  18:06:00     -270.318     -190.956       16.066      186.157      149.447       88.526    34654.590    22334.295     7836.921        8.730        3.241      330.962       94.677        0.082      347.154       25.914      858.221
08/22/2014  18:07:00     -438.531     -291.522      -11.850      248.819      164.141       95.150    61910.711    26942.134     9053.519       18.765        4.895      526.587      119.425        0.051      347.058       25.749      858.183
08/22/2014  18:08:00     -425.515     -165.449      -11.208      230.837      146.092       86.874    53285.671    21342.877     7547.024       14.535        4.109      456.548       96.858        0.045      347.042       25.722      858.195
08/22/2014  18:09:00     -428.670     -191.203      -11.354      181.188      163.155       88.247    32829.146    26619.679     7787.490       14.383        3.362      469.379       83.072        0.031      347.085       25.795      858.240
08/22/2014  18:10:00     -372.276     -125.130      -21.906      178.427      160.311       67.105    31836.048    25699.726     4503.131       10.837        3.102      392.743       73.121        0.035      347.124       25.863      858.244
08/22/2014  18:11:00     -480.602     -267.264      -26.022      218.425      162.056       91.701    47709.616    26262.215     8409.066       19.272        4.119      549.917      107.992        0.039      347.074       25.777      858.287
08/22/2014  18:12:00     -217.125     -120.823       -2.236      197.804      136.112       74.403    39126.602    18526.514     5535.816        6.246        3.159      248.478       77.853        0.098      347.188       25.973      858.293
08/22/2014  18:13:00     -326.133     -104.418      -15.888      274.599      209.420      105.886    75404.346    43856.944    11211.925       12.397        6.524      342.441      120.343        0.124      347.080       25.787      858.283
08/22/2014  18:14:00     -488.614     -228.693        4.839      301.628      208.924      116.602    90979.543    43649.388    13596.086       21.962        7.411      539.485      138.125        0.066      347.023       25.688      858.310
08/22/2014  18:15:00     -448.303     -212.715       -3.740      261.194      164.794       93.992    68222.548    27156.915     8834.552       17.521        5.211      496.209      115.133        0.054      346.969       25.597      858.332
08/22/2014  18:16:00     -371.964     -181.590       19.764      259.540      202.511      112.040    67360.893    41010.817    12553.068       14.630        6.046      413.923      138.499        0.112      347.024       25.691      858.348
08/22/2014  18:17:00     -395.545     -237.917      -14.326      185.097      161.012       86.388    34260.972    25924.970     7462.923       14.044        3.382      461.585       93.185        0.041      347.009       25.665      858.385
08/22/2014  18:18:00     -352.402     -272.637       -5.712      197.207      185.652      111.790    38890.681    34466.572    12497.052       14.219        4.293      445.554      121.365        0.074      346.993       25.636      858.394
08/22/2014  18:19:00     -290.838     -185.542        7.921      168.591      119.963       82.533    28423.014    14391.240     6811.662        8.434        2.481      344.982       83.965        0.059      347.031       25.702      858.417
08/22/2014  18:20:00     -334.743     -130.661       11.280      224.897      123.985       82.773    50578.711    15372.347     6851.349       10.101        3.640      359.340       96.071        0.071      347.011       25.668      858.429
08/22/2014  18:21:00     -325.542     -231.416        3.742      206.594      177.357       87.926    42680.924    31455.373     7731.000       12.069        4.093      399.413       98.701        0.061      346.924       25.518      858.416
08/22/2014  18:22:00     -201.746     -199.035       20.220      167.321      160.281       84.710    27996.434    25690.034     7175.852        7.078        3.043      283.402       93.174        0.108      346.938       25.543      858.415
08/22/2014  18:23:00     -256.231     -162.570        3.587      152.228      116.230       65.250    23173.466    13509.528     4257.508        6.651        2.047      303.452       78.187        0.066      346.989       25.630      858.445
08/22/2014  18:24:00     -215.571     -152.631       11.646      126.365       96.684       59.617    15968.134     9347.815     3554.204        4.938        1.444      264.135       61.108        0.054      346.988       25.629      858.469
08/22/2014  18:25:00     -259.613     -121.152       -8.615      125.946      103.382       59.699    15862.384    10687.817     3563.943        5.613        1.506      286.490       66.060        0.053      346.988       25.629      858.474
08/22/2014  18:26:00     -276.571     -118.329      -11.042      214.771      133.463       72.868    46126.465    17812.321     5309.720        7.992        3.462      300.821       91.404        0.092      347.068       25.765      858.470
08/22/2014  18:27:00     -360.002     -179.748       -6.708      195.521      104.812       75.691    38228.521    10985.542     5729.200       10.844        2.747      402.382       88.878        0.049      346.920       25.511      858.473
08/22/2014  18:28:00     -367.143     -213.824      -16.175      199.391      170.464       99.431    39756.874    29057.974     9886.529       12.972        3.935      424.870      102.383        0.058      346.912       25.498      858.462
08/22/2014  18:29:00     -308.366     -196.424       16.677      200.618      161.911       84.873    40247.596    26215.214     7203.408       10.379        3.683      365.612       93.569        0.065      346.926       25.523      858.478
08/22/2014  18:30:00     -469.108     -272.975      -13.913      247.783      178.045       84.498    61396.443    31699.873     7139.855       19.748        5.012      542.750      108.174        0.040      346.857       25.403      858.487
08/22/2014  18:31:00     -372.771     -311.245       -8.158      205.067      166.678       96.469    42052.531    27781.527     9306.310       15.750        3.957      485.625      105.096        0.047      346.858       25.404      858.478
08/22/2014  18:32:00     -419.729     -117.353       -5.171      172.210      160.703       94.474    29656.399    25825.516     8925.351       12.718        3.220      435.825      101.518        0.054      346.863       25.415      858.500
08/22/2014  18:33:00     -326.636     -199.027      -16.040      194.342      124.599       86.632    37768.702    15524.850     7505.090       10.367        3.040      382.496      102.740        0.072      346.823       25.345      858.497
08/22/2014  18:34:00     -262.855     -153.898        5.169      200.818      152.533       88.669    40327.969    23266.256     7862.120        8.212        3.573      304.594       86.578        0.081      346.849       25.389      858.519
08/22/2014  18:35:00     -353.133     -228.231        6.096      183.539      194.269       90.112    33686.747    37740.352     8120.124       12.817        3.977      420.467       90.873        0.047      346.801       25.308      858.504
08/22/2014  18:36:00     -431.809     -342.828      -19.266      226.522      207.362      118.975    51311.994    42999.120    14155.016       20.639        5.423      551.353      120.574        0.048      346.713       25.154      858.483
08/22/2014  18:37:00     -392.024     -251.168       -4.594      218.487      141.206       96.040    47736.708    19939.108     9223.690       14.683        3.845      465.584       95.695        0.042      346.730       25.183      858.505
08/22/2014  18:38:00     -385.309     -375.047       -8.513      235.049      202.834      109.324    55248.040    41141.452    11951.683       19.875        5.417      537.701      122.530        0.052      346.717       25.160      858.523
08/22/2014  18:39:00     -500.358     -262.327      -28.592      233.983      168.840       91.568    54748.033    28506.900     8384.763       20.580        4.582      564.955       91.376        0.026      346.692       25.118      858.527
08/22/2014  18:40:00     -527.662     -273.205       -3.787      281.573      190.973      113.299    79283.508    36470.809    12836.606       24.081        6.430      594.196      131.106        0.049      346.663       25.068      858.533
08/22/2014  18:41:00     -359.659     -200.039       -5.092      159.823      185.217       83.095    25543.263    34305.503     6904.829       11.806        3.338      411.546       76.760        0.035      346.698       25.128      858.561
08/22/2014  18:42:00     -494.498     -325.341      -21.108      238.932      185.945      110.802    57088.304    34575.385    12277.084       22.736        5.197      591.925      113.061        0.036      346.625       25.003      858.549
08/22/2014  18:43:00     -369.502     -112.515        3.961      172.881      113.050       88.455    29887.882    12780.275     7824.314        9.984        2.525      386.252       97.237        0.063      346.682       25.102      858.561
08/22/2014  18:44:00     -358.687     -161.901      -25.358      184.190      152.936       86.464    33925.969    23389.348     7476.027       11.014        3.240      393.533       81.725        0.043      346.715       25.158      858.586
08/22/2014  18:45:00     -413.968     -224.409       -3.769      240.671      177.702      103.155    57922.374    31577.864    10640.953       16.092        5.007      470.882      128.104        0.074      346.629       25.010      858.585
08/22/2014  18:46:00     -332.233     -137.380       -5.924      186.942      146.766       65.357    34947.368    21540.157     4271.513        9.501        3.038      359.516       71.063        0.039      346.706       25.142      858.608
08/22/2014  18:47:00     -359.107     -161.943       10.337      200.450      224.580       97.523    40180.159    50436.094     9510.642       12.769        5.006      393.933      124.209        0.099      346.621       24.997      858.587
08/22/2014  18:48:00     -458.282     -146.529      -18.258      278.277      156.735       93.510    77438.184    24565.917     8744.104       17.127        5.537      481.138      120.965        0.063      346.626       25.005      858.598
08/22/2014  18:49:00     -368.445     -260.586       -0.510      263.380      177.206       91.455    69369.287    31402.117     8364.088       15.637        5.457      451.284      106.145        0.055      346.585       24.935      858.592
08/22/2014  18:50:00     -402.186     -164.641      -10.245      161.701      154.168       81.218    26147.239    23767.876     6596.350       12.273        2.826      434.580       79.368        0.033      346.550       24.875      858.595
08/22/2014  18:51:00     -431.884     -255.887      -13.751      241.061      169.626       93.391    58110.251    28772.956     8721.894       17.388        4.780      501.998      118.541        0.056      346.505       24.798      858.592
08/22/2014  18:52:00     -408.489     -249.360      -12.655      217.909      224.831      107.108    47484.241    50548.846    11472.031       16.933        5.475      478.585      113.009        0.056      346.492       24.775      858.605
08/22/2014  18:53:00     -372.100     -268.729        7.582      242.837      188.814      111.892    58969.895    35650.667    12519.869       15.891        5.357      458.992      120.441        0.069      346.438       24.681      858.595
08/22/2014  18:54:00     -431.028     -273.779      -32.302      248.138      204.119       99.175    61572.484    41664.419     9835.678       18.741        5.654      510.627      109.043        0.046      346.444       24.693      858.620
08/22/2014  18:55:00     -387.170     -252.041      -11.535      211.909      202.156       98.533    44905.471    40866.929     9708.732       15.450        4.774      461.980       91.087        0.039      346.451       24.704      858.596
08/22/2014  18:56:00     -410.157     -262.052      -18.021      194.999      154.482       95.702    38024.710    23864.818     9158.796       15.412        3.552      486.724       83.686        0.030      346.431       24.669      858.638
08/22/2014  18:57:00     -391.139     -236.603       -7.232      255.918      216.352      109.912    65494.137    46808.289    12080.666       16.668        6.219      457.134      128.020        0.078      346.446       24.696      858.649
08/22/2014  18:58:00     -457.427     -230.670       -7.903      235.917      215.559      108.875    55656.603    46465.703    11853.795       18.822        5.699      512.296      103.189        0.041      346.403       24.622      858.658
08/22/2014  18:59:00     -323.066     -206.788      -17.583      232.392      165.563       88.190    54006.001    27410.979     7777.426       11.830        4.460      383.579      103.062        0.072      346.421       24.654      858.685
08/22/2014  19:00:00     -373.305     -141.813      -25.836      182.419      131.209       76.402    33276.587    17215.842     5837.286       10.822        2.816      399.334       79.263        0.039      346.397       24.612      858.701
08/22/2014  19:01:00     -556.097     -219.716      -20.284      250.591      177.464       98.212    62795.803    31493.550     9645.581       23.091        5.197      597.929      100.726        0.028      346.365       24.556      858.688
08/22/2014  19:02:00     -377.085     -210.092      -15.938      215.583      177.892       93.596    46476.233    31645.412     8760.174       13.672        4.344      431.661      103.156        0.057      346.342       24.516      858.714
08/22/2014  19:03:00     -488.283     -189.788      -18.425      230.923      145.771       84.467    53325.557    21249.215     7134.602       17.823        4.085      523.870       75.931        0.021      346.294       24.435      858.732
08/22/2014  19:04:00     -283.588      -76.649       -2.903      212.070      158.197       82.787    44973.688    25026.166     6853.662        8.156        3.843      293.764      101.676        0.120      346.331       24.498      858.733
08/22/2014  19:05:00     -328.014     -121.189       -9.924      159.217      154.536       73.253    25349.998    23881.499     5365.953        8.848        2.730      349.686       70.967        0.041      346.333       24.502      858.747
08/22/2014  19:06:00     -348.321     -214.339       -4.297      258.787      154.941      106.362    66970.642    24006.628    11312.831       13.477        5.115      408.985      136.132        0.111      346.305       24.453      858.745
08/22/2014  19:07:00     -378.915     -178.149      -15.875      255.267      154.105      100.938    65161.099    23748.383    10188.504       13.731        4.955      418.705      131.314        0.098      346.281       24.410      858.777
08/22/2014  19:08:00     -290.454     -221.885        7.229      234.338      164.315      109.125    54914.478    26999.336    11908.184       11.372        4.691      365.508      121.702        0.111      346.265       24.384      858.780
08/22/2014  19:09:00     -229.854     -159.150        9.976      171.281      134.210       90.251    29337.178    18012.399     8145.304        6.687        2.775      279.574       96.376        0.119      346.245       24.350      858.788
08/22/2014  19:10:00     -185.739     -161.223        4.923      160.815      124.168       79.518    25861.456    15417.671     6323.083        5.405        2.380      245.951       87.737        0.127      346.259       24.374      858.813
08/22/2014  19:11:00     -241.818      -80.232       -6.943      169.257      104.225       60.846    28647.819    10862.865     3702.232        5.408        2.161      254.780       69.154        0.074      346.263       24.382      858.824
08/22/2014  19:12:00     -283.334     -209.734       -6.203      160.502      132.611       79.276    25760.820    17585.735     6284.683        8.696        2.482      352.514       86.674        0.060      346.238       24.337      858.854
08/22/2014  19:13:00     -353.833     -124.342      -16.948      232.781      128.773       81.458    54187.227    16582.567     6635.464       10.916        3.870      375.045      113.213        0.091      346.202       24.276      858.876
08/22/2014  19:14:00     -255.837     -226.664       -3.932      185.028      142.297       95.665    34235.374    20248.540     9151.864        9.023        3.182      341.803       88.385        0.067      346.177       24.234      858.888
08/22/2014  19:15:00     -194.958     -108.601       12.858      176.326      125.809       78.516    31091.003    15827.900     6164.797        5.152        2.654      223.166       91.915        0.170      346.199       24.271      858.894
08/22/2014  19:16:00     -220.470     -144.734        5.204      128.088      134.709       65.075    16406.551    18146.502     4234.698        5.418        1.939      263.732       51.479        0.038      346.185       24.248      858.924
08/22/2014  19:17:00     -259.608     -126.151      -13.329      155.209      107.127       69.159    24089.722    11476.278     4782.968        6.191        2.017      288.636       83.655        0.084      346.155       24.197      858.927
08/22/2014  19:18:00     -209.640     -128.420       16.711      162.089      130.131       80.176    26272.921    16934.201     6428.230        5.517        2.482      245.846       86.934        0.125      346.176       24.232      858.961
08/22/2014  19:19:00     -232.182     -141.154        4.224      155.686      104.012       64.862    24238.205    10818.585     4207.042        5.655        1.963      271.722       77.072        0.080      346.153       24.191      858.968
08/22/2014  19:20:00     -302.297     -119.209       -5.563      113.970      127.146       72.318    12989.112    16166.031     5229.964        7.000        1.719      324.953       65.740        0.041      346.138       24.166      859.007
08/22/2014  19:21:00     -310.021     -202.102        1.231      166.302      122.052       78.603    27656.487    14896.698     6178.378        9.284        2.437      370.079       81.453        0.048      346.109       24.115      859.028
08/22/2014  19:22:00     -323.488     -114.991       -9.141      140.244      132.187       69.976    19668.445    17473.370     4896.672        7.999        2.102      343.318       75.480        0.048      346.091       24.085      859.059
08/22/2014  19:23:00     -382.545     -230.627      -23.399      187.955      139.774       84.426    35327.061    19536.811     7127.810       13.102        3.100      446.687       79.968        0.032      346.063       24.039      859.056
08/22/2014  19:24:00     -438.667     -168.034      -14.221      233.414      179.493       83.522    54482.143    32217.890     6975.860       15.725        4.684      469.749       99.480        0.045      346.024       23.970      859.054
08/22/2014  19:25:00     -302.127     -117.834       10.173      209.306      149.974       72.254    43808.993    22492.085     5220.611        8.838        3.576      324.292       76.136        0.055      346.017       23.959      859.090
08/22/2014  19:26:00     -318.599     -224.588      -13.494      155.395      110.306       64.021    24147.616    12167.422     4098.686        9.626        2.021      389.802       65.263        0.028      346.011       23.949      859.070
08/22/2014  19:27:00     -257.153     -101.866        4.093      120.551      136.963       65.794    14532.650    18758.730     4328.822        5.706        1.881      276.594       62.158        0.051      345.985       23.906      859.084
08/22/2014  19:28:00     -182.973     -164.545        7.477      161.315      129.123       61.890    26022.532    16672.697     3830.397        5.356        2.326      246.078       65.004        0.070      345.983       23.903      859.107
08/22/2014  19:29:00     -279.277     -163.629       -3.486      191.156      143.845       79.612    36540.435    20691.339     6338.138        8.416        3.178      323.682       87.587        0.073      345.928       23.806      859.126
08/22/2014  19:30:00     -360.045     -167.451       -7.376      210.444      159.060      101.333    44286.834    25299.950    10268.288       11.878        3.993      397.080      112.762        0.081      345.893       23.745      859.121
08/22/2014  19:31:00     -302.190     -150.535       10.256      210.720      128.090       78.474    44403.047    16407.090     6158.220        9.051        3.348      337.609       98.934        0.086      345.852       23.676      859.147
08/22/2014  19:32:00     -279.929     -218.138        9.724      169.453      161.180       85.175    28714.230    25978.903     7254.804        9.398        3.097      354.887       92.568        0.068      345.848       23.670      859.160
08/22/2014  19:33:00     -302.907     -185.092        6.748      188.725      191.716       95.795    35617.030    36755.169     9176.694       10.379        4.077      354.981       97.437        0.075      345.819       23.619      859.180
08/22/2014  19:34:00     -373.885     -265.049      -13.101      224.123      197.780       98.502    50231.209    39116.973     9702.635       15.461        4.953      458.302      119.069        0.067      345.826       23.631      859.183
08/22/2014  19:35:00     -433.798     -184.320        2.831      234.161      183.451      104.150    54831.254    33654.383    10847.283       16.073        4.967      471.333      125.693        0.071      345.767       23.531      859.173
08/22/2014  19:36:00     -343.642     -216.824       -3.396      189.087      188.803       95.803    35753.720    35646.483     9178.184       12.283        4.029      406.328      105.420        0.067      345.770       23.535      859.190
08/22/2014  19:37:00     -319.095     -225.082       -5.980      184.095      177.813       99.337    33890.906    31617.480     9867.798       11.393        3.769      390.491      111.487        0.082      345.763       23.524      859.213
08/22/2014  19:38:00     -436.611     -296.114        1.574      267.391      196.726      126.398    71498.029    38700.951    15976.371       20.222        6.309      527.554      136.489        0.067      345.722       23.453      859.181
08/22/2014  19:39:00     -355.793     -145.055       -5.656      199.736      127.277       72.790    39894.316    16199.312     5298.348       10.451        3.070      384.226       85.693        0.050      345.731       23.467      859.219
08/22/2014  19:40:00     -303.204     -144.149        4.076      183.290      166.624       81.987    33595.333    27763.625     6721.857        9.039        3.404      335.726       94.085        0.079      345.706       23.427      859.245
08/22/2014  19:41:00     -262.087     -216.149        5.279      200.655      178.459       73.708    40262.489    31847.496     5432.882        9.647        3.877      339.720       86.224        0.064      345.721       23.452      859.267
08/22/2014  19:42:00     -317.319     -170.568      -12.080      162.113      135.571       71.581    26280.613    18379.459     5123.861        8.985        2.489      360.257       68.197        0.036      345.693       23.403      859.270
08/22/2014  19:43:00     -224.436     -145.137       -7.593      143.202      125.040       79.991    20506.823    15634.889     6398.624        5.701        2.127      267.276       71.742        0.072      345.667       23.357      859.290
08/22/2014  19:44:00     -238.508      -65.296       13.937      182.784      104.861       67.798    33410.058    10995.837     4596.566        5.516        2.450      247.285       75.674        0.094      345.649       23.328      859.294
08/22/2014  19:45:00     -310.562     -254.450       -9.067      214.786      184.314       80.369    46133.055    33971.753     6459.213       12.390        4.328      401.489       99.585        0.062      345.645       23.319      859.312
08/22/2014  19:46:00     -329.127     -143.542      -24.794      141.381      101.729       77.506    19988.693    10348.813     6007.152        8.294        1.817      359.067       77.240        0.046      345.642       23.315      859.329
08/22/2014  19:47:00     -420.439     -159.575       -0.390      204.042      164.097       97.891    41633.114    26927.768     9582.673       14.017        3.907      449.704      112.233        0.062      345.600       23.244      859.324
08/22/2014  19:48:00     -119.462      -53.010       28.473      146.944      119.003       69.907    21592.426    14161.705     4886.958        2.926        2.032      130.695       79.577        0.371      345.593       23.231      859.351
08/22/2014  19:49:00     -229.865     -121.609        6.634      186.357      137.135       74.084    34728.754    18806.119     5488.506        6.334        2.951      260.051       70.000        0.072      345.578       23.205      859.377
08/22/2014  19:50:00     -239.740     -160.906        8.840      156.796      127.595       75.737    24585.032    16280.404     5736.051        6.501        2.330      288.732       75.955        0.069      345.565       23.181      859.394
08/22/2014  19:51:00     -283.374      -75.513       -6.701      154.298      142.775       73.052    23807.747    20384.751     5336.616        6.778        2.476      293.263       72.293        0.061      345.557       23.170      859.423
08/22/2014  19:52:00     -355.429        2.656       -6.530      150.723      131.071       63.550    22717.419    17179.605     4038.633        8.515        2.197      355.438       65.737        0.034      345.550       23.158      859.434
08/22/2014  19:53:00     -208.997     -192.977       -0.285      156.037      161.511       78.208    24347.409    26085.724     6116.545        6.872        2.827      284.464       85.478        0.090      345.535       23.131      859.473
08/22/2014  19:54:00     -338.942     -222.236       -3.288      228.810      149.169       97.309    52353.827    22251.439     9469.061       12.416        4.204      405.303      110.692        0.075      345.519       23.102      859.470
08/22/2014  19:55:00     -334.480     -134.865      -22.901      200.931      148.879       72.253    40373.250    22165.065     5220.565        9.916        3.388      360.646       81.833        0.051      345.522       23.108      859.504
08/22/2014  19:56:00     -274.538     -288.121       10.830      230.660      142.724       87.497    53203.940    20370.252     7655.801       11.985        4.061      397.976      104.361        0.069      345.518       23.102      859.487
08/22/2014  19:57:00     -365.488     -285.034      -21.650      168.950      168.084       84.102    28544.029    28252.101     7073.164       13.957        3.193      463.493       99.352        0.046      345.491       23.056      859.511
08/22/2014  19:58:00     -196.494     -148.403      -11.069       89.470       77.052       54.296     8004.947     5937.083     2948.005        3.882        0.845      246.238       40.106        0.027      345.500       23.068      859.538
08/22/2014  19:59:00     -209.347     -122.093       -7.158       78.194       81.221       47.682     6114.278     6596.909     2273.542        3.688        0.749      242.348       37.668        0.024      345.469       23.018      859.533
08/22/2014  20:00:00     -261.546       39.912        8.473      167.625      106.689       66.011    28098.117    11382.541     4357.475        5.695        2.192      264.574       58.272        0.049      345.421       22.935      859.552
08/22/2014  20:01:00     -198.779     -128.985       -6.666      201.945      107.821       46.959    40781.687    11625.281     2205.135        5.539        2.731      236.960       45.497        0.037      345.457       23.000      859.552
08/22/2014  20:02:00     -244.384      -71.274       -1.697      135.465      121.274       66.205    18350.679    14707.344     4383.087        5.112        1.872      254.565       70.144        0.076      345.381       22.866      859.557
08/22/2014  20:03:00     -342.330      -80.008        0.353      154.031      152.610       69.356    23725.599    23289.755     4810.253        8.770        2.591      351.555       56.700        0.026      345.380       22.865      859.553
08/22/2014  20:04:00     -349.930      -53.865       -8.868      174.975      115.651       75.312    30616.224    13375.111     5671.957        8.754        2.483      354.051       80.396        0.052      345.373       22.855      859.549
08/22/2014  20:05:00     -143.013      -38.388        0.634       95.643       58.089       45.306     9147.527     3374.312     2052.614        1.825        0.729      148.075       41.001        0.077      345.350       22.816      859.573
08/22/2014  20:06:00     -310.658      -88.819       -9.592       78.453      113.224       45.766     6154.927    12819.723     2094.519        6.277        1.053      323.105       40.057        0.015      345.352       22.816      859.550
08/22/2014  20:07:00     -255.638      -57.391       -2.043      124.467      111.986       61.169    15491.918    12540.769     3741.605        5.021        1.589      262.001       50.901        0.038      345.327       22.772      859.553
08/22/2014  20:08:00     -266.858     -172.315       -0.444      221.884      174.548       82.549    49232.730    30467.141     6814.326        9.369        4.326      317.657       96.757        0.093      345.321       22.765      859.565
08/22/2014  20:09:00     -421.000     -234.783      -20.892      209.442      135.913       78.279    43865.851    18472.413     6127.583       15.062        3.423      482.041       98.997        0.042      345.325       22.770      859.544
08/22/2014  20:10:00     -530.931     -189.352      -28.782      184.058      160.951       71.646    33877.442    25905.287     5133.170       19.173        3.246      563.686       66.788        0.014      345.308       22.740      859.568
08/22/2014  20:11:00     -238.044     -145.918       -2.185      158.494      141.417       87.525    25120.388    19998.792     7660.621        6.536        2.639      279.208       90.447        0.105      345.289       22.709      859.577
08/22/2014  20:12:00     -284.284      -47.056        5.024      133.092      125.811       54.848    17713.440    15828.393     3008.268        5.980        1.828      288.152       42.410        0.022      345.287       22.706      859.576
08/22/2014  20:13:00     -155.187     -103.446        1.119      181.077       87.604       57.257    32789.039     7674.506     3278.416        3.925        2.187      186.505       78.487        0.177      345.275       22.687      859.611
08/22/2014  20:14:00     -235.670      -92.285       -1.137      183.215       92.169       62.709    33567.829     8495.151     3932.442        5.502        2.300      253.095       91.758        0.131      345.256       22.653      859.624
08/22/2014  20:15:00     -313.827     -194.426      -18.598      200.246      135.827       88.686    40098.277    18448.843     7865.197       10.151        3.321      369.174       95.517        0.067      345.258       22.658      859.598
08/22/2014  20:16:00     -315.961     -193.153      -13.223      152.253      103.857       61.333    23180.952    10786.347     3761.705        8.751        1.886      370.323       68.835        0.035      345.249       22.642      859.587
08/22/2014  20:17:00     -330.674     -131.531       -3.117      161.615      144.249       75.382    26119.563    20807.812     5682.507        8.962        2.630      355.873       75.690        0.045      345.213       22.578      859.591
08/22/2014  20:18:00     -412.650     -285.357       -9.064      176.685      155.508       99.541    31217.510    24182.812     9908.479       15.854        3.265      501.706      101.708        0.041      345.215       22.583      859.574
08/22/2014  20:19:00     -289.410     -172.769       -3.435      179.484      115.860       85.126    32214.629    13423.593     7246.393        8.324        2.644      337.057       79.526        0.056      345.233       22.614      859.612
08/22/2014  20:20:00     -353.595     -221.399      -13.778      154.495      132.985       68.641    23868.646    17685.075     4711.546       11.024        2.313      417.189       67.299        0.026      345.215       22.582      859.616
08/22/2014  20:21:00     -382.740     -273.343      -20.106      167.689      128.215       87.482    28119.765    16439.206     7653.141       13.690        2.611      470.326       75.252        0.026      345.201       22.558      859.649
08/22/2014  20:22:00     -213.537     -133.988       -3.408      158.666      151.277       78.821    25174.908    22884.722     6212.790        5.891        2.714      252.093       76.995        0.093      345.188       22.537      859.685
08/22/2014  20:23:00     -241.999      -88.092       -5.932      150.044      103.630       62.385    22513.280    10739.204     3891.902        5.174        1.857      257.534       59.343        0.053      345.204       22.565      859.693
08/22/2014  20:24:00     -333.102     -205.306      -12.263      199.742      152.690       83.935    39896.764    23314.116     7045.082       11.174        3.513      391.289       98.203        0.063      345.177       22.516      859.690
08/22/2014  20:25:00     -363.417     -141.169      -33.644      140.900      153.544       67.308    19852.723    23575.896     4530.308       10.054        2.398      389.872       72.242        0.034      345.198       22.554      859.705
08/22/2014  20:26:00     -328.335     -200.920        2.295      211.450      169.176       87.006    44711.262    28620.574     7570.039       11.452        4.045      384.932      102.887        0.071      345.153       22.476      859.700
08/22/2014  20:27:00     -274.868     -256.966        2.826      206.962      160.075       95.640    42833.183    25624.074     9146.930       10.958        3.880      376.276      102.459        0.074      345.119       22.419      859.749
08/22/2014  20:28:00     -252.397      -89.385       -4.586      126.542      137.859       71.740    16012.887    19005.157     5146.641        5.593        2.008      267.757       68.173        0.065      345.084       22.359      859.786
08/22/2014  20:29:00     -290.455     -121.973       -8.918      161.394      155.867       79.606    26047.872    24294.677     6337.177        7.799        2.834      315.027       81.947        0.068      345.081       22.354      859.780
08/22/2014  20:30:00     -308.410     -148.941       -7.087      151.265      160.006       56.879    22881.103    25601.936     3235.252        8.452        2.586      342.491       60.034        0.031      345.049       22.300      859.768
08/22/2014  20:31:00     -260.437      -94.742       10.404      149.238      113.667       62.592    22271.909    12920.273     3917.769        5.800        1.955      277.134       73.981        0.071      345.030       22.268      859.747
08/22/2014  20:32:00     -298.765      -99.655       -7.464      196.334      113.754       69.361    38546.872    12940.047     4810.924        7.776        2.815      314.947       89.861        0.081      345.032       22.271      859.755
08/22/2014  20:33:00     -426.037     -208.790      -16.402      166.945      117.821       71.931    27870.694    13881.722     5174.014       13.614        2.346      474.448       59.194        0.016      345.000       22.215      859.758
08/22/2014  20:34:00     -361.034     -125.997       -9.684      189.149      156.147       92.473    35777.321    24382.014     8551.255       10.750        3.436      382.388       89.370        0.055      344.982       22.184      859.778
08/22/2014  20:35:00     -266.222      -39.571      -12.351      132.783      124.534       60.148    17631.200    15508.732     3617.828        5.467        1.838      269.147       50.780        0.036      344.932       22.099      859.775
08/22/2014  20:36:00     -246.691     -141.654       -3.219      134.823      126.192       79.518    18177.256    15924.342     6323.059        6.067        2.021      284.469       82.078        0.083      344.959       22.145      859.767
08/22/2014  20:37:00     -385.615     -191.345      -17.686      209.723      143.108       82.437    43983.555    20479.773     6795.871       12.843        3.563      430.479       99.302        0.053      344.980       22.181      859.751
08/22/2014  20:38:00     -222.402     -143.940        3.843      158.119      101.103       72.768    25001.639    10221.894     5295.188        5.535        2.026      264.918       85.247        0.104      344.971       22.166      859.756
08/22/2014  20:39:00     -140.399      -73.436       11.162      125.007      119.004       54.429    15626.784    14161.894     2962.551        2.898        1.638      158.445       51.121        0.104      344.940       22.114      859.749
08/22/2014  20:40:00     -379.544     -256.516       -4.975      210.199      160.761       85.376    44183.759    25844.086     7289.018       14.358        3.866      458.099       88.425        0.037      344.917       22.074      859.746
08/22/2014  20:41:00     -338.295     -181.002      -13.563      176.357      152.167       75.510    31101.957    23154.841     5701.701       10.366        2.998      383.673       78.037        0.041      344.901       22.046      859.767
08/22/2014  20:42:00     -222.444     -122.707        4.021      134.733      120.993       81.776    18153.104    14639.356     6687.312        5.201        1.974      254.044       77.751        0.094      344.878       22.006      859.800
08/22/2014  20:43:00     -368.582     -209.727      -19.545      189.422      152.752       90.842    35880.789    23333.230     8252.248       12.383        3.373      424.073       96.211        0.051      344.886       22.020      859.819
08/22/2014  20:44:00     -376.930     -203.519      -24.903      161.681      126.392       77.676    26140.833    15974.812     6033.551       11.612        2.407      428.365       83.608        0.038      344.868       21.989      859.851
08/22/2014  20:45:00     -300.159     -119.002      -13.427      150.237      112.360       66.855    22571.122    12624.720     4469.538        7.204        1.983      322.888       73.550        0.052      344.866       21.987      859.856
08/22/2014  20:46:00     -199.096     -101.898       -0.616      167.171      138.362       80.869    27946.271    19144.172     6539.722        5.182        2.682      223.657       83.613        0.140      344.878       22.007      859.851
08/22/2014  20:47:00     -279.704      -90.174       -6.970      131.177      118.273       51.949    17207.283    13988.549     2698.656        6.015        1.695      293.881       46.135        0.025      344.873       21.997      859.838
08/22/2014  20:48:00     -250.529      -50.060       -6.328      110.215       85.902       48.732    12147.287     7379.099     2374.815        4.360        1.095      255.482       45.200        0.031      344.840       21.941      859.817
08/22/2014  20:49:00     -152.680      -91.379        0.263      112.345      110.824       59.865    12621.444    12281.865     3583.851        3.007        1.424      177.936       66.082        0.138      344.811       21.892      859.826
08/22/2014  20:50:00     -287.717     -222.307       -8.777      140.865      142.474       80.566    19842.855    20298.704     6490.885        8.945        2.332      363.595       64.954        0.032      344.807       21.883      859.819
08/22/2014  20:51:00     -305.131     -168.899        2.154      198.238      160.369       97.109    39298.161    25718.152     9430.081        9.803        3.722      348.758      103.648        0.088      344.766       21.814      859.826
08/22/2014  20:52:00     -239.281     -202.923        5.656      221.399      198.947      110.474    49017.303    39579.786    12204.589        9.961        5.040      313.740      131.371        0.175      344.787       21.851      859.819
08/22/2014  20:53:00     -240.637     -209.055      -12.725      179.066      149.931       94.211    32064.771    22479.416     8875.708        8.258        3.171      318.764      108.076        0.115      344.768       21.818      859.847
08/22/2014  20:54:00     -315.514      -83.998       -9.552      170.801      110.368       77.058    29173.074    12181.187     5937.935        7.698        2.365      326.503       83.435        0.065      344.752       21.791      859.869
08/22/2014  20:55:00     -271.823     -156.328       -8.514      128.928      117.384       66.350    16622.363    13779.072     4402.296        6.659        1.740      313.570       65.923        0.044      344.766       21.812      859.883
08/22/2014  20:56:00     -220.085      -55.864      -18.805      122.745       92.233       53.467    15066.228     8507.006     2858.676        3.917        1.322      227.064       54.485        0.058      344.752       21.793      859.905
08/22/2014  20:57:00     -202.963      -73.136        2.735      163.382      132.958       70.715    26693.622    17677.781     5000.652        4.795        2.469      215.738       72.578        0.113      344.736       21.764      859.888
08/22/2014  20:58:00     -320.067      -76.254      -21.392      148.553       96.308       64.509    22067.847     9275.227     4161.384        7.210        1.775      329.025       67.988        0.043      344.698       21.699      859.885
08/22/2014  20:59:00     -207.829      -75.537       15.912      103.920      101.964       52.664    10799.290    10396.720     2773.545        3.656        1.198      221.131       52.899        0.057      344.680       21.667      859.942
08/22/2014  21:00:00     -350.320      -99.573      -18.259      156.829      130.054       75.415    24595.208    16913.938     5687.436        9.008        2.360      364.197       76.146        0.044      344.678       21.664      859.954
08/22/2014  21:01:00     -249.810     -205.100        1.950      176.589      134.420       90.431    31183.661    18068.774     8177.784        8.094        2.872      323.219       94.363        0.085      344.685       21.675      859.965
08/22/2014  21:02:00     -496.850     -142.022      -23.962      221.495      174.314       94.895    49060.029    30385.478     9004.987       17.801        4.423      516.750      101.458        0.039      344.732       21.755      859.976
08/22/2014  21:03:00     -406.202     -241.054      -11.548      202.697      129.162       82.816    41086.056    16682.809     6858.476       14.392        3.231      472.342       98.298        0.043      344.736       21.762      859.992
08/22/2014  21:04:00     -279.940     -109.071       16.994      239.648      133.080       76.093    57431.343    17710.280     5790.079        8.573        4.047      300.438       92.425        0.095      344.678       21.664      860.006
08/22/2014  21:05:00     -317.185     -205.885      -20.989      165.163      153.396       81.972    27278.810    23530.339     6719.431       10.047        2.876      378.147       85.850        0.052      344.720       21.736      860.015
08/22/2014  21:06:00     -314.984      -90.496      -14.399      174.434      153.756       81.205    30427.167    23640.817     6594.190        8.412        3.033      327.726       86.639        0.070      344.694       21.689      860.018
08/22/2014  21:07:00     -365.936     -101.550      -18.977      129.478       94.845       67.855    16764.626     8995.542     4604.234        8.747        1.518      379.765       64.920        0.029      344.683       21.671      860.035
08/22/2014  21:08:00     -400.483     -264.700      -10.871      282.140      188.383       93.938    79602.827    35488.289     8824.314       17.722        6.196      480.055      114.667        0.057      344.700       21.702      860.020
08/22/2014  21:09:00     -259.707     -120.363        2.782      224.160      158.844       96.495    50247.544    25231.273     9311.273        8.335        4.240      286.243       95.498        0.111      344.687       21.680      860.032
08/22/2014  21:10:00     -622.556     -291.764      -22.838      235.062      219.796      102.025    55254.254    48310.377    10409.075       29.358        5.699      687.533       96.806        0.020      344.715       21.727      860.048
08/22/2014  21:11:00     -497.776     -234.281       11.312      255.630      232.222      124.326    65346.793    53927.018    15457.074       21.874        6.737      550.153      124.105        0.051      344.708       21.716      860.068
08/22/2014  21:12:00     -437.476     -311.249        2.029      258.160      194.830      116.773    66646.356    37958.728    13635.818       20.323        5.912      536.900      136.242        0.064      344.716       21.727      860.098
08/22/2014  21:13:00     -311.477     -154.815      -20.083      186.027      142.164       73.377    34605.955    20210.480     5384.209        9.078        3.010      347.830       78.379        0.051      344.722       21.738      860.149
08/22/2014  21:14:00     -381.596      -50.421       -3.362      220.672      173.741       99.522    48695.992    30185.975     9904.635       11.846        4.439      384.913      122.741        0.102      344.676       21.658      860.126
08/22/2014  21:15:00     -442.549     -116.660      -10.935      164.331      182.501       78.463    27004.693    33306.761     6156.490       13.801        3.323      457.667       74.418        0.026      344.649       21.613      860.097
08/22/2014  21:16:00     -423.231      -30.358      -11.403      219.587      155.007       95.661    48218.291    24027.207     9150.982       13.077        4.070      424.318      114.124        0.072      344.641       21.599      860.109
08/22/2014  21:17:00     -525.835      -87.353      -25.565      180.749      218.235       84.701    32670.284    47626.732     7174.331       18.611        4.374      533.041       83.355        0.024      344.643       21.603      860.131
08/22/2014  21:18:00     -169.662     -165.531       -2.504      211.651      162.130       89.974    44796.003    26286.066     8095.394        6.767        3.959      237.035      101.904        0.185      344.646       21.610      860.155
08/22/2014  21:19:00     -332.636     -126.492       -1.308      224.191      157.034       89.720    50261.686    24659.650     8049.670       10.479        4.149      355.875       97.435        0.075      344.627       21.576      860.153
08/22/2014  21:20:00     -308.799      -62.871       16.289      274.125      162.664      102.110    75144.416    26459.436    10426.520       10.578        5.602      315.134      131.290        0.174      344.631       21.584      860.135
08/22/2014  21:21:00     -306.646     -110.686        0.097      200.093      164.309       85.122    40037.351    26997.516     7245.815        9.027        3.714      326.011      107.343        0.108      344.632       21.583      860.132
08/22/2014  21:22:00     -333.982     -241.613        4.612      285.097      195.720      110.164    81280.582    38306.468    12136.074       15.081        6.586      412.214      139.454        0.114      344.676       21.661      860.111
08/22/2014  21:23:00     -411.739     -274.789      -28.751      285.569      166.401      105.548    81549.743    27689.263    11140.301       18.310        6.019      495.013      128.402        0.067      344.671       21.651      860.145
08/22/2014  21:24:00     -474.863     -210.156      -13.984      262.946      185.034      117.885    69140.854    34237.586    13896.953       19.354        5.864      519.288      133.063        0.066      344.661       21.636      860.180
08/22/2014  21:25:00     -268.922     -122.555       -7.045      185.491      157.670       74.571    34406.839    24859.954     5560.893        7.610        3.241      295.531       79.964        0.073      344.678       21.664      860.213
08/22/2014  21:26:00     -257.867      -46.838        8.114      168.644      111.885       74.122    28440.816    12518.307     5494.097        5.759        2.323      262.087       76.540        0.085      344.623       21.570      860.228
08/22/2014  21:27:00     -436.092     -164.406      -17.193      278.588      219.203       93.283    77611.033    48049.843     8701.733       17.590        6.718      466.053      124.438        0.071      344.644       21.604      860.216
08/22/2014  21:28:00     -184.618      -85.334        6.670      132.809      152.060       70.010    17638.324    23122.345     4901.384        4.353        2.283      203.386       72.501        0.127      344.593       21.519      860.244
08/22/2014  21:29:00     -283.703      -94.655       -8.441      206.638      136.322       77.560    42699.108    18583.654     6015.516        7.839        3.365      299.077       99.919        0.112      344.604       21.537      860.229
08/22/2014  21:30:00     -377.961     -162.557      -11.089      164.935      158.776       96.801    27203.506    25209.843     9370.353       11.558        3.089      411.436       93.419        0.052      344.589       21.512      860.213
08/22/2014  21:31:00     -321.505      -76.368        5.506      189.841      141.754       84.744    36039.766    20094.132     7181.520        8.626        3.166      330.451       89.787        0.074      344.579       21.494      860.245
08/22/2014  21:32:00     -225.266     -142.641       30.025      240.696      184.104      125.595    57934.689    33894.130    15774.090        8.978        5.380      266.629      150.910        0.320      344.586       21.508      860.260
08/22/2014  21:33:00     -469.896     -170.949        1.185      269.997      196.284       82.052    72898.190    38527.382     6732.505       18.407        5.908      500.026       89.845        0.032      344.598       21.527      860.305
08/22/2014  21:34:00     -263.648     -216.857        6.324      216.236      159.984       93.311    46757.972    25594.841     8706.894        9.880        4.053      341.375      116.804        0.117      344.587       21.509      860.327
08/22/2014  21:35:00     -426.104     -196.309      -25.277      163.241      138.252       78.148    26647.527    19113.645     6107.085       13.629        2.593      469.150       76.062        0.026      344.618       21.561      860.382
08/22/2014  21:36:00     -335.642     -120.763      -15.314      208.594      169.847       90.060    43511.438    28848.154     8110.749       10.396        4.024      356.707      102.031        0.082      344.592       21.517      860.362
08/22/2014  21:37:00     -244.328      -70.185        2.839      159.239      122.581       72.662    25356.964    15026.111     5279.814        5.514        2.283      254.209       81.156        0.102      344.571       21.481      860.387
08/22/2014  21:38:00     -225.090     -178.224       -2.517      195.154      142.007       93.793    38085.193    20165.857     8797.133        7.473        3.352      287.105       88.433        0.095      344.548       21.442      860.420
08/22/2014  21:39:00     -261.543     -175.277        7.764      183.808      125.363       87.511    33785.542    15715.974     7658.114        7.816        2.858      314.845       98.818        0.099      344.529       21.408      860.428
08/22/2014  21:40:00     -396.016     -172.867      -31.476      211.792      144.344       83.522    44855.875    20835.331     6975.993       13.017        3.633      432.102       94.456        0.048      344.520       21.393      860.441
08/22/2014  21:41:00     -354.365      -93.424      -12.144      169.255      125.480       74.642    28647.159    15745.234     5571.404        9.220        2.498      366.474       76.587        0.044      344.492       21.346      860.464
08/22/2014  21:42:00     -203.575     -120.908        9.968      108.959      115.367       60.091    11872.087    13309.440     3610.975        4.247        1.440      236.773       53.798        0.052      344.464       21.299      860.468
08/22/2014  21:43:00     -118.770      -36.102       20.428      128.981      110.836       61.050    16636.030    12284.567     3727.061        2.423        1.632      124.136       69.347        0.312      344.441       21.259      860.483
08/22/2014  21:44:00     -301.639     -115.649       17.854      238.468      169.011       83.442    56867.015    28564.662     6962.493        9.852        4.620      323.049      117.607        0.133      344.442       21.260      860.491
08/22/2014  21:45:00     -198.727      -99.555        9.056      173.950      137.444       85.446    30258.772    18890.919     7300.943        5.296        2.823      222.269       97.630        0.193      344.445       21.267      860.491
08/22/2014  21:46:00     -270.692      -55.901      -13.419      129.277      167.154       67.940    16712.588    27940.456     4615.888        6.291        2.463      276.404       41.408        0.022      344.440       21.257      860.521
08/22/2014  21:47:00     -253.111     -150.580      -19.614      180.685      123.391       59.451    32647.024    15225.409     3534.440        6.926        2.570      294.516       65.945        0.050      344.447       21.269      860.557
08/22/2014  21:48:00     -283.305     -112.331        5.050      219.442      136.344       97.003    48154.717    18589.807     9409.491        8.451        3.808      304.763      105.309        0.119      344.450       21.275      860.540
08/22/2014  21:49:00     -454.643     -139.572      -19.131      220.209      162.901       81.006    48491.823    26536.727     6562.033       15.405        4.080      475.585       86.486        0.033      344.466       21.302      860.561
08/22/2014  21:50:00     -255.603     -157.273        9.340      197.278      119.674       82.958    38918.474    14321.749     6882.095        7.513        3.006      300.112       79.010        0.069      344.470       21.308      860.566
08/22/2014  21:51:00     -400.641     -175.905      -20.551      159.070      147.410       69.545    25303.346    21729.778     4836.571       12.186        2.593      437.557       68.336        0.024      344.456       21.284      860.579
08/22/2014  21:52:00     -307.098      -43.665       -6.804      160.748      145.980       81.431    25839.849    21310.043     6630.943        7.501        2.689      310.187       82.709        0.071      344.433       21.244      860.596
08/22/2014  21:53:00     -348.251     -201.430      -10.238      207.086      148.443       90.635    42884.406    22035.387     8214.749       11.753        3.657      402.309       86.388        0.046      344.440       21.257      860.617
08/22/2014  21:54:00     -164.017      -47.688       13.705      208.671      119.879       79.124    43543.618    14371.012     6260.642        4.676        3.209      170.809       81.959        0.230      344.417       21.218      860.628
08/22/2014  21:55:00     -313.509     -101.114       -4.308      192.976      122.393       83.877    37239.577    14980.164     7035.425        8.388        2.963      329.412       89.957        0.075      344.390       21.171      860.641
08/22/2014  21:56:00     -329.702     -143.056      -19.401      113.795      131.364       71.984    12949.349    17256.506     5181.657        8.246        1.769      359.400       61.558        0.029      344.407       21.198      860.665
08/22/2014  21:57:00     -307.672     -144.399        0.521      180.441      140.224       81.147    32558.826    19662.867     6584.869        8.715        2.940      339.872       95.421        0.079      344.381       21.156      860.639
08/22/2014  21:58:00     -323.996     -221.739      -14.275      210.947      160.360       88.361    44498.673    25715.288     7807.750       11.617        3.901      392.609       87.264        0.049      344.398       21.187      860.623
08/22/2014  21:59:00     -515.016     -126.863      -22.138      228.997      171.397      108.781    52439.820    29377.085    11833.380       18.772        4.683      530.410      126.708        0.057      344.364       21.126      860.638
08/22/2014  22:00:00     -359.700     -129.418        5.262      176.810      173.135       88.004    31261.820    29975.781     7744.728       10.756        3.449      382.273      100.724        0.069      344.369       21.137      860.683
08/22/2014  22:01:00     -424.576     -226.711      -13.611      285.889      188.656      116.146    81732.663    35591.266    13490.005       18.130        6.541      481.314      129.824        0.073      344.376       21.146      860.680
08/22/2014  22:02:00     -345.201     -270.003       -3.498      239.374      181.459      122.613    57300.095    32927.201    15033.986       14.865        5.263      438.252      139.038        0.101      344.394       21.178      860.715
08/22/2014  22:03:00     -301.522     -140.220       -2.022      226.220      152.673       92.426    51175.458    23308.975     8542.481        9.679        4.151      332.531      103.310        0.097      344.374       21.143      860.787
08/22/2014  22:04:00     -336.371      -25.106        8.953      232.980      155.034       94.309    54279.622    24035.430     8894.241       10.052        4.360      337.307      114.495        0.115      344.344       21.094      860.806
08/22/2014  22:05:00     -361.969      -61.874       -6.439      181.507      116.523       63.994    32944.659    13577.655     4095.175        9.274        2.531      367.219       53.352        0.021      344.361       21.123      860.764
08/22/2014  22:06:00     -277.593     -118.621      -11.027      200.501      146.416       82.914    40200.734    21437.564     6874.757        7.987        3.426      301.876       87.759        0.085      344.343       21.092      860.774
08/22/2014  22:07:00     -103.624      -52.448       16.531      152.256      109.458       77.881    23181.910    11980.995     6065.489        2.749        2.061      116.142       80.455        0.480      344.303       21.025      860.779
08/22/2014  22:08:00     -302.732      -85.186       -2.850      161.238      125.898       79.237    25997.674    15850.304     6278.461        7.351        2.406      314.489       96.488        0.094      344.312       21.040      860.790
08/22/2014  22:09:00     -404.618     -208.445       -4.099      201.020      154.763       81.755    40409.080    23951.531     6683.960       13.910        3.552      455.153       83.635        0.034      344.330       21.068      860.812
08/22/2014  22:10:00     -161.392      -25.571       24.567      166.092       87.483       74.671    27586.511     7653.357     5575.749        3.405        2.041      163.406       83.233        0.259      344.317       21.048      860.838
08/22/2014  22:11:00     -121.219       12.835       -3.367       93.073       60.919       37.742     8662.574     3711.073     1424.448        1.433        0.690      121.897       43.465        0.127      344.260       20.952      860.834
08/22/2014  22:12:00     -108.319      -72.872        3.980       73.551       88.870       32.221     5409.765     7897.796     1038.184        1.570        0.717      130.550       38.761        0.088      344.240       20.917      860.806
08/22/2014  22:13:00      -98.483      -15.785        8.344      100.097       76.095       58.647    10019.428     5790.387     3439.460        1.463        0.962       99.740       52.067        0.273      344.263       20.956      860.819
08/22/2014  22:14:00     -170.974      -16.734       -3.268       94.133       78.506       46.377     8860.934     6163.262     2150.855        2.335        0.859      171.791       49.996        0.085      344.185       20.821      860.814
08/22/2014  22:15:00     -108.525      -75.274       19.318      135.659      112.992       66.802    18403.444    12767.220     4462.459        2.672        1.782      132.075       70.611        0.286      344.205       20.856      860.826
08/22/2014  22:16:00     -301.050     -209.835        0.352      190.235      184.169       87.352    36189.256    33918.330     7630.290       10.618        3.887      366.963       92.517        0.064      344.271       20.968      860.781
08/22/2014  22:17:00     -265.111     -164.154        1.432      204.619      146.138       88.138    41869.120    21356.430     7768.275        8.410        3.550      311.818      102.794        0.109      344.280       20.985      860.788
08/22/2014  22:18:00     -248.395     -191.730      -15.002      183.888      123.140       73.983    33814.684    15163.546     5473.558        7.656        2.723      313.784       66.762        0.045      344.289       21.000      860.781
08/22/2014  22:19:00     -385.952     -200.322      -15.799      192.259      147.008       82.887    36963.446    21611.257     6870.177       12.738        3.272      434.843       89.882        0.043      344.292       21.003      860.825
08/22/2014  22:20:00     -280.933     -220.082       10.744      241.685      171.280      106.790    58411.705    29336.757    11404.150       11.329        4.958      356.874      130.989        0.135      344.270       20.968      860.867
08/22/2014  22:21:00     -233.768     -154.659      -16.775      154.809      157.354       86.671    23965.694    24760.328     7511.888        6.753        2.812      280.298       90.275        0.104      344.279       20.982      860.906
08/22/2014  22:22:00     -194.738     -117.398       -4.929       99.831       83.398       44.580     9966.131     6955.185     1987.382        3.532        0.945      227.387       43.448        0.037      344.270       20.966      860.911
08/22/2014  22:23:00     -148.335      -80.238       -2.593       85.358       46.319       33.629     7285.982     2145.459     1130.907        1.950        0.528      168.646       36.095        0.046      344.260       20.953      860.887
08/22/2014  22:24:00     -125.646     -145.268       12.110      106.644       77.954       48.443    11372.909     6076.805     2346.734        2.841        0.990      192.067       57.617        0.090      344.199       20.846      860.904
08/22/2014  22:25:00     -151.762     -116.749        3.447      133.983      116.574       61.083    17951.551    13589.402     3731.115        3.597        1.764      191.473       71.874        0.141      344.183       20.820      860.920
08/22/2014  22:26:00     -343.401     -156.401      -17.054      208.928      114.332       75.972    43650.795    13071.749     5771.716       10.257        3.125      377.340      100.912        0.072      344.180       20.813      860.899
08/22/2014  22:27:00     -254.089      -87.529        0.868      147.515      106.041       70.227    21760.653    11244.718     4931.894        5.507        1.897      268.743       69.461        0.067      344.132       20.732      860.925
08/22/2014  22:28:00     -303.545      -72.575      -14.093      156.406      102.823       65.125    24462.755    10572.615     4241.310        6.843        1.964      312.101       74.775        0.057      344.155       20.770      860.942
08/22/2014  22:29:00     -215.722      -59.968       -4.004       93.489      106.710       48.635     8740.154    11386.993     2365.409        3.632        1.125      223.902       37.793        0.028      344.144       20.750      860.956
08/22/2014  22:30:00     -149.850      -26.084       -6.074      135.776       92.639       62.725    18434.996     8582.035     3934.449        2.706        1.548      152.103       77.445        0.259      344.118       20.709      860.957
08/22/2014  22:31:00     -239.647       -2.075       -0.989      130.099       93.528       55.375    16925.704     8747.521     3066.440        4.308        1.437      239.656       59.669        0.062      344.124       20.717      860.947
08/22/2014  22:32:00     -219.972      -46.535       -7.439      149.092      103.692       57.029    22228.425    10752.101     3252.257        4.341        1.812      224.840       53.664        0.057      344.126       20.722      860.939
08/22/2014  22:33:00     -171.117     -100.166       14.302      136.988      119.520       67.956    18765.735    14284.988     4617.954        3.859        1.883      198.278       65.043        0.108      344.115       20.703      860.922
08/22/2014  22:34:00     -379.007     -127.309      -17.413      196.468      114.384       64.488    38599.536    13083.731     4158.645       10.799        2.792      399.818       64.066        0.026      344.136       20.737      860.930
08/22/2014  22:35:00     -248.684       -3.255       -9.917      126.301       98.132       51.460    15951.951     9629.891     2648.160        4.509        1.412      248.705       42.517        0.029      344.071       20.627      860.940
08/22/2014  22:36:00     -223.756      -65.746      -15.879      138.253      144.998       63.484    19113.807    21024.366     4030.228        4.940        2.208      233.215       65.190        0.078      344.085       20.650      860.943
08/22/2014  22:37:00     -212.124      -75.901      -11.463      142.868      113.627       65.722    20411.328    12911.191     4319.392        4.426        1.882      225.294       71.270        0.100      344.075       20.635      860.920
08/22/2014  22:38:00     -162.182      -74.578        1.279      134.082      126.824       66.000    17977.965    16084.244     4356.065        3.513        1.921      178.508       80.322        0.202      344.071       20.628      860.911
08/22/2014  22:39:00     -333.855      -70.791       -9.838      213.402      107.343       67.746    45540.232    11522.613     4589.502        8.910        3.083      341.278       80.625        0.056      344.063       20.613      860.910
08/22/2014  22:40:00     -575.467     -145.680      -33.400      225.416      178.390       93.203    50812.406    31822.975     8686.768       22.239        4.566      593.620       86.137        0.021      344.138       20.741      860.905
08/22/2014  22:41:00     -389.938      -95.037       -5.252      171.597      168.274       83.964    29445.450    28316.021     7050.036       11.295        3.241      401.352       82.069        0.042      344.119       20.708      860.954
08/22/2014  22:42:00     -277.844     -125.191       -7.424      139.617      112.584       63.458    19492.939    12675.257     4026.941        6.455        1.810      304.746       51.759        0.029      344.109       20.691      860.967
08/22/2014  22:43:00     -325.364      -80.107      -19.447      168.807      118.131       84.051    28495.767    13954.828     7064.583        8.108        2.476      335.080       86.508        0.067      344.124       20.717      860.981
08/22/2014  22:44:00     -149.454      -34.961        9.106       95.098      104.759       63.781     9043.653    10974.389     4067.956        2.386        1.204      153.489       59.657        0.151      344.127       20.722      860.980
08/22/2014  22:45:00     -364.244       51.797      -21.618      156.223      125.265       66.266    24405.743    15691.269     4391.226        9.015        2.224      367.908       69.361        0.036      344.087       20.653      860.979
08/22/2014  22:46:00     -204.408      -17.739       -5.875      149.285      105.014       58.653    22286.064    11027.942     3440.230        3.944        1.838      205.177       58.658        0.082      344.055       20.601      860.947
08/22/2014  22:47:00     -290.091     -143.326        0.708      168.652      151.639       88.303    28443.498    22994.404     7797.432        8.195        2.962      323.566       87.732        0.074      344.073       20.630      860.894
08/22/2014  22:48:00     -301.704     -128.777       -9.469      223.563      160.716       85.187    49980.260    25829.499     7256.800        9.537        4.153      328.038      109.078        0.111      344.039       20.573      860.883
08/22/2014  22:49:00     -437.717      -64.157      -29.541      202.978      179.029       85.681    41200.256    32051.298     7341.237       13.857        4.030      442.394       73.439        0.028      344.036       20.568      860.928
08/22/2014  22:50:00     -413.407      -64.085       -1.695      214.602      156.618       98.797    46053.965    24529.092     9760.794       12.766        4.017      418.345      110.107        0.069      344.065       20.616      860.963
08/22/2014  22:51:00     -484.360     -144.715      -22.662      190.454      166.606       86.719    36272.603    27757.675     7520.176       16.379        3.578      505.517       90.213        0.032      344.065       20.614      861.010
08/22/2014  22:52:00     -449.546      -48.589      -32.305      238.762      130.918       82.211    57007.271    17139.595     6758.569       14.318        4.045      452.164      102.582        0.051      344.095       20.667      861.017
08/22/2014  22:53:00     -301.036      -27.508       13.709      189.255      163.054       82.191    35817.599    26586.703     6755.397        8.035        3.458      302.290       89.763        0.088      344.059       20.607      861.029
08/22/2014  22:54:00     -353.988      -76.923      -24.670      215.752      103.948       75.145    46549.072    10805.084     5646.814        9.740        3.150      362.250      100.878        0.078      344.063       20.614      861.035
08/22/2014  22:55:00     -250.720      -62.191        8.730      158.560      118.721       62.169    25141.308    14094.703     3864.971        5.494        2.155      258.318       72.772        0.079      344.023       20.545      861.042
08/22/2014  22:56:00     -403.461      -43.110      -27.090      195.441      102.014       78.549    38197.013    10406.860     6169.897       11.006        2.739      405.758       93.566        0.053      344.036       20.568      861.041
08/22/2014  22:57:00     -362.184     -116.894       -0.713      197.288      121.937       72.077    38922.701    14868.740     5195.053       10.190        2.949      380.580       80.461        0.045      344.031       20.557      861.036
08/22/2014  22:58:00     -281.685      -40.090       -0.792      136.138      100.902       72.564    18533.498    10181.265     5265.494        5.746        1.699      284.524       74.482        0.069      344.022       20.543      861.046
08/22/2014  22:59:00     -515.653     -122.939      -28.227      195.312      158.469       88.288    38146.800    25112.306     7794.855       17.642        3.553      530.106       97.819        0.034      344.030       20.557      861.012
08/22/2014  23:00:00     -496.918      -91.958      -35.055      147.454      151.700       74.361    21742.581    23012.828     5529.504       15.344        2.514      505.355       71.748        0.020      344.034       20.562      861.013
08/22/2014  23:01:00     -393.304      -60.698      -24.237      168.670      127.734       79.717    28449.663    16315.863     6354.766       10.503        2.556      397.960       81.537        0.042      344.018       20.538      861.020
08/22/2014  23:02:00     -440.080      -44.774      -18.445      161.718      151.840       72.353    26152.636    23055.537     5234.991       12.522        2.722      442.352       69.584        0.025      343.999       20.505      861.059
08/22/2014  23:03:00     -473.876      -46.639      -27.721      190.612       98.540       69.853    36333.067     9710.111     4879.506       13.920        2.546      476.165       84.513        0.032      344.033       20.561      861.054
08/22/2014  23:04:00     -503.346      -50.112      -31.031      121.080      124.777       54.990    14660.324    15569.339     3023.870       14.504        1.663      505.834       52.741        0.011      344.057       20.604      861.030
08/22/2014  23:05:00     -430.429      -92.989      -17.710      223.668      161.169       82.140    50027.446    25975.429     6746.951       13.847        4.137      440.359       97.712        0.049      343.996       20.500      860.999
08/22/2014  23:06:00     -396.393     -125.198       -8.490      175.713      143.345       77.264    30875.084    20547.703     5969.735       11.512        2.870      415.694       86.730        0.044      343.986       20.480      861.026
08/22/2014  23:07:00     -437.900      -70.151      -27.710      196.029      134.892       74.794    38427.528    18195.816     5594.205       12.982        3.111      443.484       80.789        0.033      343.983       20.475      861.063
08/22/2014  23:08:00     -379.149      -52.433      -15.449      153.606      128.045       80.976    23594.772    16395.428     6557.183        9.664        2.327      382.758       71.089        0.034      343.999       20.504      861.092
08/22/2014  23:09:00     -373.580     -108.397      -24.387      180.704      108.096       67.981    32653.813    11684.638     4621.379       10.042        2.448      388.989       82.774        0.045      344.024       20.547      861.115
08/22/2014  23:10:00     -183.766      -50.212       16.384      184.016      117.498       66.969    33861.995    13805.772     4484.879        4.435        2.608      190.502       88.308        0.215      343.989       20.488      861.117
08/22/2014  23:11:00     -322.089      -15.034      -26.636      108.544      100.713       54.528    11781.864    10143.082     2973.308        6.478        1.245      322.440       46.276        0.021      343.994       20.495      861.127
08/22/2014  23:12:00     -306.780      -34.898      -19.128      117.512       90.898       61.508    13809.155     8262.442     3783.174        6.077        1.293      308.759       60.141        0.038      343.954       20.425      861.117
08/22/2014  23:13:00     -167.711      -46.608        7.600       93.672       76.491       57.556     8774.374     5850.839     3312.642        2.414        0.897      174.066       55.500        0.102      343.902       20.337      861.104
08/22/2014  23:14:00     -386.135      -82.871      -21.917      201.312      122.464       75.807    40526.341    14997.520     5746.729       10.885        3.064      394.928       90.198        0.052      343.939       20.401      861.110
08/22/2014  23:15:00     -490.811      -95.639      -21.666      199.066      163.456       83.142    39627.216    26717.923     6912.604       16.187        3.663      500.042       88.652        0.031      343.950       20.419      861.088
08/22/2014  23:16:00     -364.028      -91.079      -16.348      148.351      121.909       72.406    22007.983    14861.692     5242.610        9.159        2.106      375.249       74.966        0.040      343.924       20.376      861.105
08/22/2014  23:17:00     -381.506      -23.066       -8.351      176.349       97.989       72.006    31098.966     9601.909     5184.907        9.601        2.294      382.203       84.185        0.049      343.922       20.373      861.112
08/22/2014  23:18:00     -315.767     -100.561        6.260      172.870      143.492       68.260    29884.027    20590.084     4659.433        8.249        2.757      331.393       76.747        0.054      343.934       20.393      861.111
08/22/2014  23:19:00     -294.514      -50.361        8.305      160.366      117.786       75.261    25717.118    13873.558     5664.185        6.729        2.263      298.788       83.340        0.078      343.921       20.369      861.146
08/22/2014  23:20:00     -357.621      -80.523      -15.981      164.508      133.752       74.790    27062.896    17889.533     5593.599        9.258        2.527      366.575       84.874        0.054      343.932       20.389      861.157
08/22/2014  23:21:00     -291.998      -76.480       -9.607      156.747      135.092       68.682    24569.662    18249.970     4717.250        6.936        2.377      301.848       75.220        0.062      343.923       20.373      861.164
08/22/2014  23:22:00     -367.856      -95.760      -11.430      190.450      124.722       67.373    36271.345    15555.621     4539.188       10.048        2.818      380.116       71.131        0.035      343.919       20.366      861.180
08/22/2014  23:23:00     -497.572      -73.961      -45.783      192.646      169.305       89.132    37112.557    28664.304     7944.564       16.442        3.686      503.039       98.861        0.039      343.920       20.368      861.196
08/22/2014  23:24:00     -420.398      -40.339      -27.538      129.523      141.690       71.497    16776.306    20076.052     5111.846       11.053        2.098      422.329       62.041        0.022      343.943       20.407      861.233
08/22/2014  23:25:00     -398.869      -53.406      -18.375      126.758      111.742       72.454    16067.474    12486.190     5249.622        9.804        1.690      402.428       73.216        0.033      343.935       20.394      861.256
08/22/2014  23:26:00     -272.694     -100.844       -9.590      113.586      105.262       61.152    12901.712    11080.176     3739.540        5.617        1.386      290.743       63.082        0.047      343.908       20.347      861.276
08/22/2014  23:27:00     -326.549       -0.265      -46.219       79.611       71.835       41.627     6337.882     5160.273     1732.807        6.100        0.662      326.549       28.652        0.008      343.997       20.499      861.270
08/22/2014  23:28:00      -86.441       38.374      -11.527       68.326       93.238       32.566     4668.448     8693.414     1060.572        1.175        0.721       94.575       30.947        0.107      343.960       20.439      861.236
08/22/2014  23:29:00     -121.510       95.309      -25.729       64.042       77.772       39.158     4101.328     6048.478     1533.319        1.809        0.584      154.429       29.698        0.037      343.979       20.472      861.205
08/22/2014  23:30:00     -145.521       15.719      -21.734       95.613       83.961       45.434     9141.839     7049.533     2064.206        2.007        0.913      146.367       36.007        0.061      343.918       20.365      861.191
08/22/2014  23:31:00     -324.342      -96.886       -8.986      126.016      111.794       60.577    15880.048    12497.958     3669.583        7.335        1.602      338.503       62.250        0.034      343.852       20.252      861.189
08/22/2014  23:32:00     -349.180     -102.299       -7.664      135.391      117.022       71.997    18330.644    13694.085     5183.511        8.482        1.860      363.857       66.345        0.033      343.846       20.241      861.185
08/22/2014  23:33:00     -327.578      -19.485      -11.402      144.552      128.179       73.617    20895.255    16429.836     5419.406        7.527        2.137      328.157       75.652        0.053      343.867       20.279      861.182
08/22/2014  23:34:00     -431.270      -84.126      -23.545      202.282      132.147       78.232    40917.875    17462.893     6120.223       12.905        3.225      439.399       90.578        0.042      343.930       20.384      861.198
08/22/2014  23:35:00     -366.383      -70.443      -12.652      131.556      151.113       70.912    17306.998    22834.997     5028.486        9.226        2.259      373.094       64.998        0.030      343.932       20.389      861.220
08/22/2014  23:36:00     -333.417      -19.790       -5.869      153.879       95.439       61.249    23678.841     9108.563     3751.395        7.406        1.827      334.003       74.191        0.049      343.913       20.357      861.234
08/22/2014  23:37:00     -361.244      -33.132      -16.891      127.603      107.604       64.333    16282.554    11578.667     4138.781        8.193        1.600      362.760       60.044        0.027      343.911       20.352      861.233
08/22/2014  23:38:00     -338.850      -48.358      -33.038      113.984       92.626       54.037    12992.280     8579.600     2919.944        7.137        1.225      342.283       57.975        0.029      343.955       20.427      861.222
08/22/2014  23:39:00     -291.267      -73.636       -5.211      124.241       84.064       54.847    15435.756     7066.703     3008.247        5.789        1.276      300.431       67.125        0.050      343.959       20.434      861.192
08/22/2014  23:40:00     -203.392      -54.102       -6.537      111.194      102.829       53.915    12364.120    10573.751     2906.825        3.509        1.292      210.464       55.001        0.068      343.891       20.319      861.177
08/22/2014  23:41:00     -259.498      -58.785       -2.093       90.586       94.629       51.406     8205.796     8954.656     2642.587        4.530        0.990      266.073       52.176        0.038      343.868       20.279      861.185
08/22/2014  23:42:00     -252.910      -46.550      -19.917       92.914       89.487       49.804     8632.967     8007.880     2480.431        4.282        0.956      257.158       40.050        0.024      343.848       20.245      861.181
08/22/2014  23:43:00     -233.703      -72.090        3.621      113.555       91.202       55.756    12894.792     8317.741     3108.753        4.207        1.216      244.569       58.647        0.058      343.814       20.187      861.183
08/22/2014  23:44:00     -298.996      -75.723      -10.505      120.125      113.270       58.483    14430.072    12830.154     3420.299        6.296        1.534      308.436       55.087        0.032      343.843       20.237      861.179
08/22/2014  23:45:00     -383.880      -69.878      -16.294      142.466      140.371       78.689    20296.490    19703.948     6192.006        9.934        2.310      390.188       80.195        0.042      343.887       20.311      861.172
08/22/2014  23:46:00     -265.928      -81.089        2.750      117.261      107.768       55.011    13750.211    11613.974     3026.262        5.284        1.420      278.016       45.291        0.027      343.879       20.298      861.185
08/22/2014  23:47:00     -230.364      -29.606      -21.462      122.408      111.134       64.010    14983.597    12350.706     4097.314        4.291        1.572      232.259       62.514        0.072      343.929       20.383      861.193
08/22/2014  23:48:00     -273.156       33.392      -21.272      144.320      102.067       52.910    20828.185    10417.580     2799.451        5.511        1.702      275.189       60.909        0.049      343.933       20.391      861.196
08/22/2014  23:49:00     -281.309     -101.270       -8.499      119.068      131.418       52.783    14177.249    17270.649     2786.065        6.184        1.712      298.982       52.277        0.031      343.913       20.355      861.196
08/22/2014  23:50:00     -282.218       25.772       -6.903      169.185      102.301       58.075    28623.476    10465.478     3372.669        6.140        2.123      283.392       75.224        0.070      343.901       20.337      861.200
08/22/2014  23:51:00     -313.788      -99.137      -25.826      161.300      114.248       65.317    26017.825    13052.632     4266.347        7.614        2.167      329.076       74.061        0.051      343.922       20.373      861.187
08/22/2014  23:52:00     -383.752      -96.432      -14.158      123.672      129.743       70.355    15294.854    16833.206     4949.793        9.691        1.854      395.682       62.618        0.025      343.975       20.462      861.196
08/22/2014  23:53:00     -400.522       10.874      -29.325      146.516      128.029       56.925    21466.849    16391.324     3240.453       10.124        2.055      400.669       60.285        0.023      343.989       20.486      861.221
08/22/2014  23:54:00     -248.843      -54.444        0.522      126.128       94.800       58.694    15908.295     8986.966     3445.004        4.661        1.417      254.729       63.800        0.063      343.920       20.369      861.223
08/22/2014  23:55:00     -286.032      -20.314      -12.781      115.521       87.990       50.727    13345.182     7742.180     2573.236        5.302        1.183      286.753       55.325        0.037      343.914       20.358      861.219
08/22/2014  23:56:00     -221.880      -18.399      -10.478       88.613       70.996       45.378     7852.331     5040.366     2059.121        3.231        0.748      222.641       48.480        0.047      343.886       20.310      861.204
08/22/2014  23:57:00     -335.591      -22.000      -18.514      115.591      109.301       60.538    13361.344    11946.815     3664.843        7.120        1.449      336.311       58.538        0.030      343.924       20.373      861.196
08/22/2014  23:58:00     -305.054      -79.626       -6.692      122.629       99.511       51.432    15037.825     9902.355     2645.215        6.351        1.379      315.275       55.358        0.031      343.897       20.328      861.196
08/22/2014  23:59:00     -327.768      -51.145      -22.773      113.161       96.974       52.837    12805.483     9403.872     2791.781        6.778        1.250      331.734       54.046        0.027      343.894       20.324      861.205
